[[{"header":{"parameterUnit":"m.s-1","parameterCategory":1,"la1":30.6,"la2":28.766,"lo1":-90.7593,"lo2":-88.6598,"dy":0.0162,"dx":0.0183,"nx":116,"ny":114,"refTime":"2024-04-18T06:00:00:Z","depth":0,"parameterNumber":2,"parameterNumberName":"U-component_of_WINDS"},"data":[0.0,0.0,0.0,0.0,0.0,0.0,0.0,0.0,0.0,0.0,0.0,0.0,0.0,0.0,0.0,0.0,0.0,0.0,0.0,0.0,0.0,0.0,0.0,0.0,0.0,0.0,0.0,0.0,0.0,0.0,0.0,0.0,0.0,0.0,0.0,0.0,0.0,0.0,0.0,0.0,0.0,0.0,0.0,0.0,0.0,0.0,0.0,0.0,0.0,0.0,0.0,0.0,0.0,0.0,0.0,0.0,0.0,0.0,0.0,0.0,0.0,0.0,0.0,0.0,0.0,0.0,0.0,0.0,0.0,0.0,0.0,0.0,0.0,0.0,0.0,0.0,0.0,0.0,0.0,0.0,0.0,0.0,0.0,0.0,0.0,0.0,0.0,0.0,0.0,0.0,0.0,0.0,0.0,0.0,0.0,0.0,0.0,0.0,0.0,0.0,0.0,0.0,0.0,0.0,0.0,0.0,0.0,0.0,0.0,0.0,0.0,0.0,0.0,0.0,0.0,0.0,0.0,0.0,0.0,0.0,0.0,0.0,0.0,0.0,0.0,0.0,0.0,0.0,0.0,0.0,0.0,0.0,0.0,0.0,0.0,0.0,0.0,0.0,0.0,0.0,0.0,0.0,0.0,0.0,0.0,0.0,0.0,0.0,0.0,0.0,0.0,0.0,0.0,0.0,0.0,0.0,0.0,0.0,0.0,0.0,0.0,0.0,0.0,0.0,0.0,0.0,0.0,0.0,0.0,0.0,0.0,0.0,0.0,0.0,0.0,0.0,0.0,0.0,0.0,0.0,0.0,0.0,0.0,0.0,0.0,0.0,0.0,0.0,0.0,0.0,0.0,0.0,0.0,0.0,0.0,0.0,0.0,0.0,0.0,0.0,0.0,0.0,0.0,0.0,0.0,0.0,0.0,0.0,0.0,0.0,0.0,0.0,0.0,0.0,0.0,0.0,0.0,0.0,0.0,0.0,0.0,0.0,0.0,0.0,0.0,0.0,0.0,0.0,0.0,0.0,0.0,0.0,0.0,0.0,0.0,0.0,0.0,0.0,0.0,0.0,0.0,0.0,0.0,0.0,0.0,0.0,0.0,0.0,0.0,0.0,0.0,0.0,0.0,0.0,0.0,0.0,0.0,0.0,0.0,0.0,0.0,0.0,0.0,0.0,0.0,0.0,0.0,0.0,0.0,0.0,0.0,0.0,0.0,0.0,0.0,0.0,0.0,0.0,0.0,0.0,0.0,0.0,0.0,0.0,0.0,0.0,0.0,0.0,0.0,0.0,0.0,0.0,0.0,0.0,0.0,0.0,0.0,0.0,0.0,0.0,0.0,0.0,0.0,0.0,0.0,0.0,0.0,0.0,0.0,0.0,0.0,0.0,0.0,0.0,0.0,0.0,0.0,0.0,0.0,0.0,0.0,0.0,0.0,0.0,0.0,0.0,0.0,0.0,0.0,0.0,0.0,0.0,0.0,0.0,0.0,0.0,0.0,0.0,0.0,0.0,0.0,0.0,0.0,0.0,0.0,0.0,0.0,0.0,0.0,0.0,0.0,0.0,0.0,0.0,0.0,0.0,0.0,0.0,0.0,0.0,0.0,0.0,0.0,0.0,0.0,0.0,0.0,0.0,0.0,0.0,0.0,0.0,0.0,0.0,0.0,0.0,0.0,0.0,0.0,0.0,0.0,0.0,0.0,0.0,0.0,0.0,0.0,0.0,0.0,0.0,0.0,0.0,0.0,0.0,0.0,0.0,0.0,0.0,0.0,0.0,0.0,0.0,0.0,0.0,0.0,0.0,0.0,0.0,0.0,0.0,0.0,0.0,0.0,0.0,0.0,0.0,0.0,0.0,0.0,0.0,0.0,0.0,0.0,0.0,0.0,0.0,0.0,0.0,0.0,0.0,0.0,0.0,0.0,0.0,0.0,0.0,0.0,0.0,0.0,0.0,0.0,0.0,0.0,0.0,0.0,0.0,0.0,0.0,0.0,0.0,0.0,0.0,0.0,0.0,0.0,0.0,0.0,0.0,0.0,0.0,0.0,0.0,0.0,0.0,0.0,0.0,0.0,0.0,0.0,0.0,0.0,0.0,0.0,0.0,0.0,0.0,0.0,0.0,0.0,0.0,0.0,0.0,0.0,0.0,0.0,0.0,0.0,0.0,0.0,0.0,0.0,0.0,0.0,0.0,0.0,0.0,0.0,0.0,0.0,0.0,0.0,0.0,0.0,0.0,0.0,0.0,0.0,0.0,0.0,0.0,0.0,0.0,0.0,0.0,0.0,0.0,0.0,0.0,0.0,0.0,0.0,0.0,0.0,0.0,0.0,0.0,0.0,0.0,0.0,0.0,0.0,0.0,0.0,0.0,0.0,0.0,0.0,0.0,0.0,0.0,0.0,0.0,0.0,0.0,0.0,0.0,0.0,0.0,0.0,0.0,0.0,0.0,0.0,0.0,0.0,0.0,0.0,0.0,0.0,0.0,0.0,0.0,0.0,0.0,0.0,0.0,0.0,0.0,0.0,0.0,0.0,0.0,0.0,0.0,0.0,0.0,0.0,0.0,0.0,0.0,0.0,0.0,0.0,0.0,0.0,0.0,0.0,0.0,0.0,0.0,0.0,0.0,0.0,0.0,0.0,0.0,0.0,0.0,0.0,0.0,0.0,0.0,0.0,0.0,0.0,0.0,0.0,0.0,0.0,0.0,0.0,0.0,0.0,0.0,0.0,0.0,0.0,0.0,0.0,0.0,0.0,0.0,0.0,0.0,0.0,0.0,0.0,0.0,0.0,0.0,0.0,0.0,0.0,0.0,0.0,0.0,0.0,0.0,0.0,0.0,0.0,0.0,0.0,0.0,0.0,0.0,0.0,0.0,0.0,0.0,0.0,0.0,0.0,0.0,0.0,0.0,0.0,0.0,0.0,0.0,0.0,0.0,0.0,0.0,0.0,0.0,0.0,0.0,0.0,0.0,0.0,0.0,0.0,0.0,0.0,0.0,0.0,0.0,0.0,0.0,0.0,0.0,0.0,0.0,0.0,0.0,0.0,0.0,0.0,0.0,0.0,0.0,0.0,0.0,0.0,0.0,0.0,0.0,0.0,0.0,0.0,0.0,0.0,0.0,0.0,0.0,0.0,0.0,0.0,0.0,0.0,0.0,0.0,0.0,0.0,0.0,0.0,0.0,0.0,0.0,0.0,0.0,0.0,0.0,0.0,0.0,0.0,0.0,0.0,0.0,0.0,0.0,0.0,0.0,0.0,0.0,0.0,0.0,0.0,0.0,0.0,0.0,0.0,0.0,0.0,0.0,0.0,0.0,0.0,0.0,0.0,0.0,0.0,0.0,0.0,0.0,0.0,0.0,0.0,0.0,0.0,0.0,0.0,0.0,0.0,0.0,0.0,0.0,0.0,0.0,0.0,0.0,0.0,0.0,0.0,0.0,0.0,0.0,0.0,0.0,0.0,0.0,0.0,0.0,0.0,0.0,0.0,0.0,0.0,0.0,0.0,0.0,0.0,0.0,0.0,0.0,0.0,0.0,0.0,0.0,0.0,0.0,0.0,0.0,0.0,0.0,0.0,0.0,0.0,0.0,0.0,0.0,0.0,0.0,0.0,0.0,0.0,0.0,0.0,0.0,0.0,0.0,0.0,0.0,0.0,0.0,0.0,0.0,0.0,0.0,0.0,0.0,0.0,0.0,0.0,0.0,0.0,0.0,0.0,0.0,0.0,0.0,0.0,0.0,0.0,0.0,0.0,0.0,0.0,0.0,0.0,0.0,0.0,0.0,0.0,0.0,0.0,0.0,0.0,0.0,0.0,0.0,0.0,0.0,0.0,0.0,0.0,0.0,0.0,0.0,0.0,0.0,0.0,0.0,0.0,0.0,0.0,0.0,0.0,0.0,0.0,0.0,0.0,0.0,0.0,0.0,0.0,0.0,0.0,0.0,0.0,0.0,0.0,0.0,0.0,0.0,0.0,0.0,0.0,0.0,0.0,0.0,0.0,0.0,0.0,0.0,0.0,0.0,0.0,0.0,0.0,0.0,0.0,0.0,0.0,0.0,0.0,0.0,0.0,0.0,0.0,0.0,0.0,0.0,0.0,0.0,0.0,0.0,0.0,0.0,0.0,0.0,0.0,0.0,0.0,0.0,0.0,0.0,0.0,0.0,0.0,0.0,0.0,0.0,0.0,0.0,0.0,0.0,0.0,0.0,0.0,0.0,0.0,0.0,0.0,0.0,0.0,0.0,0.0,0.0,0.0,0.0,0.0,0.0,0.0,0.0,0.0,0.0,0.0,0.0,0.0,0.0,0.0,0.0,0.0,0.0,0.0,0.0,0.0,0.0,0.0,0.0,0.0,0.0,0.0,0.0,0.0,0.0,0.0,0.0,0.0,0.0,0.0,0.0,0.0,0.0,0.0,0.0,0.0,0.0,0.0,0.0,0.0,0.0,0.0,0.0,0.0,0.0,0.0,0.0,0.0,0.0,0.0,0.0,0.0,0.0,0.0,0.0,0.0,0.0,0.0,0.0,0.0,0.0,0.0,0.0,0.0,0.0,0.0,0.0,0.0,0.0,0.0,0.0,0.0,0.0,0.0,0.0,0.0,0.0,0.0,0.0,0.0,0.0,0.0,0.0,0.0,0.0,0.0,0.0,0.0,0.0,0.0,0.0,0.0,0.0,0.0,0.0,0.0,0.0,0.0,0.0,0.0,0.0,0.0,0.0,0.0,0.0,0.0,0.0,0.0,0.0,0.0,0.0,0.0,0.0,0.0,0.0,0.0,0.0,0.0,0.0,0.0,0.0,0.0,0.0,0.0,0.0,0.0,0.0,0.0,0.0,0.0,0.0,0.0,0.0,0.0,0.0,0.0,0.0,0.0,0.0,0.0,0.0,0.0,0.0,0.0,0.0,0.0,0.0,0.0,0.0,0.0,0.0,0.0,0.0,0.0,0.0,0.0,0.0,0.0,0.0,0.0,0.0,0.0,0.0,0.0,0.0,0.0,0.0,0.0,0.0,0.0,0.0,0.0,0.0,0.0,0.0,0.0,0.0,0.0,0.0,0.0,0.0,0.0,0.0,0.0,0.0,0.0,0.0,0.0,0.0,0.0,0.0,0.0,0.0,0.0,0.0,0.0,0.0,0.0,0.0,0.0,0.0,0.0,0.0,0.0,0.0,0.0,0.0,0.0,0.0,0.0,0.0,0.0,0.0,0.0,0.0,0.0,0.0,0.0,0.0,0.0,0.0,0.0,0.0,0.0,0.0,0.0,0.0,0.0,0.0,0.0,0.0,0.0,0.0,0.0,0.0,0.0,0.0,0.0,0.0,0.0,0.0,0.0,0.0,0.0,0.0,0.0,0.0,0.0,0.0,0.0,0.0,0.0,0.0,0.0,0.0,0.0,0.0,0.0,0.0,0.0,0.0,0.0,0.0,0.0,0.0,0.0,0.0,0.0,0.0,0.0,0.0,0.0,0.0,0.0,0.0,0.0,0.0,0.0,0.0,0.0,0.0,0.0,0.0,0.0,0.0,0.0,0.0,0.0,0.0,0.0,0.0,0.0,0.0,0.0,0.0,0.0,0.0,0.0,0.0,0.0,0.0,0.0,0.0,0.0,0.0,0.0,0.0,0.0,0.0,0.0,0.0,0.0,0.0,0.0,0.0,0.0,0.0,0.0,0.0,0.0,0.0,0.0,0.0,0.0,0.0,0.0,0.0,0.0,0.0,0.0,0.0,0.0,0.0,0.0,0.0,0.0,0.0,0.0,0.0,0.0,0.0,0.0,0.0,0.0,0.0,0.0,0.0,0.0,0.0,0.0,0.0,0.0,0.0,0.0,0.0,0.0,0.0,0.0,0.0,0.0,0.0,0.0,0.0,0.0,0.0,0.0,0.0,0.0,0.0,0.0,0.0,0.0,0.0,0.0,0.0,0.0,0.0,0.0,0.0,0.0,0.0,0.0,0.0,0.0,0.0,0.0,0.0,0.0,0.0,0.0,0.0,0.0,0.0,0.0,0.0,0.0,0.0,0.0,0.0,0.0,0.0,0.0,0.0,0.0,0.0,0.0,0.0,0.0,0.0,0.0,0.0,0.0,0.0,0.0,0.0,0.0,0.0,5.8894,0.0,0.0,0.0,0.0,0.0,0.0,0.0,0.0,0.0,0.0,0.0,0.0,0.0,0.0,0.0,0.0,0.0,0.0,0.0,0.0,0.0,0.0,0.0,0.0,5.6606,5.6606,5.6606,5.6606,5.6606,5.6606,0.0,0.0,0.0,0.0,0.0,5.6606,5.6606,5.6606,5.6606,5.6566,5.6522,5.6456,5.6484,5.6522,5.6551,0.0,0.0,0.0,0.0,0.0,0.0,0.0,0.0,0.0,0.0,0.0,0.0,0.0,0.0,0.0,0.0,0.0,0.0,0.0,0.0,0.0,0.0,0.0,0.0,0.0,0.0,0.0,0.0,0.0,0.0,0.0,0.0,0.0,0.0,0.0,0.0,0.0,0.0,0.0,0.0,0.0,0.0,0.0,0.0,0.0,0.0,0.0,0.0,0.0,0.0,0.0,0.0,0.0,0.0,0.0,0.0,0.0,0.0,0.0,0.0,0.0,0.0,0.0,0.0,0.0,0.0,0.0,0.0,0.0,0.0,0.0,5.9377,0.0,0.0,0.0,0.0,0.0,0.0,0.0,0.0,0.0,0.0,0.0,0.0,0.0,0.0,0.0,0.0,0.0,0.0,0.0,0.0,0.0,5.6606,5.6606,5.6606,5.6606,5.6606,5.6606,5.6606,5.6606,5.6606,0.0,0.0,5.6606,5.6606,5.6606,5.6606,5.6591,5.6579,5.6504,5.6432,5.6377,5.6377,5.6419,5.6461,0.0,0.0,0.0,0.0,0.0,0.0,0.0,0.0,0.0,0.0,0.0,0.0,0.0,0.0,0.0,0.0,0.0,0.0,0.0,0.0,0.0,0.0,0.0,0.0,0.0,0.0,0.0,0.0,0.0,0.0,0.0,0.0,0.0,0.0,0.0,0.0,0.0,0.0,0.0,0.0,0.0,0.0,0.0,0.0,0.0,0.0,0.0,0.0,0.0,0.0,0.0,0.0,0.0,0.0,0.0,0.0,0.0,0.0,0.0,0.0,0.0,0.0,0.0,0.0,6.166,6.2116,6.2258,6.2315,6.2683,6.3168,6.2046,6.1543,6.1505,0.0,0.0,0.0,0.0,0.0,0.0,0.0,0.0,0.0,0.0,0.0,0.0,0.0,0.0,0.0,0.0,0.0,0.0,0.0,0.0,5.6606,5.6606,5.6606,5.6606,5.6606,5.6606,5.6606,5.6606,5.6606,5.6606,5.6606,5.6606,5.6606,5.6606,5.6606,5.6563,5.6503,5.6382,5.632,5.6305,5.6305,5.6313,5.6328,5.6406,0.0,0.0,0.0,0.0,0.0,0.0,0.0,0.0,0.0,0.0,0.0,0.0,0.0,0.0,0.0,0.0,0.0,0.0,0.0,0.0,0.0,0.0,0.0,0.0,0.0,0.0,0.0,0.0,0.0,0.0,0.0,0.0,0.0,0.0,0.0,0.0,0.0,0.0,0.0,0.0,0.0,0.0,0.0,5.6606,5.6606,0.0,0.0,0.0,0.0,0.0,0.0,0.0,0.0,0.0,0.0,0.0,0.0,0.0,5.9299,6.0065,6.03,6.1157,6.2676,6.3418,6.4134,6.4835,6.5472,6.5746,6.5644,6.4038,0.0,6.3342,6.3226,0.0,0.0,0.0,0.0,0.0,0.0,0.0,0.0,0.0,0.0,0.0,0.0,0.0,0.0,0.0,0.0,0.0,0.0,0.0,0.0,0.0,5.6606,5.6606,5.6606,5.6606,5.6606,5.6606,5.6606,5.6606,5.6606,5.6606,5.6606,5.6606,5.6568,5.6484,5.6382,5.6328,5.63,5.6297,5.6297,5.6297,5.6297,5.633,5.6367,5.6391,5.6429,0.0,0.0,0.0,0.0,0.0,0.0,0.0,0.0,0.0,0.0,0.0,0.0,0.0,0.0,0.0,0.0,0.0,0.0,0.0,0.0,0.0,0.0,0.0,0.0,0.0,0.0,0.0,0.0,0.0,0.0,0.0,0.0,0.0,0.0,0.0,0.0,0.0,0.0,0.0,5.6606,5.6606,5.6606,5.6606,5.6606,0.0,0.0,0.0,0.0,0.0,0.0,0.0,0.0,0.0,5.8636,5.941,6.0005,6.0403,6.136,6.2244,6.3008,6.3828,6.4389,6.4687,6.5009,6.5041,6.4812,6.4077,6.3748,6.3669,6.2699,6.2293,6.2293,0.0,0.0,0.0,0.0,6.1679,6.1621,0.0,0.0,0.0,0.0,0.0,0.0,0.0,0.0,0.0,0.0,0.0,0.0,5.6606,5.6606,5.6606,5.6606,5.6606,5.6606,5.6606,5.6606,5.6606,5.6606,5.6606,5.6606,5.6606,5.6522,5.6422,5.6288,5.6309,5.6308,5.6291,5.6291,5.6291,5.6291,5.6291,5.6338,5.6368,5.6366,5.6372,0.0,0.0,0.0,0.0,0.0,0.0,0.0,0.0,0.0,0.0,0.0,0.0,0.0,0.0,0.0,0.0,0.0,0.0,0.0,0.0,0.0,0.0,0.0,0.0,0.0,0.0,0.0,0.0,0.0,0.0,0.0,0.0,0.0,0.0,0.0,0.0,0.0,0.0,5.6606,5.6606,5.6606,5.6606,5.6606,0.0,0.0,0.0,0.0,0.0,0.0,5.8226,5.9003,5.9458,5.9514,6.0295,6.083,6.1055,6.2344,6.3105,6.334,6.3984,6.4241,6.4142,6.4152,6.4019,6.3786,6.3554,6.3474,6.3424,6.2305,6.1876,6.1892,6.1892,6.1876,6.1823,6.156,6.1446,6.1408,0.0,0.0,0.0,0.0,0.0,0.0,0.0,0.0,0.0,0.0,0.0,5.6606,5.6606,5.6606,5.6606,5.6606,5.6606,5.6606,5.6606,5.6606,5.6606,5.6606,5.6606,5.6606,5.6606,5.6461,5.6366,5.6288,5.6306,5.6304,5.6291,5.6291,5.6291,5.6291,5.6291,5.6304,5.6297,5.632,5.6316,5.6324,0.0,0.0,0.0,0.0,0.0,0.0,0.0,0.0,0.0,0.0,0.0,0.0,0.0,0.0,0.0,0.0,0.0,0.0,0.0,0.0,0.0,0.0,0.0,0.0,0.0,0.0,0.0,0.0,0.0,0.0,0.0,0.0,0.0,0.0,0.0,0.0,0.0,0.0,0.0,5.6606,5.6606,0.0,0.0,0.0,0.0,5.7738,5.8538,5.9068,5.9128,5.9909,6.0337,6.0332,6.1172,6.2031,6.2851,6.2969,6.3418,6.4238,6.4277,6.42,6.4013,6.4019,6.3921,6.3742,6.2909,6.259,6.2706,6.3386,6.3712,6.3755,6.3755,6.3728,6.3585,6.2734,6.2391,6.222,0.0,0.0,0.0,0.0,0.0,5.6606,5.6606,5.6606,5.6606,5.6606,5.6606,5.6606,5.6606,5.6606,5.6579,5.6538,5.6538,5.6522,5.6463,5.6503,5.6538,5.6538,5.6582,5.6568,5.6463,5.6377,5.6316,5.6306,5.6297,5.6291,5.6291,5.6291,5.6291,5.6291,5.6291,5.6291,5.6291,5.6302,5.6306,5.6297,5.6359,5.6391,0.0,0.0,0.0,0.0,0.0,0.0,0.0,0.0,0.0,0.0,0.0,0.0,0.0,0.0,0.0,0.0,0.0,0.0,0.0,0.0,0.0,0.0,0.0,0.0,0.0,0.0,0.0,0.0,0.0,0.0,0.0,0.0,0.0,0.0,0.0,0.0,0.0,5.6606,5.7055,0.0,5.7367,5.8148,5.8656,5.8695,5.9464,5.9947,5.9975,6.0777,6.1248,6.123,6.1543,6.1855,6.2168,6.2168,6.2324,6.2637,6.2578,6.2491,6.2328,6.2318,6.2247,6.2112,6.1885,6.1827,6.1914,6.2199,6.2335,6.2361,6.2361,6.2321,6.221,6.1798,6.1634,6.1524,0.0,0.0,0.0,0.0,0.0,5.6606,5.6606,5.6606,5.6606,5.6606,5.6606,5.6606,5.6606,5.6606,5.6563,5.6504,5.6504,5.6483,5.6432,5.6482,5.6503,5.6539,5.6551,5.6504,5.6366,5.632,5.63,5.6291,5.6291,5.6291,5.6291,5.6291,5.6291,5.6291,5.6291,5.6291,5.6291,5.6291,5.6304,5.6302,5.632,5.6367,5.6421,0.0,0.0,0.0,0.0,0.0,0.0,0.0,0.0,0.0,0.0,0.0,0.0,0.0,0.0,0.0,0.0,0.0,0.0,0.0,0.0,0.0,0.0,0.0,0.0,0.0,0.0,0.0,0.0,0.0,0.0,0.0,0.0,0.0,0.0,0.0,5.6704,5.6977,5.7484,5.7914,5.8207,5.9026,5.9558,5.9597,6.037,6.0969,6.1269,6.1816,6.2265,6.2578,6.2578,6.2578,6.2578,6.2578,6.2414,6.2096,6.2051,6.1798,6.1386,6.1405,6.1361,6.1313,6.1394,6.1479,6.1537,6.1537,6.1537,6.1537,6.1537,6.1479,6.14,6.1302,6.1186,6.1099,0.0,0.0,0.0,0.0,0.0,5.6606,5.6606,5.6606,5.6606,5.6606,5.6606,5.6606,5.6606,5.6606,5.6566,5.6504,5.6484,5.6484,5.6484,5.6504,5.6521,5.6591,5.6539,5.6429,5.6297,5.6308,5.632,5.633,5.633,5.635,5.6369,5.6369,5.6369,5.6369,5.6369,5.635,5.633,5.633,5.6329,5.6319,5.6368,5.6446,5.6507,0.0,0.0,0.0,0.0,0.0,0.0,0.0,0.0,0.0,0.0,0.0,0.0,0.0,0.0,0.0,0.0,0.0,0.0,0.0,0.0,0.0,0.0,0.0,0.0,0.0,0.0,0.0,0.0,0.0,0.0,0.0,0.0,0.0,5.6645,5.6645,5.6938,5.7738,5.7855,5.8207,5.9065,5.9948,6.0475,6.0475,6.1285,6.2148,6.3008,6.3047,6.3437,6.4277,6.4297,6.4297,6.4297,6.4297,6.3833,6.2955,6.2916,6.239,6.1427,6.1423,6.1425,6.1503,6.1503,6.1537,6.1607,6.1607,6.1607,6.1607,6.1607,6.1526,6.14,6.14,6.1255,6.1099,0.0,0.0,0.0,5.6606,5.6606,5.6606,5.6606,5.6606,5.6606,5.6606,5.6606,5.6606,5.6606,5.6551,5.6504,5.6429,5.6377,5.6355,5.6355,5.6391,5.6458,5.6521,5.6422,5.6335,5.6288,5.6299,5.6601,5.7243,5.7243,5.7535,5.8117,5.8117,5.8117,5.8117,5.8117,5.7787,5.7243,5.7243,5.6909,5.6368,5.6339,5.6394,5.6509,0.0,0.0,0.0,0.0,0.0,0.0,0.0,0.0,0.0,0.0,0.0,0.0,0.0,0.0,0.0,0.0,0.0,0.0,0.0,0.0,0.0,0.0,0.0,0.0,0.0,0.0,0.0,0.0,0.0,0.0,0.0,0.0,5.7465,5.7465,5.7465,5.7797,5.8636,5.93,5.9788,6.0026,6.1388,6.2279,6.2281,6.3085,6.3691,6.3926,6.3945,6.4043,6.4297,6.4297,6.4297,6.4297,6.4199,6.4026,6.3767,6.3033,6.2565,6.2319,6.1686,6.1447,6.1503,6.1548,6.1578,6.1607,6.1607,6.1607,6.1607,6.1607,6.1526,6.14,6.14,6.1255,6.1099,0.0,0.0,0.0,5.6606,5.6606,5.6606,5.6606,5.6606,5.6606,5.6606,5.6606,5.6606,5.6606,5.6566,5.6504,5.6415,5.6382,5.6372,5.6342,5.6395,5.6429,5.6422,5.6342,5.629,5.631,5.6659,5.7088,5.7593,5.7942,5.8331,5.8797,5.8797,5.8797,5.8797,5.8797,5.8545,5.8098,5.8137,5.767,5.6931,5.6922,5.6769,5.6548,5.6504,5.6497,5.6503,5.65,5.6495,5.6493,5.6499,0.0,0.0,0.0,0.0,0.0,0.0,0.0,0.0,0.0,0.0,0.0,0.0,0.0,0.0,0.0,0.0,0.0,0.0,0.0,0.0,0.0,0.0,0.0,0.0,5.8109,5.846,5.8831,5.8577,5.8675,5.9534,6.008,6.0686,6.1427,6.24,6.3157,6.3515,6.4004,6.4453,6.4824,6.4844,6.5019,6.5371,6.5321,6.5316,6.5316,6.5187,6.4942,6.4502,6.396,6.3527,6.32,6.271,6.2529,0.0,6.263,6.2659,6.2659,6.2659,6.2659,0.0,0.0,0.0,0.0,0.0,6.1421,6.164,0.0,0.0,0.0,5.6606,5.6606,5.6606,5.6606,5.6606,5.6606,5.6606,5.6606,5.6606,5.6606,5.6591,5.6538,5.6419,5.6458,5.646,5.6391,5.6456,5.6426,5.6316,5.6299,5.6349,5.6427,5.7204,5.769,5.7884,5.8603,5.9011,5.9088,5.9088,5.9088,5.9088,5.9088,5.903,5.8966,5.9009,5.852,5.7719,5.7778,5.7322,5.6591,5.6534,5.652,5.6502,5.6502,5.6497,5.6495,5.6504,0.0,0.0,0.0,0.0,0.0,0.0,0.0,0.0,0.0,0.0,0.0,0.0,0.0,0.0,0.0,0.0,0.0,0.0,0.0,0.0,0.0,0.0,0.0,0.0,5.8734,5.9553,6.0412,5.9885,5.9671,6.0451,6.0627,6.1295,6.2842,6.3178,6.3613,6.4394,6.4531,6.4922,6.5703,0.0,0.0,0.0,0.0,6.6688,6.6688,6.6631,6.6125,6.5277,6.5213,6.4792,6.4056,6.4027,6.4048,6.4101,6.4101,6.4101,6.4101,6.4101,6.4101,6.3935,6.2328,6.1639,6.1507,6.1326,6.1795,6.253,0.0,0.0,0.0,5.6606,5.6606,5.6606,5.6606,5.6606,5.6606,5.6606,5.6606,5.6606,5.6606,5.6554,5.6484,5.6415,5.6419,5.6419,5.6391,5.6361,5.6328,5.6288,5.6308,5.6628,5.7321,5.7496,5.8253,5.9613,5.9768,6.0215,6.0895,6.0895,6.0895,6.0895,6.0895,6.0534,5.9935,5.9947,5.9114,5.7785,5.7792,5.7322,5.6606,5.6595,5.6575,5.6579,5.652,5.6503,5.6504,5.6493,5.6509,5.6497,5.6508,5.6503,0.0,0.0,0.0,0.0,0.0,0.0,0.0,0.0,0.0,0.0,0.0,0.0,0.0,0.0,0.0,0.0,0.0,0.0,0.0,5.9788,6.0041,6.0451,6.133,6.131,6.1252,6.1427,6.2071,6.2635,6.2966,6.4277,6.5176,6.5332,6.5996,6.6465,6.664,6.664,0.0,6.6894,6.6783,6.6688,6.6688,6.6516,6.6378,6.6219,0.0,0.0,6.5012,6.4324,6.4048,6.4101,6.4101,6.4101,6.4101,6.4101,6.407,6.3908,6.2828,6.2357,6.2283,6.2181,6.2704,6.3439,0.0,0.0,0.0,5.6606,5.6606,5.6606,5.6606,5.6606,5.6606,5.6606,5.6606,5.6606,5.6606,5.6566,5.6521,5.6458,5.6422,5.6391,5.6391,5.6335,5.6309,5.6289,5.6718,5.7146,5.7593,5.8409,5.9263,6.0099,6.0545,6.0973,6.14,6.14,6.14,6.14,6.1441,6.1233,6.0853,6.0887,6.0172,5.902,5.861,5.7943,5.7153,5.6743,5.6606,5.6591,5.6517,5.6502,5.6503,5.6493,5.6509,5.6497,5.6508,5.6503,5.6503,0.0,0.0,0.0,0.0,0.0,0.0,0.0,0.0,0.0,0.0,0.0,0.0,0.0,0.0,5.8441,5.8441,0.0,5.9885,6.0334,6.0772,6.1206,6.1642,6.1701,6.1709,6.1707,6.2471,6.3178,6.3613,6.4824,6.5781,6.6211,6.664,6.6894,6.6894,6.6894,6.6894,6.6894,6.6766,6.6698,6.6687,6.6542,6.6461,6.6481,6.6067,6.5888,6.5939,6.5528,6.5375,6.5407,6.5407,6.5407,6.5407,6.5356,6.5032,6.4508,6.4035,6.356,6.3141,6.309,6.3574,6.4289,0.0,0.0,0.0,5.6606,5.6606,5.6606,5.6606,5.6606,5.6606,5.6606,5.6606,5.6606,5.6606,5.6606,5.6579,5.6521,5.6429,5.6382,5.6411,5.634,5.6299,5.6304,5.7127,5.767,5.7826,5.9322,6.0176,6.0351,6.107,6.14,6.14,6.14,6.14,6.14,6.1467,6.1503,6.1507,6.1564,6.1095,6.0243,5.9427,5.8577,5.7719,5.6918,5.6606,5.6591,5.652,5.6503,5.6504,5.6504,5.6497,5.6504,5.65,5.6503,5.6503,5.6503,5.6503,0.0,0.0,0.0,0.0,0.0,0.0,0.0,0.0,0.0,5.8055,5.805,5.8753,5.9358,5.9358,6.0061,6.0646,6.0646,6.1229,6.1704,6.1701,6.1705,6.1762,6.1933,6.2715,6.3594,6.4473,6.5332,6.6133,6.6855,6.6894,6.6894,6.6894,6.6894,6.6894,6.6894,6.6777,6.6711,6.6705,6.6575,6.651,6.6519,6.6571,6.6604,6.6626,6.6671,6.6712,6.6712,6.6702,6.6671,6.6649,6.6569,6.6062,6.533,6.5331,6.4887,6.423,6.4019,6.4443,6.5114,0.0,0.0,0.0,0.0,0.0,5.6606,5.6606,5.6606,5.6606,5.6606,5.6606,5.6606,5.6606,5.6606,5.6606,5.6595,5.6422,5.6335,5.6406,5.6339,5.6304,5.6291,5.7127,5.7923,5.8642,5.9613,6.0487,6.1245,6.1361,6.14,6.14,6.14,6.14,6.14,6.1467,6.1498,6.15,6.158,6.1127,6.031,5.9456,5.8577,5.7719,5.6918,5.6606,5.6595,5.6523,5.6497,5.6493,5.6498,5.65,5.65,5.6511,5.6503,5.6503,5.6503,5.6503,5.6503,5.6503,5.65,5.6496,5.6491,5.7076,5.764,0.0,0.0,5.8944,5.8948,5.9651,6.0256,6.0256,6.0978,6.1544,6.1544,6.1639,6.1704,6.1701,6.1709,6.1992,6.2754,6.3613,6.4492,6.5371,6.623,6.6797,6.6894,6.6894,6.6894,6.6894,6.6894,6.6894,6.6894,6.6777,6.6693,6.67,6.6574,6.6517,6.6588,6.6594,6.6618,6.6682,6.6702,6.6712,6.6712,6.6638,6.6575,6.6504,6.6387,6.6258,6.6163,6.6109,6.5972,6.5756,6.5041,6.5271,6.5964,0.0,0.0,0.0,0.0,0.0,5.6606,5.6606,5.6606,5.6606,5.6606,5.6606,5.6606,5.6606,5.6606,5.6606,5.6606,5.6456,5.6366,5.6406,5.6349,5.6291,5.6291,5.7127,5.7981,5.8778,5.9652,6.0526,6.14,6.14,6.14,6.14,6.14,6.14,6.14,6.1476,6.151,6.1519,6.1602,6.1164,6.0315,5.9456,5.8577,5.7719,5.6918,5.6579,5.6534,5.6502,5.6507,0.0,5.6496,5.6503,5.6503,5.6503,5.6503,5.6503,5.6503,5.6834,5.7204,5.7204,5.7572,5.7841,0.0,5.7889,5.8557,5.8552,5.9232,5.9866,5.9866,6.0549,6.1154,6.1154,6.1447,6.1701,0.0,6.1697,6.1709,6.1692,6.1698,6.2207,6.3594,6.4082,6.4648,6.5527,6.6387,6.6894,6.6894,6.6894,6.6894,6.6894,6.6894,6.6893,6.6901,6.6842,6.6797,6.6756,6.6692,6.6666,6.6661,6.6663,6.6673,6.6712,6.6712,6.6671,6.6638,6.6575,6.647,6.637,6.6316,6.6282,6.6245,6.6205,6.6144,6.6063,6.5715,6.5788,6.6029,0.0,0.0,0.0,0.0,0.0,5.6606,5.6606,5.6606,5.6606,5.6606,5.6606,5.6606,5.6606,5.6606,5.6606,5.6606,5.6484,5.6422,5.6391,5.6338,5.629,5.6291,5.7127,5.7865,5.8467,5.9302,6.0176,6.105,6.105,6.1167,6.14,6.14,6.14,6.14,6.1459,6.1373,6.1188,6.1283,6.0842,5.9963,5.9085,5.8363,5.7719,5.6918,5.6568,5.6504,5.6499,5.6501,0.0,5.6508,5.6503,5.6503,5.6503,5.6503,5.6541,5.6775,5.7399,5.8061,5.8061,5.8527,0.0,5.8215,5.876,5.9449,5.9463,6.0124,6.0764,6.0764,6.1252,6.1701,6.1701,6.1701,6.1701,6.1701,6.1697,6.1694,6.1699,6.1914,6.2617,6.4121,6.4512,6.5,6.5879,6.6523,6.6894,6.6894,6.6894,6.6894,6.6894,6.6856,6.6856,6.6874,6.6848,6.6836,6.6792,6.6789,6.677,6.6692,6.6672,6.6663,6.6671,6.6649,6.6613,6.6509,6.647,6.6389,6.6263,6.6263,6.6245,6.6205,6.6184,6.6123,6.608,6.6077,6.6029,6.5996,0.0,0.0,0.0,0.0,0.0,5.6606,5.6606,5.6606,5.6606,5.6606,5.6606,5.6606,5.6606,5.6606,5.6606,5.6606,5.6538,5.6461,5.6391,5.6335,5.63,5.6304,5.7127,5.7612,5.7632,5.8428,5.9263,6.0137,6.0137,6.0565,6.14,6.14,6.14,6.14,6.1459,6.1081,6.0341,6.0405,5.9944,5.9065,5.8187,5.7816,5.7719,5.6918,5.6558,5.6495,5.6495,0.0,5.6503,5.6508,5.6503,5.6503,5.6503,5.6503,5.6639,5.7418,5.8276,5.8957,5.8957,5.8975,5.8991,5.8972,5.9664,6.0353,6.0353,6.1027,6.1661,6.1661,6.1681,6.1701,6.1701,6.1701,6.1701,6.1701,6.1697,6.1694,6.1699,6.2422,6.3281,6.4199,6.5058,6.5898,0.0,6.6875,6.6894,6.6894,6.6894,6.6894,6.6894,6.6789,6.6736,6.68,6.6737,6.6741,6.679,6.68,6.677,6.6712,6.6638,6.6613,6.6601,6.6533,6.6439,6.6316,6.6316,6.6263,6.6185,6.6185,6.6205,6.6185,6.6123,6.6058,6.6013,6.6001,6.5996,6.5996,0.0,0.0,0.0,0.0,0.0,0.0,5.6606,5.6606,5.6606,5.6606,5.6606,0.0,0.0,0.0,0.0,0.0,5.6538,5.6484,5.6461,5.6361,5.6299,5.63,5.6574,5.701,5.7593,5.7865,5.8409,5.9244,5.9244,5.9399,5.9671,5.9671,5.9671,5.9671,5.9785,5.9698,5.9434,5.9508,5.9026,5.8207,5.7914,5.7484,5.6981,5.6647,5.6523,5.6493,0.0,0.0,5.6496,5.6492,5.6503,5.6503,5.6503,5.6873,5.7574,5.9016,5.962,5.9854,5.9854,6.0291,6.0584,5.9999,6.0531,6.1198,6.1192,6.1459,6.171,6.1696,6.1701,6.1701,6.1701,6.1701,6.1701,6.1701,6.1705,6.1899,6.248,6.2812,6.3535,6.498,6.543,0.0,0.0,0.0,0.0,6.6894,6.6894,6.6852,6.6763,6.6725,6.6665,6.661,6.667,6.6693,6.6683,6.6709,6.6702,6.6638,6.6561,6.6533,6.6533,6.6422,6.6334,6.6299,6.6245,6.6225,6.6205,6.6205,6.6165,6.6123,6.6102,6.6055,6.6001,6.6001,6.5947,6.5872,0.0,0.0,0.0,0.0,0.0,0.0,0.0,0.0,0.0,0.0,0.0,0.0,0.0,0.0,0.0,0.0,0.0,5.6521,5.6504,5.6422,5.6361,5.6335,5.6338,5.6592,5.7157,5.7157,5.7585,5.8403,5.8379,5.853,5.8842,5.8823,5.8797,5.8797,5.8907,5.8803,5.8538,5.8617,5.8128,5.7343,5.7343,5.7037,5.6556,5.6523,5.65,0.0,0.0,0.0,5.6503,5.6503,5.6503,5.6503,5.6503,5.7262,5.8451,5.9873,6.0516,6.075,6.075,6.1179,6.1471,6.0906,6.1197,6.1603,6.16,6.1641,6.1699,6.1691,6.1696,6.1701,6.1701,6.1701,6.1701,6.1709,6.1705,6.201,6.287,6.3262,6.4004,6.543,6.5879,6.6289,0.0,0.0,0.0,6.6894,6.6863,6.6777,6.6709,6.663,6.6572,6.6503,6.6536,6.656,6.6563,6.6615,6.6583,6.648,6.6454,6.6426,6.6392,6.63,6.6263,6.6263,6.6225,6.6184,6.6165,6.6165,6.6123,6.6058,6.6055,6.6029,6.5933,6.5947,6.5827,6.5693,0.0,0.0,0.0,0.0,0.0,0.0,0.0,0.0,0.0,0.0,0.0,0.0,0.0,0.0,0.0,0.0,0.0,0.0,5.6503,5.6504,5.6461,5.6415,5.6391,5.6391,5.6391,5.6391,5.6821,5.7636,5.7576,5.7964,5.8763,5.8717,5.8674,5.8687,5.876,5.8345,5.7641,5.7707,5.7254,5.6503,5.6503,5.6504,5.6495,5.6493,0.0,0.0,0.0,5.6498,5.6503,5.6503,5.6503,5.6503,5.6541,5.7652,5.9113,6.0029,6.0886,6.1549,6.1588,6.1607,6.1607,6.1607,6.1606,6.1603,6.1603,6.1654,6.1699,6.1699,6.1691,6.1701,0.0,0.0,6.1705,6.1701,6.169,6.2029,6.2948,6.3789,6.4648,0.0,0.0,0.0,0.0,0.0,0.0,6.6889,0.0,6.669,6.6689,6.6515,6.6419,6.6489,6.6375,6.637,6.6474,6.6489,6.6422,6.6299,6.6299,6.6263,6.6205,6.6205,6.6205,6.6205,6.6205,6.6144,6.6102,6.6102,6.6058,6.599,6.6001,6.5909,6.5795,6.5801,6.5674,6.5494,0.0,0.0,0.0,0.0,0.0,0.0,0.0,0.0,0.0,0.0,0.0,0.0,0.0,0.0,0.0,0.0,0.0,0.0,5.6582,5.6521,5.6484,5.6482,5.6426,5.6391,5.6391,5.6391,5.6508,5.6723,5.6709,5.6815,5.703,5.7018,5.7011,5.701,5.7074,5.6973,5.6749,5.6796,5.6699,5.65,5.65,5.6499,5.6493,5.6493,0.0,0.0,0.0,0.0,5.6503,5.6503,5.6503,5.66,5.7204,5.7691,5.8334,5.9854,6.0458,6.0769,6.1412,6.1607,6.1607,6.1607,6.1597,6.1606,6.16,6.1615,6.1648,6.1691,6.1696,6.1701,0.0,0.0,0.0,6.1704,6.1694,0.0,6.375,6.416,0.0,6.6387,0.0,6.6894,6.6894,6.6769,0.0,0.0,6.6678,6.6592,6.6551,6.6458,6.638,6.6355,6.6318,6.6316,6.6353,6.6353,6.6334,6.6299,6.6245,6.6205,6.6205,6.6205,6.6205,6.6205,6.6144,6.6123,6.6102,6.6058,6.6009,6.6001,6.602,6.5903,6.5801,6.5793,6.5674,6.5494,0.0,0.0,0.0,0.0,0.0,0.0,0.0,0.0,0.0,0.0,0.0,0.0,0.0,0.0,0.0,0.0,0.0,0.0,0.0,5.6566,5.6536,5.6536,5.6504,5.6484,5.6484,5.6484,5.6484,5.6484,5.6458,5.6434,5.6434,5.6403,5.6399,5.6406,5.6437,5.6443,5.6406,5.6444,5.6476,0.0,0.0,5.6493,5.6494,5.6504,0.0,0.0,0.0,0.0,0.0,5.6503,5.6503,5.6639,5.7438,5.7691,5.8042,5.9795,6.0302,6.0497,6.1354,6.1607,6.1607,6.1607,6.1607,6.1597,6.1603,6.1592,6.1607,6.1648,6.1679,6.1691,6.1691,6.1696,6.1705,0.0,0.0,0.0,6.4055,6.4295,6.4941,0.0,6.6894,0.0,6.6826,6.6724,6.6625,0.0,6.6555,6.6533,6.6506,6.6454,6.6397,6.6299,6.6299,6.6281,6.6263,6.6263,6.6263,6.6263,6.6225,6.6205,6.6205,6.6205,6.6165,6.6144,0.0,6.608,6.6032,6.6029,6.5982,6.5947,6.5923,6.5827,6.5701,6.5674,6.5561,6.5394,0.0,0.0,0.0,0.0,0.0,0.0,0.0,0.0,0.0,0.0,5.6606,5.6606,0.0,0.0,0.0,0.0,0.0,0.0,0.0,0.0,0.0,5.6606,5.6606,5.6606,5.6606,5.6606,5.6606,5.6606,5.6536,5.6503,5.6503,5.6442,5.6419,5.64,5.6404,5.6406,5.6404,5.6404,5.6448,5.6497,5.6497,5.6491,5.6503,0.0,0.0,0.0,0.0,0.0,0.0,0.0,5.6503,5.6619,5.7321,5.7535,5.7866,5.9484,6.0029,6.0321,6.1198,6.151,6.1607,6.1607,6.1607,6.1607,6.1588,6.1606,6.1603,6.1603,6.1654,6.1699,6.1699,6.1691,6.1701,6.1705,0.0,6.2264,6.3904,6.4233,6.4902,6.6523,6.6812,6.683,6.6709,6.6621,6.6528,6.6419,6.6437,6.6469,6.6469,6.6464,6.6406,6.6281,6.6281,6.6263,6.6205,6.6205,6.6205,6.6205,6.6205,6.6205,6.6205,6.6205,6.6144,6.6102,0.0,0.0,6.5996,6.5996,6.5947,6.5872,6.582,6.5701,6.558,6.5523,6.5394,6.5309,0.0,0.0,0.0,0.0,0.0,0.0,0.0,0.0,0.0,0.0,5.6606,5.6606,0.0,0.0,0.0,0.0,0.0,0.0,0.0,0.0,0.0,0.0,5.6606,5.6606,5.6606,5.6606,5.6606,5.6606,5.6595,5.6552,5.6504,5.6493,5.6484,5.6484,5.6478,5.6485,5.6471,5.6471,5.6484,5.65,5.65,5.65,5.6503,0.0,0.0,0.0,0.0,0.0,0.0,0.0,5.6503,5.6522,5.6658,5.6697,5.6892,5.7866,5.8665,5.9425,6.0282,6.1042,6.1607,6.1607,6.1607,6.1597,6.1595,6.1595,6.1603,6.1607,6.1648,6.1699,6.1699,6.1691,6.1705,6.1704,6.1697,6.205,6.3084,6.3847,6.4687,0.0,6.6371,6.6743,6.6689,6.6554,0.0,0.0,0.0,6.6336,6.6336,6.6283,6.6225,6.6205,6.6205,6.6205,6.6205,6.6205,6.6205,6.6205,6.6205,6.6205,6.6205,6.6144,6.6102,6.6102,6.6029,0.0,6.5996,6.5947,6.5872,6.582,6.5793,6.5674,6.5494,6.5454,6.5383,6.5277,0.0,0.0,0.0,0.0,0.0,0.0,0.0,5.6511,5.6517,5.6542,5.6553,5.6558,5.6606,5.6606,5.6606,0.0,0.0,0.0,0.0,0.0,0.0,0.0,0.0,0.0,0.0,5.6606,0.0,0.0,0.0,5.6577,5.6509,0.0,0.0,0.0,5.65,5.6492,5.6503,5.6503,5.6503,0.0,0.0,0.0,0.0,0.0,0.0,0.0,0.0,0.0,0.0,0.0,5.777,5.7595,5.6747,5.6795,5.7282,5.812,5.8996,5.9873,6.073,6.1276,6.1607,6.1607,6.1607,6.1588,6.1606,6.1606,6.1606,6.1603,6.1639,6.1654,6.1648,6.1685,6.1705,6.1694,6.1695,6.1992,6.2871,6.375,6.4597,6.5397,6.6212,6.665,6.6533,6.6456,6.6359,0.0,0.0,6.6263,6.6299,6.6282,6.6245,6.6245,6.6225,6.6205,6.6205,6.6205,6.6205,6.6205,6.6205,6.6165,6.6144,6.6102,6.6077,6.6052,6.6001,0.0,6.5897,6.5872,6.5774,6.5701,6.5646,6.5542,6.5454,6.5364,6.5258,6.5128,0.0,0.0,0.0,0.0,0.0,0.0,5.6496,5.6503,5.6498,5.6504,5.6497,5.6528,5.6563,5.6582,5.6606,0.0,0.0,0.0,0.0,0.0,0.0,0.0,0.0,0.0,0.0,0.0,0.0,0.0,0.0,0.0,0.0,0.0,0.0,0.0,0.0,0.0,0.0,5.6503,5.6503,0.0,0.0,0.0,0.0,0.0,0.0,0.0,0.0,0.0,0.0,0.0,5.8928,5.8671,5.7391,5.7439,5.81,5.8802,5.962,6.0458,6.114,6.1451,6.1607,6.1607,6.1607,6.1607,6.1607,6.1607,6.1607,6.1607,6.1606,6.1612,6.1595,6.1628,6.1634,0.0,6.1631,6.187,6.2578,6.3396,6.4229,6.5044,6.5857,0.0,6.6398,6.6359,0.0,0.0,0.0,0.0,6.6282,6.6281,6.6281,6.6281,6.6225,6.6205,6.6205,6.6205,6.6205,6.6184,6.6184,6.6144,6.608,6.6077,6.6052,6.5996,6.5972,0.0,0.0,6.5767,6.5674,6.558,6.5494,6.5454,6.5383,6.5258,6.5109,6.4886,0.0,0.0,0.0,0.0,0.0,0.0,5.6488,5.6496,5.6503,5.6498,5.6504,5.6491,5.6509,5.6558,5.6606,0.0,0.0,0.0,0.0,0.0,0.0,0.0,0.0,0.0,0.0,0.0,0.0,0.0,0.0,0.0,0.0,0.0,0.0,0.0,0.0,0.0,0.0,0.0,0.0,0.0,0.0,0.0,0.0,0.0,0.0,0.0,0.0,0.0,5.8896,0.0,5.8861,5.8778,5.8642,5.8721,5.8899,5.8977,5.962,6.0321,6.0399,6.1003,6.1607,6.1607,6.1607,6.1607,6.1607,6.1607,6.1607,6.1607,6.1606,6.1612,6.1595,6.1517,6.1452,0.0,0.0,6.1405,6.162,6.2281,6.3122,6.4097,0.0,0.0,6.6321,6.6282,0.0,0.0,0.0,0.0,6.6205,6.6205,6.6205,6.6205,6.6185,6.6205,6.6205,6.6205,6.6184,6.6102,6.6102,6.608,6.6013,6.6005,6.602,6.5996,6.5872,0.0,0.0,6.5674,6.5599,6.5494,6.5425,6.5383,6.5309,6.5109,6.4886,6.4651,0.0,0.0,0.0,0.0,0.0,0.0,5.65,5.65,5.65,5.6508,5.6496,5.651,5.6498,5.6511,5.6548,5.6533,0.0,0.0,0.0,0.0,0.0,0.0,0.0,0.0,0.0,0.0,5.6533,5.6542,5.6517,0.0,0.0,0.0,0.0,0.0,0.0,0.0,0.0,0.0,0.0,0.0,0.0,0.0,0.0,0.0,0.0,0.0,0.0,0.0,6.0391,6.0391,6.0318,6.0259,6.0337,6.0391,6.0344,5.9852,6.033,6.1022,6.1072,6.1334,6.1607,6.1607,6.1607,6.1598,6.1548,6.1568,6.1598,6.1548,6.1578,6.1549,6.1441,6.142,6.1367,0.0,0.0,0.0,6.1362,6.2085,6.2717,6.3091,6.4309,0.0,0.0,0.0,0.0,0.0,0.0,0.0,6.6205,6.6205,6.6205,6.6205,6.6205,6.6205,6.6205,6.6144,6.6123,6.6102,6.6058,6.6032,6.6005,6.6001,6.5947,6.5872,6.582,0.0,0.0,6.5552,6.5484,6.5383,6.5352,6.5258,6.5109,6.4886,6.4558,6.4155,0.0,0.0,0.0,0.0,0.0,5.6503,5.6503,5.6503,5.6503,5.6503,5.65,5.6508,5.6496,5.6503,5.6498,5.6491,5.6497,0.0,0.0,0.0,0.0,0.0,0.0,0.0,0.0,0.0,5.6497,5.6504,5.6498,5.651,0.0,0.0,0.0,0.0,0.0,0.0,0.0,0.0,0.0,0.0,0.0,0.0,0.0,0.0,0.0,0.0,0.0,0.0,0.0,0.0,0.0,6.1186,6.1271,6.1322,6.1221,6.0715,6.1005,6.1503,6.1537,6.1568,6.1607,6.1588,6.1568,6.1558,6.1515,6.1537,6.1548,6.1428,6.1464,6.1456,6.1258,6.1216,6.1186,0.0,0.0,6.1138,6.1196,6.1714,6.2191,6.2471,0.0,6.4444,0.0,0.0,0.0,0.0,0.0,0.0,6.6205,6.6205,6.6205,6.6205,6.6205,6.6205,6.6205,6.6123,6.608,6.608,6.6013,6.5982,6.5972,6.5947,6.5897,6.5793,0.0,0.0,0.0,6.5454,6.5383,6.5309,6.5226,6.5076,6.4886,6.4743,6.4291,6.3662,0.0,0.0,0.0,0.0,0.0,0.0,5.6503,5.6503,5.6503,5.6503,5.6503,5.6492,5.6488,5.6496,5.6496,5.6496,5.6491,0.0,0.0,0.0,0.0,0.0,0.0,0.0,0.0,0.0,5.6504,5.6504,5.6503,5.6496,5.6496,5.6492,5.6503,0.0,0.0,0.0,0.0,0.0,0.0,0.0,0.0,0.0,0.0,0.0,0.0,0.0,0.0,0.0,0.0,0.0,0.0,0.0,0.0,6.1099,6.1136,6.1318,6.1434,6.1491,6.1428,6.1503,6.1578,6.1515,6.1503,6.1503,6.1503,6.1503,6.1447,6.1233,6.1259,6.1235,6.1051,6.0905,6.0839,6.0885,0.0,0.0,6.0973,6.0946,6.1302,0.0,0.0,6.3031,6.4831,0.0,0.0,0.0,0.0,0.0,6.6205,6.6205,6.6205,6.6205,6.6205,6.6205,6.6205,6.6123,6.6058,6.6013,6.5982,6.5972,6.5897,6.582,6.5793,0.0,0.0,0.0,0.0,6.5352,6.5309,6.5277,6.5076,6.4886,6.4688,6.4615,6.4046,6.3196,0.0,0.0,0.0,0.0,0.0,0.0,5.6503,5.6503,5.6503,5.6503,5.6503,5.6511,5.6492,5.6492,5.6492,5.6492,5.6496,0.0,0.0,0.0,0.0,0.0,0.0,0.0,0.0,0.0,5.6496,5.6508,5.65,5.6492,5.6492,5.6511,5.6503,5.6503,5.6503,0.0,0.0,0.0,0.0,0.0,0.0,0.0,0.0,0.0,0.0,0.0,0.0,0.0,0.0,0.0,0.0,0.0,0.0,0.0,0.0,6.1171,6.1236,6.1313,6.1381,6.1441,6.1467,6.1441,6.1441,6.1408,6.1313,6.1225,6.1158,6.1152,6.1077,6.0983,6.0824,6.0798,6.0792,6.0719,6.069,0.0,0.0,0.0,0.0,6.1443,6.1987,6.3052,0.0,0.0,0.0,0.0,0.0,0.0,6.6205,6.6205,6.6205,6.6205,6.6163,6.6123,6.6123,6.6074,6.6005,6.6001,6.5953,6.5897,6.582,6.5793,0.0,0.0,0.0,0.0,0.0,6.534,6.5226,6.5076,6.4886,6.452,6.4115,6.3822,6.3028,6.202,0.0,0.0,0.0,0.0,0.0,0.0,5.6503,5.6503,5.6503,5.6503,5.6503,5.6503,5.6503,5.6503,5.6503,5.6503,5.65,0.0,0.0,0.0,0.0,0.0,0.0,0.0,5.6503,5.65,5.65,5.6503,5.6503,5.6503,5.6503,5.6503,5.6503,5.6503,5.6503,5.6503,0.0,0.0,0.0,0.0,0.0,0.0,5.6514,0.0,0.0,0.0,0.0,0.0,0.0,0.0,0.0,0.0,0.0,0.0,0.0,0.0,6.1116,6.1186,6.1255,6.1337,6.14,6.1352,6.1318,6.1283,6.1111,6.1019,6.0944,6.082,6.0798,6.0734,6.0578,6.0603,6.0622,6.0559,6.0629,0.0,0.0,0.0,0.0,6.0999,0.0,0.0,0.0,0.0,0.0,0.0,0.0,0.0,0.0,6.6184,6.6144,6.6144,6.6123,6.608,6.6058,6.6005,6.5996,6.5996,6.5897,6.5846,6.5793,6.572,0.0,0.0,0.0,0.0,0.0,6.5194,6.5076,6.4832,6.452,6.4115,6.3637,6.3094,6.2266,6.1343,0.0,0.0,0.0,0.0,0.0,0.0,0.0,5.6503,5.6503,5.6503,5.6503,5.6503,5.6503,5.6503,5.6503,5.6503,5.6503,0.0,0.0,0.0,0.0,0.0,0.0,0.0,5.6503,5.6503,5.6503,5.6503,5.6503,5.6503,5.6503,5.6503,5.6503,5.6503,5.6503,5.6503,0.0,0.0,0.0,0.0,5.6349,5.6308,0.0,0.0,0.0,0.0,0.0,0.0,0.0,0.0,0.0,0.0,0.0,0.0,0.0,0.0,0.0,0.0,0.0,6.1242,6.1352,6.1217,6.12,6.1131,6.0925,6.0885,0.0,6.0384,6.0437,6.0508,6.0332,6.0352,6.0417,6.0499,6.0552,0.0,0.0,6.0846,0.0,0.0,6.1776,0.0,0.0,0.0,0.0,0.0,0.0,0.0,0.0,6.6123,6.608,6.608,6.608,6.6058,6.599,6.6001,6.5996,6.5996,6.5846,6.5793,6.5767,6.5571,0.0,0.0,0.0,0.0,0.0,6.5042,6.485,6.4595,6.4056,6.3593,6.3131,6.2387,6.1697,6.1027,0.0,0.0,0.0,0.0,0.0,0.0,0.0,0.0,0.0,0.0,5.6503,5.6503,5.6503,5.6503,5.6503,0.0,0.0,0.0,0.0,0.0,0.0,0.0,0.0,0.0,5.6503,5.6503,5.6503,5.6503,5.6503,5.6503,5.6503,5.6503,5.6503,5.6503,5.6503,5.6503,0.0,0.0,0.0,0.0,5.6319,5.6267,0.0,0.0,0.0,0.0,5.7321,5.7751,0.0,0.0,0.0,0.0,0.0,0.0,0.0,0.0,6.1099,6.1099,6.1099,0.0,6.1154,6.1136,6.1116,6.1079,0.0,6.0708,6.054,0.0,0.0,0.0,0.0,6.0352,6.0417,6.0499,0.0,0.0,6.071,0.0,0.0,0.0,0.0,0.0,0.0,0.0,0.0,0.0,0.0,0.0,0.0,6.6058,6.6032,6.6025,6.6025,6.6025,6.6001,6.5947,6.5897,6.5846,6.5839,6.572,6.5571,6.5523,0.0,0.0,0.0,0.0,6.5042,6.485,6.4483,6.4037,6.3612,6.2999,6.2214,6.1659,6.0968,6.0307,0.0,0.0,0.0,0.0,0.0,0.0,0.0,0.0,0.0,0.0,5.6503,5.6503,5.6503,5.6503,5.6503,0.0,0.0,0.0,0.0,0.0,0.0,0.0,0.0,5.6503,5.6503,5.6503,5.6503,5.6503,5.6503,5.6503,5.6503,5.6503,5.6503,5.6503,5.6503,5.6474,5.6417,5.6417,5.6338,5.6244,5.6219,0.0,0.0,0.0,0.0,0.0,5.6551,5.696,0.0,5.8391,5.9242,5.9977,0.0,0.0,0.0,0.0,6.1099,6.108,6.0982,6.1022,6.1099,6.1099,6.1022,6.0901,6.0704,6.0508,0.0,0.0,0.0,0.0,0.0,0.0,0.0,0.0,6.0578,0.0,0.0,0.0,0.0,0.0,0.0,0.0,0.0,0.0,0.0,0.0,0.0,0.0,0.0,6.6032,6.6005,6.5996,6.5972,6.5947,6.5947,6.5897,6.5846,6.5793,6.572,6.559,6.5435,6.5425,6.5302,0.0,0.0,0.0,6.4798,6.4689,6.4251,6.355,6.2999,6.2336,6.153,6.0772,6.0227,5.9818,0.0,0.0,0.0,0.0,0.0,0.0,0.0,0.0,0.0,0.0,0.0,0.0,0.0,0.0,0.0,0.0,0.0,0.0,0.0,0.0,0.0,0.0,5.6503,5.6503,5.6503,5.6503,5.6503,5.6503,5.6503,5.6503,5.6503,5.6483,5.6474,5.6474,5.6465,5.6407,5.6289,5.6278,5.6244,5.6168,5.6132,0.0,0.0,0.0,0.0,0.0,0.0,0.0,0.0,5.7269,5.8275,5.9551,5.9822,0.0,0.0,0.0,0.0,0.0,6.0901,6.0982,6.1099,6.1061,6.0941,6.075,6.0559,0.0,0.0,0.0,0.0,0.0,0.0,6.0256,0.0,0.0,0.0,0.0,0.0,0.0,0.0,0.0,0.0,0.0,0.0,0.0,0.0,0.0,0.0,0.0,0.0,6.5982,6.5972,6.5972,6.5923,6.5872,6.5853,6.582,6.5793,6.5767,6.5571,6.5465,6.5364,6.534,6.5194,6.5008,0.0,0.0,6.4596,6.4463,6.3944,6.3149,6.2336,6.1659,6.1004,6.013,5.9743,5.9731,0.0,0.0,0.0,0.0,0.0,0.0,0.0,0.0,0.0,0.0,0.0,0.0,0.0,0.0,0.0,0.0,0.0,0.0,0.0,0.0,0.0,5.6503,5.6503,5.6503,5.6503,5.6503,5.6503,5.6503,5.6503,5.6503,5.6503,5.6388,5.6319,5.6319,5.6275,5.6275,5.6308,5.6232,5.6187,5.6117,5.6102,0.0,0.0,0.0,0.0,0.0,0.0,0.0,0.0,5.7056,5.7482,5.7965,5.9435,0.0,0.0,0.0,0.0,0.0,6.1061,6.108,6.1061,6.088,6.0817,6.075,6.0559,6.0349,0.0,0.0,0.0,0.0,0.0,6.0256,6.0352,0.0,0.0,0.0,0.0,0.0,0.0,0.0,0.0,0.0,0.0,0.0,0.0,0.0,0.0,0.0,0.0,6.5947,6.5897,6.582,6.582,6.5747,6.5655,6.5747,6.572,6.5542,6.5523,6.5425,6.529,6.529,6.5194,6.4989,0.0,6.467,6.4539,6.3817,6.3243,6.2695,6.1715,6.1104,6.0662,6.0565,6.0408,6.0376,0.0,0.0,0.0,0.0,0.0,0.0,0.0,0.0,0.0,0.0,0.0,0.0,0.0,0.0,0.0,0.0,0.0,0.0,0.0,0.0,5.6503,5.6503,5.6503,5.6503,5.6503,5.6503,5.6503,5.6503,5.6417,5.6388,5.6388,5.6286,5.6244,5.6244,5.6207,5.6194,5.6181,5.6154,5.6117,5.6059,0.0,0.0,0.0,0.0,0.0,0.0,0.0,0.0,0.0,0.0,5.6921,5.7521,5.8797,0.0,0.0,0.0,0.0,0.0,6.0817,6.0922,6.1041,6.0704,6.0681,6.0681,6.0584,6.0349,0.0,0.0,0.0,0.0,0.0,0.0,0.0,0.0,0.0,0.0,0.0,0.0,0.0,0.0,0.0,0.0,0.0,0.0,0.0,0.0,0.0,0.0,0.0,0.0,6.582,6.5793,6.572,6.5627,6.5552,6.559,6.5561,6.5494,6.5425,6.5352,6.5245,6.5161,6.5008,6.4762,0.0,6.4482,6.4188,6.3792,6.3084,6.2146,6.153,6.1038,6.0679,6.0791,6.0905,6.1045,0.0,0.0,0.0,0.0,0.0,0.0,0.0,0.0,0.0,0.0,0.0,0.0,0.0,0.0,0.0,0.0,0.0,0.0,0.0,5.6503,5.6503,5.6503,5.6503,5.6503,5.6503,5.6474,5.6446,5.6446,5.6338,5.6267,5.6244,5.6194,5.6187,5.6187,5.6154,5.6126,5.6102,5.6087,5.6059,5.6012,0.0,0.0,0.0,0.0,0.0,0.0,0.0,0.0,0.0,0.0,0.0,0.0,0.0,0.0,0.0,6.079,6.108,6.1002,6.0589,6.0773,6.0963,6.054,6.054,6.0657,6.0613,6.0376,0.0,0.0,0.0,0.0,0.0,0.0,0.0,0.0,0.0,0.0,0.0,0.0,0.0,0.0,0.0,0.0,0.0,0.0,0.0,0.0,0.0,0.0,0.0,0.0,6.5767,6.572,6.5627,6.5523,6.5435,6.5394,6.5394,6.5454,6.5321,6.5245,6.5147,6.5008,6.4798,6.4596,6.4463,6.4247,6.3897,6.3705,6.2922,6.177,6.1466,6.1237,6.1068,6.1143,6.1479,6.1749,0.0,0.0,0.0,0.0,0.0,0.0,0.0,0.0,0.0,0.0,0.0,0.0,0.0,0.0,0.0,0.0,0.0,0.0,0.0,5.6503,5.6503,5.6503,5.6503,5.6503,5.6503,5.6378,5.6319,5.6319,5.6232,5.6187,5.6117,5.6117,5.6102,5.6102,5.6043,5.6059,5.6102,5.6026,5.5993,5.6012,5.6012,0.0,0.0,0.0,0.0,0.0,0.0,0.0,0.0,0.0,0.0,0.0,0.0,0.0,5.901,6.0539,6.1002,6.0902,6.0531,6.0692,6.0882,6.0353,6.0501,0.0,6.0613,6.0456,0.0,6.0129,0.0,0.0,0.0,0.0,0.0,0.0,0.0,0.0,0.0,0.0,0.0,0.0,0.0,0.0,0.0,0.0,0.0,0.0,0.0,0.0,0.0,0.0,0.0,6.5523,6.5523,6.5454,6.5309,6.5309,6.5309,6.529,6.5245,6.5128,6.5008,6.4815,6.467,6.4558,6.4147,6.3939,6.3854,6.3176,6.2479,6.1769,6.1658,6.1786,6.2049,6.181,6.2097,6.2547,0.0,0.0,0.0,0.0,0.0,0.0,0.0,0.0,0.0,0.0,0.0,0.0,0.0,0.0,0.0,0.0,0.0,0.0,0.0,5.6503,5.6503,5.6503,5.6503,5.6455,5.6378,5.6319,5.6289,5.6289,5.6181,5.6102,5.6043,5.6043,5.6043,5.6043,5.601,5.601,5.6043,5.601,5.6012,5.6012,5.6012,5.6012,0.0,0.0,0.0,0.0,0.0,0.0,0.0,0.0,5.6014,5.6306,5.8062,5.8548,5.88,6.05,6.1002,6.0942,6.0666,6.0843,6.1022,6.052,6.1027,0.0,0.0,6.0406,6.0408,6.0833,6.0929,0.0,0.0,0.0,0.0,0.0,0.0,0.0,0.0,0.0,0.0,0.0,0.0,0.0,0.0,0.0,0.0,0.0,0.0,0.0,0.0,0.0,0.0,6.5494,6.5425,6.5352,6.5309,6.5194,6.5042,6.492,6.5042,6.4974,6.4815,6.467,6.4444,6.4147,6.3981,6.3767,6.3565,6.3289,6.2753,6.2126,6.2024,6.1981,6.1981,6.2233,6.2438,6.2459,0.0,0.0,0.0,0.0,0.0,0.0,0.0,0.0,0.0,0.0,0.0,0.0,0.0,0.0,0.0,0.0,0.0,0.0,5.6503,5.6503,5.6503,5.6503,5.6503,5.6446,5.6289,5.6278,5.6255,5.6232,5.6132,5.6024,5.6012,5.6012,5.6012,5.6012,5.6012,5.6012,5.6012,5.6012,5.6012,5.6012,5.6012,5.6012,0.0,0.0,0.0,0.0,0.0,0.0,0.0,0.0,5.5998,5.627,5.7988,5.8472,5.874,6.0459,6.0981,6.0941,6.0681,6.0862,6.1002,6.0444,6.0987,0.0,6.0884,6.0924,6.1133,6.1397,6.1904,0.0,0.0,0.0,0.0,0.0,0.0,0.0,0.0,0.0,0.0,0.0,0.0,0.0,0.0,0.0,0.0,0.0,0.0,0.0,0.0,0.0,0.0,0.0,6.5321,6.5245,6.5194,6.5008,6.4815,6.467,6.4724,6.4688,6.4521,6.4444,6.4206,6.3878,6.3811,6.3591,6.34,6.3128,6.2676,6.2177,6.2212,6.2176,6.2114,6.2506,6.2537,6.2206,0.0,0.0,0.0,0.0,0.0,0.0,0.0,0.0,5.6503,5.6503,5.6503,0.0,0.0,0.0,0.0,0.0,0.0,0.0,5.6503,5.6503,5.6503,5.6503,5.6503,5.6446,5.6289,5.6232,5.6174,5.6102,5.6026,5.6012,5.6012,5.6012,5.6012,5.6012,5.6012,5.6012,5.6012,5.6012,5.6012,5.6012,5.6012,5.6012,5.6012,0.0,0.0,0.0,0.0,0.0,0.0,0.0,5.5943,5.6194,5.7872,5.8412,5.872,6.0412,6.0955,6.0914,6.0527,6.0704,6.082,6.0093,6.0218,0.0,6.1172,6.2064,6.2557,6.1715,0.0,6.4062,6.4191,0.0,0.0,0.0,0.0,0.0,0.0,0.0,0.0,0.0,0.0,0.0,0.0,0.0,0.0,0.0,0.0,0.0,0.0,0.0,0.0,0.0,6.5245,6.5128,6.5008,6.4815,6.467,6.4596,6.4347,6.4209,6.419,6.4004,6.3897,6.3897,6.3565,6.34,6.3336,6.2446,6.2039,6.2053,6.2168,6.2368,6.271,6.271,6.2442,6.1997,0.0,0.0,0.0,0.0,0.0,0.0,0.0,0.0,5.6503,5.6503,5.6503,0.0,0.0,0.0,0.0,0.0,0.0,0.0,5.6503,5.6503,5.6503,5.6503,5.6417,5.6328,5.6232,5.6117,5.6059,5.6026,5.601,5.6012,5.6012,5.6012,5.6012,5.6012,5.6012,5.6012,5.6012,5.6012,5.6012,5.6012,5.6012,5.6012,5.6012,0.0,0.0,0.0,0.0,0.0,0.0,0.0,0.0,0.0,5.7852,5.837,5.8652,6.0391,6.0955,6.0976,6.085,6.088,0.0,6.0418,0.0,0.0,0.0,6.147,0.0,0.0,0.0,6.4927,0.0,0.0,0.0,0.0,0.0,0.0,0.0,0.0,0.0,0.0,0.0,0.0,0.0,0.0,0.0,0.0,0.0,0.0,0.0,0.0,0.0,0.0,6.5128,6.4974,6.4796,6.467,6.4444,6.4106,6.4023,6.4004,6.4004,6.3939,6.3767,6.3565,6.3428,6.3289,6.3076,6.2795,6.296,6.3441,6.282,6.26,6.2632,6.2347,6.2093,6.1917,0.0,0.0,0.0,0.0,0.0,0.0,0.0,0.0,5.6503,5.6503,5.6503,5.6503,0.0,0.0,0.0,0.0,0.0,0.0,0.0,5.6503,5.6503,5.6503,5.6359,5.6255,5.6154,5.604,5.6012,5.6012,5.6012,5.6012,5.6012,5.6012,5.6012,5.6012,5.6012,5.6012,5.6012,5.6012,5.6012,5.6012,5.6014,5.5996,5.5996,0.0,0.0,0.0,0.0,0.0,0.0,0.0,0.0,0.0,5.7809,0.0,5.8627,6.0388,6.0955,6.0997,6.0999,0.0,0.0,0.0,6.0767,6.1153,0.0,0.0,0.0,0.0,0.0,0.0,0.0,0.0,0.0,0.0,0.0,0.0,0.0,0.0,0.0,0.0,0.0,0.0,0.0,0.0,0.0,0.0,0.0,0.0,0.0,0.0,0.0,0.0,6.4939,6.4798,6.467,6.4444,6.4206,6.3897,6.3767,6.368,6.368,6.368,6.3565,6.3326,6.3593,6.3413,6.2996,6.3572,6.3859,6.3907,6.3674,6.3325,6.2966,6.2608,6.2218,6.1854,0.0,0.0,5.6503,5.6503,0.0,0.0,0.0,0.0,5.6503,5.6503,5.6503,5.6503,0.0,0.0,0.0,0.0,0.0,0.0,5.6503,5.6503,5.6483,5.6483,5.6349,5.6219,5.6087,5.6026,5.6012,5.6012,5.6012,5.6012,5.6012,5.6012,5.6012,5.6012,5.6012,5.6012,5.6012,5.6012,5.6012,5.5995,5.5998,5.5999,5.5981,5.5905,0.0,0.0,0.0,0.0,0.0,0.0,0.0,0.0,5.7665,5.8242,5.8627,6.0291,6.0897,6.0997,6.1001,0.0,0.0,0.0,0.0,0.0,0.0,0.0,0.0,0.0,0.0,0.0,0.0,0.0,0.0,0.0,0.0,0.0,0.0,0.0,0.0,0.0,0.0,0.0,0.0,0.0,0.0,0.0,0.0,0.0,0.0,0.0,0.0,6.4955,6.4689,6.4539,6.4558,6.4106,6.3878,6.3854,6.3565,6.34,6.3336,6.34,6.3307,6.3202,6.3867,6.3758,6.3215,6.4599,6.4626,6.3983,6.4591,6.4323,6.357,6.3331,6.2668,6.1854,0.0,0.0,5.6503,5.6503,0.0,0.0,0.0,0.0,0.0,5.6503,0.0,0.0,0.0,0.0,0.0,0.0,0.0,0.0,5.6503,5.6503,5.6446,5.6349,5.6207,5.6102,5.6026,5.6012,5.6012,5.6012,5.6012,5.6012,5.6012,5.6012,5.6012,5.6012,5.6012,5.6012,5.6012,5.6012,5.6014,5.6017,5.5999,5.5962,5.5905,5.5846,5.5826,0.0,0.0,0.0,0.0,0.0,0.0,0.0,5.6953,5.7742,5.8492,5.9515,6.0371,6.0997,0.0,6.0789,0.0,0.0,0.0,0.0,0.0,0.0,0.0,0.0,0.0,0.0,0.0,0.0,0.0,0.0,0.0,0.0,0.0,0.0,0.0,0.0,0.0,0.0,0.0,0.0,0.0,0.0,0.0,0.0,0.0,0.0,0.0,6.4708,6.4425,6.4209,6.4065,6.3939,6.3767,0.0,6.3428,6.3289,6.3099,6.3213,6.3147,6.3088,6.3668,6.4158,6.4585,6.4757,6.5028,6.5347,6.4852,6.4532,6.4323,6.3952,6.3719,6.341,0.0,0.0,0.0,0.0,0.0,0.0,0.0,0.0,0.0,0.0,0.0,0.0,0.0,0.0,0.0,0.0,5.6503,5.6503,5.6503,5.6503,5.6437,5.6255,5.6141,5.6056,5.5993,5.6012,5.6012,5.6012,5.6012,5.6012,5.6012,5.6012,5.6012,5.6012,5.6012,5.6012,5.6012,5.6012,5.5995,5.5998,5.5981,5.5924,5.5885,5.5806,5.5745,5.5745,5.5724,0.0,0.0,0.0,0.0,0.0,0.0,0.0,5.8454,5.9284,6.0217,6.0955,0.0,0.0,0.0,0.0,0.0,0.0,0.0,0.0,0.0,0.0,0.0,0.0,0.0,0.0,0.0,0.0,0.0,0.0,0.0,0.0,0.0,0.0,0.0,0.0,0.0,0.0,0.0,0.0,0.0,0.0,0.0,6.4671,6.4539,6.4405,6.4169,6.3963,6.3792,6.3724,6.3565,6.3307,6.3242,6.3051,6.2805,6.2953,6.2953,6.286,6.3917,6.4528,6.484,6.5533,6.6019,6.6294,6.5824,6.5356,6.4941,6.4634,6.4288,6.3898,0.0,0.0,0.0,0.0,0.0,0.0,0.0,0.0,0.0,0.0,0.0,0.0,0.0,0.0,5.6503,0.0,0.0,0.0,5.6503,5.6474,5.6368,5.6214,5.6112,5.6059,5.6012,5.6012,5.6012,5.6012,5.6012,5.6012,5.6012,5.6012,5.6012,5.6012,5.6012,5.6012,5.6012,5.6012,5.5995,5.5977,5.5904,5.5885,5.5846,5.5745,5.5703,5.5703,5.5703,5.5703,5.5703,5.5703,0.0,0.0,0.0,0.0,5.8434,5.9152,6.0102,6.0914,0.0,0.0,5.992,0.0,0.0,0.0,0.0,0.0,0.0,0.0,0.0,0.0,0.0,0.0,0.0,0.0,0.0,0.0,0.0,0.0,0.0,0.0,0.0,0.0,0.0,0.0,0.0,0.0,0.0,0.0,6.4596,6.4501,6.4366,6.4169,6.3963,6.3767,6.3661,6.3474,6.3307,6.3165,6.3002,6.2805,6.2552,6.2654,6.2654,6.2643,6.4252,6.4803,6.4747,6.6289,6.6903,6.6804,6.6745,6.6233,6.5533,6.5338,6.4806,6.4112,0.0,0.0,0.0,0.0,0.0,0.0,0.0,0.0,0.0,0.0,5.6503,5.6503,0.0,5.6503,5.6503,5.6503,5.6503,5.6503,5.6503,0.0,0.0,5.6194,5.6071,5.601,5.6012,5.6012,5.6012,5.6012,5.6012,5.6012,5.6012,5.6012,5.6012,5.6012,5.6012,5.6012,5.6012,5.6012,5.5979,5.5924,5.5905,5.5826,5.5724,5.5703,5.5703,5.5703,5.5703,5.5703,5.5703,5.5703,5.5703,0.0,0.0,0.0,5.8319,5.8434,5.9634,6.0891,0.0,0.0,5.8334,0.0,0.0,0.0,0.0,0.0,0.0,0.0,0.0,0.0,0.0,0.0,0.0,0.0,0.0,0.0,0.0,0.0,0.0,0.0,0.0,0.0,0.0,0.0,0.0,0.0,0.0,0.0,6.4596,6.4188,6.3981,6.392,6.3742,6.3602,6.3428,6.3382,6.3289,6.3002,6.2755,6.2552,6.2415,6.2467,6.2467,6.2506,6.4021,6.4602,6.4747,6.6192,6.6804,6.6804,6.659,6.6452,6.6312,6.5985,6.5796,6.5561,0.0,0.0,0.0,0.0,0.0,0.0,0.0,0.0,0.0,0.0,0.0,5.6503,5.6503,5.6503,5.6503,5.6503,5.6503,5.6503,5.6503,5.6306,5.6194,5.6194,5.6071,5.6012,5.6012,5.6012,5.6012,5.6012,5.6012,5.6012,5.6012,5.6012,5.6012,5.6012,5.6012,5.6012,5.6012,5.5996,5.598,5.5962,5.5924,5.5846,5.5806,5.5806,5.5806,5.5745,5.5745,5.5724,5.5703,5.5703,5.5703,5.5703,5.5703,0.0,0.0,0.0,5.9515,0.0,6.08,5.9369,5.8054,0.0,5.9406,6.0094,6.0909,0.0,0.0,0.0,0.0,0.0,0.0,0.0,0.0,0.0,0.0,0.0,0.0,0.0,0.0,0.0,0.0,0.0,0.0,0.0,0.0,0.0,0.0,6.4463,6.4247,6.4023,6.3854,6.3761,6.3583,6.34,6.3307,6.3194,6.3051,6.2787,6.2603,6.2415,6.231,6.2203,6.2222,6.2382,6.3439,6.4147,6.4599,6.5645,6.6329,6.659,6.6512,6.6139,6.5579,6.5438,6.5028,6.4501,0.0,0.0,0.0,0.0,0.0,0.0,0.0,0.0,0.0,0.0,0.0,5.6503,5.6503,0.0,0.0,0.0,5.6503,5.6503,5.6503,5.6306,5.6194,5.6194,5.6071,5.6012,5.6012,5.6012,5.6012,5.6012,5.6012,5.6012,5.6012,5.6012,5.6012,0.0,5.6012,5.6012,5.6012,5.5998,5.5999,5.5999,5.5943,5.5905,5.5905,5.5905,5.5885,5.5826,5.5826,5.5766,5.5724,5.5703,5.5703,5.5703,5.5703,5.6896,0.0,0.0,0.0,0.0,0.0,0.0,5.7925,5.8482,5.9307,6.0102,0.0,0.0,0.0,0.0,0.0,0.0,0.0,0.0,0.0,0.0,0.0,0.0,0.0,0.0,0.0,0.0,0.0,0.0,0.0,0.0,0.0,0.0,0.0,6.4287,6.3939,6.3854,6.3742,6.3557,6.3447,6.3307,6.3165,6.3002,6.2805,6.2552,6.2397,6.2257,6.215,6.206,6.206,6.2204,6.3003,6.3638,6.4142,6.4918,6.5529,6.5935,6.5797,6.5273,6.4588,6.4509,6.4054,6.3359,0.0,0.0,0.0,0.0,0.0,0.0,0.0,0.0,0.0,0.0,0.0,5.6503,5.6503,5.6503,5.6503,5.6503,5.6503,5.6503,5.6503,5.6306,5.6194,5.6194,5.6071,0.0,5.6012,5.6012,5.6012,5.6012,5.6012,5.6012,5.6012,5.6012,5.6012,5.6012,5.6012,5.6012,5.6012,0.0,0.0,5.5999,5.5943,5.5905,5.5905,5.5905,5.5905,5.5885,5.5826,5.5787,5.5787,5.5724,5.5703,5.5703,5.5703,5.6896,5.83,0.0,0.0,0.0,0.0,5.9117,0.0,5.7644,5.887,0.0,0.0,0.0,0.0,0.0,0.0,0.0,0.0,0.0,0.0,0.0,0.0,0.0,0.0,0.0,0.0,0.0,0.0,0.0,0.0,0.0,0.0,0.0,0.0,6.3939,6.3897,6.3717,6.3557,6.34,6.34,6.3289,6.3002,6.2737,6.2552,6.2415,6.2257,6.215,6.2023,6.2005,6.2005,6.206,6.2838,6.3219,6.3309,6.3971,6.4292,6.427,6.3938,6.38,6.3764,6.3528,6.3431,6.3288,0.0,0.0,0.0,0.0,0.0,0.0,0.0,0.0,0.0,0.0,0.0,0.0,0.0,5.6503,5.6503,5.6503,5.6503,5.6455,5.6378,5.6263,5.6168,5.6146,5.6059,5.6012,5.6012,5.6012,5.6012,5.6012,5.6012,5.6012,5.6012,5.6012,5.6012,5.6012,5.6012,5.6012,5.5995,5.5942,0.0,5.5999,5.5943,5.5943,5.5943,0.0,0.0,0.0,0.0,0.0,0.0,5.5766,5.5745,5.5799,5.6357,5.7357,5.8511,5.9588,6.0229,6.0616,0.0,0.0,0.0,5.772,5.914,6.0516,0.0,0.0,0.0,0.0,0.0,0.0,0.0,0.0,0.0,0.0,0.0,0.0,0.0,0.0,0.0,0.0,0.0,0.0,0.0,0.0,0.0,0.0,0.0,6.3854,6.3717,6.3538,6.3447,6.34,6.3242,6.3051,6.2855,6.2705,6.2552,6.2415,6.2257,6.2096,6.2023,6.2023,6.2023,6.2041,6.2203,6.2562,6.3068,6.33,6.3617,6.389,6.3771,6.3328,6.282,6.2742,6.236,6.1878,0.0,0.0,0.0,0.0,0.0,5.6503,5.6503,5.6503,5.6503,5.6503,0.0,0.0,0.0,0.0,5.6503,5.6503,5.6503,5.6446,5.6319,5.6232,5.6168,5.6102,5.6043,5.6012,5.6012,5.6012,5.6012,5.6012,5.6012,5.6012,5.6012,5.6012,5.6012,5.6012,5.6012,5.6012,0.0,0.0,0.0,5.5998,5.5924,5.5943,5.5998,0.0,0.0,0.0,0.0,0.0,0.0,0.0,5.625,5.6344,5.717,5.8014,5.8973,6.0396,6.0734,6.0597,6.0403,0.0,0.0,0.0,0.0,6.016,0.0,0.0,0.0,0.0,0.0,0.0,0.0,0.0,0.0,0.0,0.0,0.0,0.0,0.0,0.0,0.0,0.0,0.0,0.0,0.0,0.0,0.0,0.0,0.0,6.3602,6.3447,6.3354,6.3242,6.3051,6.2855,6.2755,6.2603,6.2467,6.231,6.2203,6.2114,6.2023,6.2023,6.2023,6.2023,6.1858,6.2109,6.2596,6.2483,6.2597,6.2904,6.2845,6.2463,6.1896,6.1896,6.1497,6.0914,0.0,0.0,5.6503,5.6503,5.6503,5.6503,5.6503,5.6503,5.6503,5.6503,0.0,0.0,0.0,0.0,0.0,5.6503,5.6503,5.6446,5.6308,5.6232,5.6174,5.6102,5.6043,5.6012,5.6012,5.6012,5.6012,5.6012,5.6012,5.6012,5.6012,5.6012,5.6012,5.6012,5.6012,5.6012,5.5995,0.0,5.5942,5.5995,0.0,5.5942,5.6012,0.0,0.0,0.0,5.6036,5.6038,0.0,5.6966,0.0,5.7371,5.81,5.8883,5.9704,6.055,6.0572,6.0321,0.0,0.0,0.0,0.0,0.0,0.0,5.9492,0.0,0.0,0.0,0.0,0.0,0.0,0.0,0.0,0.0,0.0,0.0,0.0,0.0,0.0,0.0,0.0,0.0,0.0,0.0,0.0,0.0,6.3602,6.3602,6.3602,6.3447,6.3242,6.3002,6.2855,6.2755,6.2603,6.2467,6.231,6.2203,6.206,6.2023,6.2023,6.2023,6.2023,6.1969,6.1858,6.1802,6.1746,6.1426,6.1328,6.1252,6.1152,6.1093,6.1093,6.1093,6.0854,6.0609,0.0,5.6503,5.6503,5.6503,5.6503,5.6503,5.6503,5.6503,5.6503,0.0,0.0,0.0,0.0,0.0,5.6503,5.6503,5.6417,5.6328,5.6232,5.6154,5.6102,5.6026,5.601,5.6012,5.6012,5.6012,5.6012,5.6012,5.6012,5.6012,5.6012,0.0,5.6014,5.5998,5.5998,5.598,5.5943,5.5905,0.0,5.5943,5.5905,5.5943,0.0,0.0,0.0,0.0,0.0,5.6924,5.7004,0.0,5.8085,5.8139,0.0,0.0,6.0492,6.0723,6.0734,0.0,6.0368,0.0,0.0,0.0,0.0,0.0,5.9734,6.1248,0.0,0.0,0.0,0.0,0.0,0.0,0.0,0.0,0.0,0.0,0.0,0.0,0.0,0.0,0.0,0.0,0.0,0.0,0.0,0.0,6.3602,6.3602,6.3602,6.3354,6.3099,6.2855,6.2805,6.2755,6.2603,6.2467,6.231,6.2203,6.206,6.2023,6.2023,6.2023,6.1969,6.1858,6.169,6.1577,6.1444,6.1328,6.1252,6.1152,6.1093,6.1093,6.1093,6.1093,6.0854,6.0565,5.6503,5.6503,5.6503,5.6503,5.6503,5.6503,5.6503,5.6503,5.6503,0.0,0.0,0.0,0.0,0.0,0.0,5.6503,5.6378,5.6267,5.6194,5.6146,5.6056,5.5993,5.6012,5.6012,5.6012,5.6012,5.6012,5.6012,5.6012,5.6012,0.0,0.0,0.0,5.5999,5.5981,5.5924,5.5846,0.0,0.0,0.0,5.5905,0.0,0.0,5.6401,5.6553,0.0,0.0,0.0,5.791,5.8799,5.9224,0.0,0.0,0.0,0.0,0.0,0.0,0.0,0.0,0.0,0.0,0.0,0.0,0.0,5.9488,6.0697,6.2002,0.0,0.0,0.0,0.0,0.0,0.0,0.0,0.0,0.0,0.0,0.0,0.0,0.0,0.0,0.0,0.0,6.3897,6.3717,6.3602,6.3602,6.3557,6.3465,6.3213,6.3002,6.2823,6.2805,6.2705,6.25,6.2467,6.231,6.2114,6.2005,6.2023,6.2023,6.2023,6.1913,6.1802,6.1633,6.1519,6.1328,6.127,6.1152,6.1093,6.1093,6.1093,6.1093,6.0914,6.0671,6.0343,0.0,5.6503,5.6503,5.6503,5.6503,5.6503,5.6503,5.6503,5.6503,0.0,5.6503,0.0,0.0,0.0,0.0,0.0,5.6349,5.6255,5.6194,5.6132,5.6056,5.5993,5.6012,5.6012,5.6012,5.6012,5.6012,5.6012,0.0,0.0,0.0,0.0,0.0,0.0,5.602,5.6,5.5941,0.0,0.0,5.6251,5.6097,5.6135,0.0,0.0,5.7443,5.7559,5.843,5.8739,5.8874,5.9725,6.0461,0.0,0.0,0.0,0.0,0.0,6.0823,0.0,0.0,0.0,0.0,0.0,0.0,0.0,5.9041,5.9823,6.0836,0.0,0.0,0.0,0.0,0.0,0.0,0.0,0.0,0.0,0.0,0.0,0.0,0.0,0.0,0.0,6.3939,6.3717,6.3602,6.3602,6.3602,6.3465,6.3213,6.3051,6.2953,6.2805,6.2805,6.2654,6.2415,6.2415,6.2275,6.2023,6.2023,6.2023,6.2023,6.2023,6.1913,6.1746,6.1633,6.1462,6.127,6.1152,6.1093,6.1093,6.1093,6.1093,6.1034,6.075,6.0423,6.0043,5.6503,5.6503,5.6503,5.6503,5.6503,5.6503,5.6503,5.6503,5.6503,5.6503,5.6503,0.0,0.0,0.0,0.0,0.0,5.6275,5.6181,5.6132,5.6059,5.601,5.6012,5.6012,5.6012,5.6012,5.6012,5.6012,5.6012,0.0,0.0,0.0,0.0,0.0,0.0,5.6558,5.6825,5.6802,0.0,0.0,5.7853,5.7197,0.0,5.8027,5.8257,5.8352,5.8449,5.9319,5.9648,5.9764,6.0539,6.0886,6.1001,0.0,0.0,0.0,6.0911,0.0,0.0,0.0,0.0,0.0,0.0,0.0,0.0,5.9431,5.9868,6.0297,0.0,0.0,0.0,0.0,0.0,0.0,0.0,0.0,0.0,0.0,0.0,0.0,0.0,0.0,0.0,6.3878,6.3717,6.3602,6.3602,6.3511,6.3289,6.3051,6.3002,6.2953,6.2805,6.2805,6.2654,6.2415,6.2415,6.2275,6.2023,6.2023,6.2023,6.2023,6.2023,6.1858,6.1633,6.1633,6.1404,6.1152,6.1093,6.1093,6.1093,6.1093,6.1093,6.1093,6.1034,6.0591,6.0089,5.6503,5.6503,5.6503,5.6503,5.6503,5.6503,5.6503,5.6503,5.6503,5.6503,5.6503,0.0,0.0,0.0,0.0,0.0,0.0,5.6168,5.6102,5.6043,5.6012,5.6012,5.6012,5.6012,5.6012,5.6012,5.5995,5.5996,0.0,0.0,0.0,0.0,0.0,0.0,0.0,5.7287,5.767,0.0,5.858,5.893,5.8103,0.0,5.8548,5.8604,5.8604,5.8662,5.9087,5.9242,5.9319,5.9688,6.0056,0.0,0.0,6.069,6.0976,0.0,6.0911,6.0846,0.0,0.0,0.0,5.9286,0.0,0.0,0.0,5.9767,6.0485,0.0,0.0,0.0,0.0,0.0,0.0,0.0,0.0,0.0,0.0,0.0,0.0,0.0,0.0,0.0,6.3742,6.3647,6.3557,6.3511,6.3354,6.3194,6.3002,6.2953,6.2855,6.2805,6.2755,6.2603,6.2415,6.231,6.2222,6.2023,6.2023,6.2023,6.2023,6.2023,6.1858,6.1577,6.1577,6.1404,6.1129,6.1521,6.17,6.1646,6.1254,6.1093,6.1093,6.0914,6.0547,6.0107,5.6503,5.6503,5.6503,5.6503,5.6503,5.6503,5.6503,5.6503,5.6503,5.6503,0.0,0.0,0.0,0.0,0.0,0.0,0.0,5.6212,0.0,0.0,5.6043,5.5993,5.6012,5.6012,5.5995,5.5995,5.5996,5.5981,0.0,0.0,0.0,0.0,0.0,0.0,0.0,0.0,0.0,0.0,0.0,5.9565,0.0,5.8723,5.8818,5.8818,5.8739,5.8604,5.8604,5.8604,5.8623,5.8778,5.9147,5.9573,5.9766,6.0132,0.0,0.0,0.0,0.0,0.0,0.0,0.0,0.0,0.0,5.8834,0.0,0.0,0.0,0.0,0.0,0.0,0.0,0.0,0.0,0.0,0.0,0.0,0.0,0.0,0.0,0.0,0.0,0.0,0.0,6.3602,6.3557,6.34,6.326,6.3117,6.2953,6.2855,6.2805,6.2805,6.2654,6.2552,6.2415,6.2257,6.215,6.2023,6.2023,6.2023,6.2023,6.2023,6.1858,6.1577,6.1577,6.1494,6.1379,6.2021,6.236,6.2431,6.1789,6.1539,6.1479,6.1193,6.0801,6.0463,5.6503,5.6503,5.6503,5.6503,5.6503,5.6503,5.6503,5.6503,5.6503,0.0,0.0,0.0,0.0,0.0,0.0,0.0,0.0,0.0,5.6205,0.0,5.6121,5.6012,5.6012,5.6014,5.5999,5.5999,5.5981,5.5905,0.0,0.0,0.0,0.0,0.0,0.0,5.8963,0.0,0.0,0.0,6.0239,0.0,5.9608,5.961,0.0,5.9669,5.9224,5.8604,5.8604,5.8604,5.872,0.0,5.9244,5.88,0.0,5.9379,5.8761,5.8702,0.0,0.0,0.0,0.0,0.0,0.0,5.7903,0.0,0.0,0.0,0.0,6.0371,0.0,0.0,0.0,0.0,0.0,0.0,0.0,0.0,0.0,0.0,0.0,0.0,0.0,0.0,0.0,6.3602,6.3511,6.326,6.3213,6.3117,6.2855,6.2823,6.2805,6.2805,6.2654,6.2552,6.2415,6.2257,6.215,6.2023,6.2023,6.2023,6.2023,6.2023,6.1858,6.1577,6.1577,6.1799,6.2164,6.2253,6.2681,6.3252,6.3163,6.3127,6.3066,6.2772,6.2405,6.2059,5.6503,5.6503,5.6503,5.6503,5.6503,5.6503,5.6503,5.6426,5.6378,0.0,0.0,0.0,0.0,0.0,0.0,0.0,0.0,5.6503,0.0,0.0,0.0,5.7499,5.7465,5.7215,5.6714,5.714,5.7139,5.6597,5.7059,0.0,0.0,0.0,0.0,0.0,5.9468,0.0,6.0374,0.0,5.9991,0.0,0.0,0.0,0.0,5.8317,5.7831,5.7095,5.7095,5.7095,5.7153,0.0,5.8044,0.0,0.0,0.0,0.0,0.0,0.0,0.0,0.0,0.0,0.0,0.0,0.0,0.0,5.8987,0.0,6.0042,0.0,0.0,0.0,0.0,0.0,0.0,0.0,6.2366,0.0,0.0,0.0,0.0,0.0,0.0,0.0,0.0,0.0,0.0,0.0,6.3117,6.3002,6.2805,6.2805,6.2755,6.2705,6.2552,6.2415,6.231,6.215,6.206,6.2023,6.2023,6.2023,6.2023,6.1913,6.1802,6.1577,6.1462,6.1525,6.1664,6.2556,6.3109,6.3484,6.443,6.4216,6.3333,6.3038,6.2652,6.2305,5.6446,5.6474,5.6503,5.6503,5.6503,5.6483,5.6446,5.6359,0.0,0.0,0.0,0.0,5.6232,5.6239,0.0,0.0,5.6563,5.6927,0.0,0.0,5.8066,0.0,0.0,0.0,0.0,5.8104,5.8062,5.7441,5.8019,0.0,0.0,0.0,0.0,0.0,0.0,6.0243,6.055,0.0,0.0,5.8869,5.8233,5.7504,5.6811,5.6905,5.6553,5.6012,5.6012,5.6147,5.6399,5.6631,5.754,0.0,5.8139,0.0,0.0,0.0,0.0,0.0,5.8769,0.0,0.0,0.0,0.0,0.0,0.0,0.0,0.0,0.0,0.0,0.0,0.0,0.0,0.0,0.0,0.0,0.0,0.0,0.0,0.0,0.0,0.0,0.0,0.0,0.0,0.0,0.0,0.0,6.2953,6.2823,6.2805,6.2755,6.2603,6.2467,6.2362,6.2203,6.206,6.2023,6.2023,6.2023,6.2023,6.2023,6.1858,6.1746,6.1577,6.1386,6.1336,6.1504,6.2628,6.3341,6.3841,6.5019,6.4813,6.3831,6.3483,6.307,6.2509,5.6329,5.6417,5.6503,5.6503,5.6503,5.6455,5.6319,0.0,0.0,0.0,0.0,0.0,0.0,0.0,0.0,0.0,0.0,5.7728,5.7681,0.0,5.8861,0.0,0.0,5.851,0.0,0.0,5.8308,5.8261,5.83,0.0,0.0,0.0,0.0,0.0,0.0,6.0388,5.955,5.9598,5.8676,5.7193,5.7154,5.6695,5.6038,0.0,5.6031,5.6012,5.6012,0.0,0.0,5.8236,5.8508,0.0,0.0,0.0,0.0,0.0,0.0,0.0,0.0,0.0,0.0,5.7732,0.0,0.0,0.0,0.0,5.962,0.0,0.0,0.0,0.0,0.0,0.0,0.0,0.0,0.0,0.0,0.0,0.0,0.0,0.0,0.0,0.0,0.0,0.0,0.0,0.0,0.0,6.2823,6.2805,6.2755,6.2603,6.2467,6.2362,6.2203,6.206,6.2023,6.2023,6.2023,6.2023,6.2023,6.1858,6.1746,6.1577,6.1386,6.164,6.2253,6.2307,6.3216,6.459,6.4626,6.4863,6.5123,6.4773,6.4024,6.3113,5.6244,5.6263,5.6306,0.0,0.0,0.0,0.0,5.6174,0.0,0.0,0.0,0.0,0.0,5.7174,5.7445,0.0,0.0,5.8826,5.9377,5.9592,0.0,0.0,0.0,5.9915,0.0,0.0,5.9669,5.9088,5.9619,6.0042,0.0,0.0,0.0,0.0,0.0,6.0342,0.0,0.0,0.0,0.0,0.0,5.6463,5.6811,0.0,0.0,5.694,5.7501,5.7907,0.0,5.8488,5.8934,5.9321,5.907,5.9455,5.9834,5.8678,5.863,0.0,0.0,0.0,5.8738,5.8719,0.0,0.0,0.0,0.0,0.0,0.0,0.0,0.0,0.0,0.0,0.0,0.0,0.0,0.0,0.0,0.0,0.0,0.0,0.0,0.0,0.0,0.0,0.0,0.0,0.0,0.0,0.0,6.2805,6.2723,6.2449,6.2415,6.231,6.206,6.2005,6.2023,6.2023,6.2023,6.1969,6.1858,6.1746,6.1577,6.1386,6.1211,6.1313,6.1539,6.2075,6.2592,6.3127,6.3609,6.3953,6.4104,6.4513,6.4039,6.3032,5.6168,5.6154,5.6168,0.0,0.0,0.0,0.0,0.0,0.0,0.0,5.6675,0.0,5.7538,0.0,5.775,0.0,5.8378,5.8805,5.9343,5.9573,0.0,6.0962,6.0786,0.0,0.0,0.0,0.0,5.9954,6.0465,6.0685,0.0,0.0,0.0,0.0,0.0,6.0099,5.9008,0.0,5.7613,0.0,0.0,5.6809,0.0,0.0,5.7969,5.7756,0.0,5.8722,5.8993,5.8993,5.9534,6.0132,5.9572,6.007,6.068,5.9562,5.9576,5.9907,5.9696,5.9816,0.0,5.9582,5.9701,0.0,5.8788,0.0,0.0,0.0,0.0,0.0,0.0,0.0,0.0,0.0,0.0,0.0,0.0,6.0148,0.0,0.0,0.0,0.0,0.0,0.0,0.0,0.0,0.0,0.0,0.0,0.0,6.2361,6.2397,6.2415,6.2257,6.2005,6.2023,6.2023,6.2023,6.2023,6.1913,6.1802,6.1633,6.1519,6.131,6.1152,6.1093,6.1147,6.1646,6.2021,6.2342,6.2806,6.301,6.3196,6.3746,6.3238,6.2105,5.6117,5.6102,0.0,0.0,5.6181,0.0,0.0,0.0,5.6537,0.0,5.7536,5.7602,5.7609,5.7662,5.738,5.6591,5.7358,0.0,5.7777,5.8532,0.0,0.0,6.0112,6.0404,6.1154,0.0,0.0,6.0723,6.071,6.0685,6.0685,0.0,0.0,0.0,6.0604,0.0,5.8208,5.8246,5.7309,5.5895,5.6806,5.7634,5.8464,5.9335,5.9202,5.8508,5.8547,5.9068,5.9763,5.9763,6.0322,6.1017,6.1017,6.0955,6.0911,6.0911,6.0846,6.08,6.08,6.08,6.069,6.0236,0.0,0.0,0.0,0.0,5.9502,0.0,0.0,0.0,0.0,0.0,0.0,0.0,0.0,0.0,0.0,0.0,0.0,0.0,0.0,0.0,0.0,0.0,0.0,0.0,0.0,0.0,0.0,0.0,6.1757,6.2324,6.236,6.222,6.2005,6.2023,6.2023,6.2023,6.2023,6.1913,6.1802,6.1633,6.1462,6.1252,6.1152,6.1093,6.1093,6.1093,6.1539,6.2235,6.2235,6.223,6.2255,6.2334,6.1706,6.0633,5.6043,5.6026,5.6026,0.0,5.6059,5.6043,0.0,0.0,0.0,0.0,5.7229,5.7699,5.7733,5.7801,5.7991,5.8365,5.8664,0.0,0.0,0.0,0.0,5.9334,5.9215,5.9192,5.9297,5.9783,0.0,5.9749,6.0328,6.0604,6.0552,0.0,0.0,0.0,0.0,0.0,5.8174,5.8818,5.8519,5.7646,5.7899,5.8476,0.0,0.0,5.9807,6.0192,6.0299,6.0476,6.0669,6.0669,6.0762,6.0933,6.0933,6.0869,6.0823,6.0823,6.0823,6.08,6.08,6.08,6.071,6.0349,6.0246,6.0112,0.0,0.0,0.0,0.0,0.0,0.0,0.0,0.0,0.0,0.0,0.0,0.0,0.0,0.0,0.0,5.9918,0.0,0.0,0.0,0.0,0.0,0.0,0.0,0.0,0.0,0.0,0.0,6.1485,6.14,6.1551,6.2005,6.2023,6.2023,6.2023,6.1913,6.1802,6.1633,6.1444,6.127,6.1152,6.1093,6.1093,6.1093,6.1093,6.1218,6.1414,6.1414,6.0885,6.0198,6.0757,6.0909,6.0633,5.4926,5.5219,0.0,5.6437,0.0,0.0,5.6604,0.0,0.0,5.7349,5.7576,0.0,5.7753,5.7838,5.7922,5.7992,5.8046,0.0,5.8013,0.0,0.0,5.8425,5.835,5.8416,5.8626,5.8993,0.0,5.9398,0.0,0.0,6.0499,0.0,0.0,0.0,0.0,5.9771,5.8579,5.8774,5.8846,5.8819,5.8819,0.0,0.0,6.0069,6.0358,6.0823,6.0888,6.0911,6.0911,6.0911,6.0888,6.0846,6.0846,6.0823,6.08,6.08,6.08,6.08,6.08,6.08,6.0757,6.0572,6.052,6.0403,5.9943,5.9836,5.9836,0.0,0.0,0.0,0.0,0.0,0.0,0.0,0.0,0.0,0.0,0.0,0.0,0.0,5.9215,0.0,0.0,0.0,0.0,0.0,0.0,0.0,0.0,0.0,0.0,6.0646,6.096,6.1222,6.148,6.1879,6.206,6.2023,6.1858,6.1746,6.1577,6.1386,6.1211,6.1093,6.1093,6.1093,6.1093,6.1093,6.1093,6.1034,6.0494,5.9663,5.8839,5.9059,5.9383,5.9732,5.3807,0.0,0.0,0.0,0.0,0.0,0.0,5.6858,0.0,5.8312,0.0,5.7674,5.7569,5.7656,5.743,5.6673,0.0,5.6591,5.6523,5.6566,5.6875,5.7476,5.7521,5.7791,5.8308,5.8432,5.8745,0.0,0.0,0.0,0.0,0.0,0.0,0.0,0.0,0.0,0.0,5.8659,5.8889,5.9665,5.9665,6.0127,6.08,6.08,6.08,6.08,6.08,6.08,6.08,6.08,6.08,6.08,6.08,6.08,6.08,6.08,6.08,6.08,6.0734,6.0734,6.0734,6.0666,6.0622,6.0546,6.016,6.0072,6.0061,5.9925,5.9944,6.0019,0.0,0.0,0.0,0.0,0.0,0.0,0.0,0.0,0.0,0.0,0.0,0.0,0.0,0.0,0.0,0.0,0.0,0.0,0.0,0.0,0.0,5.9807,6.0468,6.0838,6.081,0.0,6.1896,6.2023,6.175,6.1582,6.1577,6.1386,6.1211,6.1093,6.1093,6.1093,6.1093,6.1093,6.1034,6.0818,5.9596,5.8712,5.7974,5.7417,5.7674,5.8373,5.5432,0.0,0.0,0.0,0.0,5.7362,5.7532,5.7994,5.7959,5.6943,5.7383,5.7537,5.6866,5.6811,5.6777,5.66,5.66,0.0,0.0,0.0,0.0,5.6479,5.6569,5.6529,5.631,5.7738,5.8429,0.0,0.0,0.0,0.0,0.0,0.0,0.0,0.0,0.0,6.0291,5.9528,0.0,6.0569,6.0569,6.0666,6.08,6.08,6.08,6.08,6.08,6.08,6.08,6.08,6.08,6.08,6.08,6.08,6.08,6.08,6.08,6.0734,6.0449,6.0395,6.0274,5.9912,5.9798,5.9747,5.9597,5.9496,5.9446,5.9411,5.9378,5.9289,5.9103,0.0,0.0,0.0,0.0,0.0,0.0,0.0,0.0,0.0,0.0,5.7825,0.0,0.0,0.0,0.0,0.0,0.0,0.0,0.0,0.0,0.0,5.8951,0.0,0.0,0.0,6.0701,6.2005,6.1079,6.1004,6.1577,6.127,6.1093,6.1093,6.1093,6.1093,6.1093,6.1093,6.0757,6.0083,5.9095,5.8192,5.7256,5.6392,5.6401,5.6948,0.0,0.0,0.0,0.0,0.0,0.0,0.0,5.7957,0.0,5.7181,5.7106,5.6975,5.6601,5.6588,5.6601,5.6601,5.6598,5.6605,5.6606,5.6606,5.6536,5.6407,5.6289,0.0,5.5965,5.712,5.7844,5.8092,0.0,0.0,0.0,0.0,0.0,0.0,0.0,6.0444,0.0,0.0,0.0,6.0704,6.0704,6.0729,6.0734,6.0704,6.0729,6.0753,6.0753,6.0753,6.0734,6.08,6.08,6.08,6.08,6.08,6.08,6.08,6.0666,6.052,6.0321,6.0112,5.988,5.9668,5.9549,5.9462,5.9373,5.9303,5.9286,5.9251,5.9233,5.9103,5.8769,5.8665,0.0,0.0,0.0,0.0,0.0,0.0,0.0,0.0,0.0,0.0,0.0,0.0,0.0,0.0,0.0,0.0,0.0,0.0,0.0,0.0,0.0,0.0,0.0,0.0,0.0,6.0774,6.052,6.0588,6.0983,6.1091,6.1093,6.1093,6.1093,6.1093,6.1093,6.0696,6.0065,5.9314,5.8407,5.7504,5.6586,5.6006,5.5816,5.6041,0.0,5.52,0.0,0.0,5.7366,0.0,5.7367,5.7407,5.745,5.745,5.6904,5.6517,5.6517,5.6567,5.6601,5.66,5.6605,5.6606,5.6606,5.6606,5.6577,5.6491,5.6241,5.6071,5.602,5.685,5.7562,0.0,0.0,0.0,0.0,0.0,0.0,0.0,0.0,0.0,0.0,0.0,6.0437,6.0335,6.0527,6.0514,6.0411,6.0553,6.0629,6.068,6.068,6.068,6.0704,6.0753,6.0777,6.0777,6.0777,6.0753,6.0753,6.0753,6.0565,6.034,6.016,5.9849,5.9534,5.9359,5.9213,5.9121,5.9028,5.9028,5.9008,5.8969,5.893,5.887,5.8521,5.8479,0.0,0.0,0.0,0.0,0.0,0.0,0.0,0.0,0.0,0.0,5.6621,0.0,0.0,0.0,0.0,5.7249,5.7298,5.7364,5.7356,0.0,0.0,5.8323,5.835,0.0,5.9357,5.9562,5.9763,5.9959,6.01,6.0603,6.0843,6.0861,6.1022,6.1034,6.0818,6.0227,5.9464,5.8616,5.7797,5.6937,5.6165,5.5863,5.5685,5.5507,0.0,0.0,0.0,0.0,0.0,0.0,0.0,5.6611,5.6628,5.6692,5.6638,5.6597,5.6597,5.6601,5.6599,5.6595,5.6606,5.6606,5.6606,5.6606,5.6459,5.6166,5.611,5.599,5.5748,5.7341,5.8135,0.0,0.0,0.0,0.0,0.0,0.0,0.0,0.0,0.0,0.0,6.0499,6.0092,5.9492,6.0278,6.0125,5.9536,6.0297,6.0604,6.0604,6.0604,6.0604,6.0604,6.0629,6.0655,6.0685,6.0655,6.0629,6.0629,6.0629,6.0604,6.0433,5.9772,5.9553,5.9306,5.8516,5.8338,5.8294,5.8142,5.8097,5.8097,5.8115,5.8115,5.8115,5.807,5.807,5.8142,0.0,0.0,0.0,0.0,0.0,5.7088,5.6893,0.0,0.0,0.0,5.4862,0.0,0.0,5.6088,5.6156,5.6297,5.6908,5.7188,5.7188,0.0,5.7608,5.8193,5.7699,5.8097,5.9384,5.8628,5.8538,5.9181,5.9724,6.0023,6.0058,6.079,6.0696,6.0083,6.0019,5.918,5.7887,5.7594,5.7013,5.6307,5.5927,5.5782,5.5621,0.0,0.0,0.0,0.0,0.0,0.0,0.0,5.6977,5.734,5.7378,5.7383,5.7383,5.7383,5.7378,5.7386,5.7387,5.6899,5.6606,5.6606,5.6497,5.6371,5.6232,5.6077,5.593,5.5827,5.69,5.767,0.0,0.0,0.0,0.0,0.0,0.0,0.0,0.0,6.013,5.9652,5.9652,5.9202,5.852,5.9362,5.9523,5.9345,6.0154,6.0499,6.0552,6.0552,6.0552,6.0552,6.0552,6.0578,6.0629,6.0604,6.0604,6.0604,6.0604,6.0453,6.0188,5.9639,5.927,5.8928,5.8338,5.8152,5.8061,5.7997,5.7997,5.7997,5.7997,5.7997,5.7997,5.7997,5.7997,5.8024,0.0,0.0,0.0,0.0,0.0,0.0,5.7167,0.0,5.5979,0.0,0.0,0.0,0.0,0.0,5.5341,5.542,5.6097,5.6482,5.6482,0.0,5.7351,5.7575,5.7351,5.7481,5.7959,5.7962,5.8107,5.8283,5.8902,5.9202,5.922,5.9541,5.9277,5.8615,5.8136,5.7671,5.7065,5.6586,5.6376,5.6385,5.6086,5.5943,5.5604,5.6222,0.0,5.6244,0.0,5.6592,5.688,5.6919,5.7693,5.8286,5.8279,5.8495,5.8551,5.8317,5.8267,5.8254,5.8246,5.7465,5.6957,5.6957,5.653,5.6279,5.6252,5.6035,0.0,5.5845,5.6533,5.7167,5.7728,5.8477,0.0,0.0,0.0,0.0,0.0,6.0007,5.9548,5.8746,5.8746,5.8421,5.7963,5.8784,5.9136,5.9267,6.0092,6.0417,6.0472,6.0472,6.0472,6.0472,6.0472,6.0499,6.0552,6.0552,6.0552,6.0552,6.0552,6.037,6.0068,5.9571,5.9178,5.8769,5.8249,5.8088,5.7997,5.7997,5.7997,5.7997,5.7997,5.7997,5.7997,5.7997,5.7997,5.7997,5.7997,0.0,0.0,0.0,0.0,0.0,0.0,5.6441,5.5613,5.458,5.3979,0.0,0.0,0.0,0.0,5.4804,5.5577,0.0,0.0,0.0,0.0,0.0,5.7138,5.7087,5.6951,5.737,5.755,5.7405,5.808,5.8506,5.8663,5.8472,5.8005,5.7356,5.6857,5.6541,5.6387,5.6046,5.6172,5.6463,5.6228,5.5894,5.5312,5.6291,5.6302,5.6341,5.6457,5.7151,5.7729,5.7865,5.8628,5.9179,5.918,5.9888,6.0076,5.9275,5.912,5.9084,5.9085,5.8285,5.7797,5.7797,5.6842,5.6242,0.0,0.0,5.5845,5.5724,5.6505,5.6879,5.6827,0.0,0.0,5.7944,0.0,5.9128,5.9128,5.9128,5.867,5.7905,5.7905,5.7905,5.7963,5.8784,5.9109,5.9205,6.0064,6.0389,6.0389,6.0389,6.0389,6.0389,6.0389,6.0389,6.0389,6.0389,6.0389,6.0389,6.0389,6.0389,6.0207,5.9432,5.9215,5.9008,5.8186,5.7997,5.7997,5.7997,5.7997,5.7997,5.7997,5.7997,5.7997,5.7997,5.7997,5.7997,5.7997,0.0,0.0,0.0,0.0,0.0,5.5952,5.4163,5.339,5.4774,5.3525,0.0,0.0,0.0,0.0,0.0,0.0,0.0,5.6966,5.7138,0.0,5.6984,5.6984,5.6951,5.6794,5.6653,5.6564,5.6436,5.7239,5.8006,5.8663,5.8005,5.7276,5.6601,5.6694,5.6281,5.5686,5.6398,5.668,5.668,5.6463,5.5685,5.4453,5.7255,5.7733,5.8155,5.8194,5.849,5.8733,5.8772,5.9499,6.0022,6.0022,6.0753,6.1193,6.0934,6.0358,5.9991,0.0,5.8656,5.7797,0.0,5.6766,5.6146,5.6097,5.5879,5.5748,5.5703,5.5865,5.6237,5.6808,0.0,0.0,0.0,5.8154,5.8288,5.8288,5.8288,5.781,5.7008,5.7008,5.7008,5.7084,5.7944,5.8612,5.9205,6.0064,6.0389,6.0389,6.0389,6.0389,6.0389,6.0389,6.0389,6.0389,6.0389,6.0389,6.0389,6.0389,6.0389,6.0237,5.9432,5.9215,5.9026,5.8186,5.7997,5.7997,5.7997,5.7997,5.7997,5.7997,5.7997,5.7997,5.7997,5.7997,5.7997,5.7997,5.7839,0.0,0.0,0.0,5.5468,5.4526,5.3813,5.3388,5.3259,5.2834,0.0,0.0,0.0,0.0,0.0,0.0,0.0,0.0,5.612,0.0,5.7138,5.7156,5.7036,5.6794,5.6742,5.66,5.6401,5.6668,5.6659,5.6435,5.6241,5.5477,5.4464,5.4957,5.5034,5.4941,5.567,5.6266,5.6697,5.6463,5.5765,5.4637,5.8262,5.8708,5.9074,5.9074,5.9393,5.9648,5.9643,6.037,6.0895,6.0895,6.1369,6.1701,6.1701,6.1213,0.0,6.0881,5.93,5.8285,5.8285,5.6951,5.6146,5.6097,5.5879,5.5748,5.5703,5.5573,0.0,5.6309,5.6512,5.6874,5.7409,5.7753,5.7734,5.7409,5.7409,5.6931,5.6148,5.6148,5.6511,5.7141,5.7676,5.8574,5.9644,6.0179,6.0389,6.0389,6.0389,6.0389,6.0389,6.0389,6.0389,6.0389,6.0389,6.0389,6.0389,6.0389,6.0389,6.0237,5.9432,5.9215,5.9026,5.8186,5.7997,5.7997,5.7997,5.7997,5.7997,5.7997,5.7997,5.7997,5.7997,5.7997,5.7997,5.7997,5.7904,5.7452,5.6536,0.0,5.5232,0.0,0.0,0.0,0.0,5.2498,5.2452,0.0,0.0,0.0,0.0,0.0,0.0,5.487,5.5341,0.0,5.6736,5.6704,5.6696,5.6794,5.6707,5.6546,5.6401,5.6401,5.6014,5.5402,5.5147,5.4391,5.345,5.3936,5.41,5.4212,5.5222,5.5901,5.6332,5.6442,5.5685,5.4301,5.9277,5.9336,0.0,0.0,5.998,0.0,6.0495,6.1174,6.1701,6.1701,6.1701,6.1701,6.1701,6.1701,6.1681,6.1622,0.0,0.0,0.0,5.7329,5.6242,5.6097,5.5959,5.5845,5.5684,5.5573,5.5504,5.548,5.6186,5.6511,5.653,5.7351,5.7294,5.6511,5.6511,5.6091,5.5403,5.5403,5.6339,5.781,5.7886,5.8861,6.0313,6.037,6.0389,6.0389,6.0389,6.0389,6.0389,6.0389,6.0389,6.0389,6.0389,6.0389,6.0389,6.0389,6.0389,6.0237,5.9432,5.9215,5.9026,5.8186,5.7997,5.7997,5.7997,5.7997,5.7997,5.7997,5.7997,5.7997,5.7997,5.7997,5.7997,5.7997,5.7802,5.7332,5.6416,0.0,5.4484,0.0,0.0,0.0,0.0,5.2498,5.2498,0.0,0.0,0.0,0.0,0.0,5.4001,5.4798,5.4834,5.5178,5.5921,5.5876,5.6158,5.6794,5.6546,5.6401,5.6401,5.6401,5.6014,5.5266,5.4641,5.4008,5.3315,5.339,5.3417,5.3549,5.499,5.5554,5.5636,5.6255,5.5247,5.3538,0.0,0.0,6.1113,6.1113,6.1269,6.1384,6.1393,6.1564,6.1701,6.1701,6.1701,6.1701,6.1701,6.1701,6.1427,6.0764,5.9729,5.9104,5.9104,5.7329,5.6242,5.6097,5.5959,5.5845,5.5684,5.5573,5.5476,5.5434,5.5619,5.5689,5.5689,5.5899,5.588,5.5689,5.5689,5.5575,5.5403,5.5403,5.5976,5.6969,5.7619,5.8517,5.9491,6.0141,6.0389,6.0389,6.0389,6.0389,6.0389,6.0389,6.0389,6.0389,6.0389,6.0389,6.0389,6.0389,6.0389,6.0237,5.9432,5.9215,5.9026,5.8186,5.7997,5.7997,5.7997,5.7997,5.7997,5.7997,5.7997,5.7997,5.7997,5.7997,5.7997,5.7997,5.7102,5.6122,5.516,5.3853,0.0,0.0,5.1744,5.1817,5.1817,5.2228,5.2498,0.0,0.0,0.0,0.0,5.2679,5.315,5.3965,5.3983,5.4363,5.516,5.5672,5.6241,5.6794,5.6653,5.6492,5.6401,5.6401,5.5769,5.4641,5.4454,5.3698,5.269,5.3191,5.3417,5.35,5.4427,5.4775,5.4783,5.4845,5.4098,5.2995,6.0996,6.1387,6.1699,6.1699,6.1697,6.1707,6.1697,6.1705,6.1701,6.1701,6.1701,6.1701,6.1701,6.1349,6.092,6.0432,5.9592,5.8929,5.8538,5.7205,5.6371,5.6191,5.6057,5.593,5.5789,5.5621,5.5499,5.5415,5.5415,5.5409,5.5403,5.5403,5.5403,5.5403,5.5403,5.5403,5.5403,5.5403,5.5861,5.6683,5.7542,5.8383,5.9205,6.0064,6.0389,6.0389,6.0389,6.0389,6.0389,6.0389,6.0389,6.0389,6.0389,6.0389,6.0389,6.0389,6.0285,5.9988,5.9361,5.9065,5.8791,5.816,5.7997,5.7997,5.7997,5.7997,5.7997,5.7997,5.7997,5.7932,5.766,5.7613,5.7498,5.7234,5.6295,5.5281,5.4287,5.3156,0.0,5.1141,5.1122,5.1209,5.1209,5.1482,5.1701,5.1701,5.1701,0.0,5.2048,5.2114,5.2426,5.3132,5.315,5.3548,5.4345,5.5401,5.6061,5.6359,5.658,5.66,5.6492,5.6182,5.5443,5.4391,5.4089,5.3399,5.2407,5.2788,5.2937,5.3019,5.3732,5.4013,5.3948,5.386,5.3214,5.2387,6.1699,6.1699,6.1699,6.1698,6.1704,6.1705,6.1704,6.1694,6.1701,6.1701,6.1701,6.1701,6.1701,6.092,6.0354,6.0217,5.9417,5.8597,5.7855,5.7055,5.6503,5.6316,5.6169,5.6049,5.5896,5.5688,5.5527,5.5408,5.5383,5.5396,5.5403,5.5403,5.5403,5.5403,5.5403,5.5403,5.5403,5.5403,5.5785,5.6492,5.7351,5.8192,5.9014,5.9873,6.0274,6.0389,6.0389,6.0389,6.0389,6.0389,6.0389,6.0389,6.0389,6.0389,6.0389,6.0313,6.0019,5.9639,5.927,5.8852,5.8437,5.807,5.7997,5.7997,5.7997,5.7997,5.7997,5.7997,5.7997,5.7839,5.7216,5.7116,5.6858,5.6224,5.5365,5.451,5.3584,0.0,5.1668,5.0855,5.0678,5.0589,5.0589,5.0643,5.0697,5.0697,5.0697,5.0911,5.1449,5.1432,5.1719,5.2209,5.2387,5.2878,5.3693,5.49,5.5505,5.5631,5.6341,5.6562,5.6421,5.5851,5.5172,5.4374,5.3698,5.3008,5.2373,5.2373,5.2373,5.244,5.3036,5.3251,5.3188,5.3034,5.2397,5.1663,6.1699,6.1699,6.1698,6.1697,6.1705,6.1701,6.1705,6.1701,6.1701,6.1701,6.1701,6.1701,6.1701,6.092,6.01,5.9378,5.8499,5.7933,5.7816,5.7055,5.6503,5.6316,5.6169,5.6049,5.5896,5.5645,5.548,5.5408,5.5415,5.5403,5.5403,5.5403,5.5403,5.5403,5.5403,5.5403,5.5403,5.5403,5.5479,5.567,5.6473,5.7313,5.8173,5.8994,5.9759,6.0389,6.0389,6.0389,6.0389,6.0389,6.0389,6.0389,6.0389,6.0389,6.0342,5.9988,5.9605,5.9289,5.9215,5.8646,5.807,5.7997,5.7997,5.7997,5.7997,5.7997,5.7997,5.7997,5.7997,5.7839,5.7216,5.7116,5.6729,5.5455,5.4221,5.313,5.2373,0.0,4.9887,4.9767,4.989,5.0045,5.0045,5.0442,5.0697,5.0697,5.0697,5.0751,5.0805,5.0858,5.0858,5.0964,5.1982,5.2878,5.3693,5.3947,5.4285,5.4769,5.5563,5.5872,5.5754,5.5659,5.5214,5.4544,5.3747,5.3008,5.2373,5.2373,5.2373,5.239,5.2489,5.2539,5.2461,5.1561,5.1087,5.0872,6.1699,6.1699,6.1698,6.1709,6.1701,6.1701,6.1701,6.1701,6.1701,6.1701,6.1291,6.0998,6.0998,5.9807,5.8831,5.8421,5.7641,5.7153,5.7153,5.6801,5.6503,5.6316,5.6169,5.6005,5.5808,5.5665,5.5573,5.5504,5.5451,5.5421,5.5396,5.5384,5.5403,5.5403,5.5403,5.5403,5.5441,5.5861,5.6052,5.6167,5.7428,5.8192,5.8651,5.9472,6.0045,6.0389,6.0389,6.0389,6.0389,6.0389,6.0389,6.0389,6.0389,6.0389,6.0313,5.9906,5.9342,5.8831,5.8605,5.8301,5.7997,5.7997,5.7997,5.7997,5.7997,5.7997,5.7997,5.7997,5.7726,5.7333,5.6739,5.6421,5.5733,5.4407,5.3306,0.0,0.0,5.0349,4.9547,4.959,4.9513,4.9436,4.9496,4.9698,4.9797,4.9797,4.9797,4.9913,5.0237,5.0293,5.0387,5.068,5.1243,5.2046,5.3041,5.3153,5.3365,5.3623,5.4445,5.4811,5.4717,5.4231,5.4084,5.399,5.3196,5.2711,5.2373,5.2373,5.2373,5.2373,5.2373,5.2142,5.154,5.0657,4.9974,4.9512,6.1699,6.1699,6.1698,6.1701,6.1705,6.1701,6.1701,6.1701,6.1622,6.1427,6.0822,6.0315,6.0119,5.8714,5.7797,5.7797,5.7055,5.6606,5.6606,5.6558,5.6472,5.6316,5.6135,5.5927,5.5724,5.5684,5.564,5.5596,5.5527,5.548,5.5432,5.5415,5.5409,5.5409,5.5594,5.5689,5.5728,5.6549,5.6893,5.7008,5.8307,5.8937,5.9185,5.9835,6.0217,6.0389,6.0389,6.0389,6.0389,6.0389,6.0389,6.0389,6.0285,6.0266,6.0159,5.9692,5.9008,5.8394,5.807,5.7997,5.7997,5.7997,5.7997,5.7997,5.7997,5.7997,5.795,5.7821,5.7431,5.6894,5.6221,5.5574,5.4699,5.3358,0.0,0.0,0.0,5.0103,4.959,4.9708,4.929,4.9063,4.9168,4.9063,4.9001,4.9001,4.9001,4.9229,4.9674,4.9656,4.9913,5.0497,5.0643,5.1139,5.2096,5.2208,5.2287,5.2287,5.3122,5.3617,5.3737,5.3053,5.3062,5.3632,5.2764,5.2373,5.2373,5.2373,5.2373,5.2373,5.2373,5.1908,5.0951,5.0135,4.9262,4.8567,6.1699,6.1699,6.1699,6.1699,6.1704,6.1701,6.1701,6.1701,6.1408,6.0607,6.0432,6.008,5.928,5.8363,5.7797,5.7797,5.7055,5.6606,5.6606,5.6439,5.6316,5.6288,5.6044,5.5864,5.5684,5.564,5.5596,5.5596,5.5527,5.5504,5.5504,5.5432,5.5383,5.5421,5.6174,5.6511,5.6568,5.7428,5.7791,5.781,5.7944,5.844,5.9109,5.9185,5.9701,6.0389,6.0389,6.0389,6.0389,6.0389,6.0389,6.0342,5.9937,5.9842,5.9692,5.893,5.8369,5.8042,5.7997,5.7997,5.7997,5.7997,5.7997,5.7997,5.7997,5.7997,5.7821,5.7284,5.7116,5.6791,5.5658,5.4828,5.3877,5.2529,0.0,0.0,5.0183,4.9818,4.9708,4.9708,4.9411,4.9168,4.9229,4.9063,4.9001,4.9001,4.9001,4.9001,4.9063,4.9063,4.9333,4.993,5.0442,5.0751,5.0858,5.0858,5.0822,5.0839,5.1684,5.2403,5.3081,5.2795,5.3143,5.3847,5.2834,5.2373,5.2373,5.2373,5.2373,5.2373,5.2373,5.1908,5.0951,5.0135,4.9262,4.849,6.1699,6.1699,6.1699,6.1699,6.1694,6.1522,6.0978,6.0881,6.0588,5.971,5.9124,5.8656,5.8324,5.7543,5.7055,5.7055,5.6782,5.6553,5.642,5.6352,5.6232,5.6057,5.588,5.5748,5.5703,5.5682,5.5662,5.5662,5.5596,5.5551,5.5523,5.5968,5.6167,5.6174,5.7034,5.7409,5.7466,5.8288,5.8651,5.8689,5.9224,5.9625,5.9911,5.9911,6.0102,6.0389,6.0389,6.0389,6.0361,6.0099,6.0019,5.9956,5.9537,5.9432,5.9306,5.8772,5.8344,5.7997,5.7997,5.7997,5.7997,5.7997,5.7997,5.7997,5.7997,5.7708,5.7382,5.7166,5.6528,5.5925,5.5502,5.4493,5.3385,5.2339,0.0,5.0856,5.0114,4.986,4.9784,4.986,4.9607,4.9411,4.953,4.929,4.9107,4.9107,4.9063,4.9001,4.9001,4.9001,4.9124,4.9333,4.9538,5.0011,5.068,5.0387,5.0181,5.0198,5.0476,5.08,5.107,5.1363,5.1798,5.2404,5.237,5.2373,5.2373,5.2373,5.2373,5.2373,5.2373,5.1582,5.0213,4.9884,4.8953,4.7779,6.1348,6.1289,6.1211,6.0955,6.0891,6.0689,6.0085,5.9983,5.9671,5.8812,5.8168,5.7699,5.7445,5.6938,5.6606,5.6606,5.6533,5.6446,5.6316,5.6212,5.6084,5.5896,5.5769,5.5703,5.5703,5.5703,5.5703,5.5703,5.5929,5.5999,5.5996,5.6789,5.7161,5.7149,5.7939,5.8295,5.8353,5.9166,5.951,5.9568,6.016,6.0389,6.0389,6.0389,6.0389,6.0389,6.0256,6.0207,6.0159,5.9758,5.9605,5.9537,5.9122,5.893,5.875,5.8479,5.8231,5.7997,5.7997,5.7997,5.7997,5.7997,5.7839,5.7726,5.7726,5.7284,5.6809,5.6634,5.5925,5.5343,5.5164,5.3975,5.2856,5.2304,5.1407,5.0597,5.008,4.986,4.986,4.9993,4.9742,4.959,4.9708,4.9471,4.929,4.9229,4.9107,4.9063,4.9001,4.9001,4.9001,4.9001,4.9001,4.9376,5.0163,4.9815,4.9615,4.9615,4.9615,4.9725,4.9961,5.0206,5.0827,5.161,5.1934,5.2175,5.2373,5.2373,5.2214,5.198,5.198,5.0935,4.9423,4.9423,4.8558,4.7309,6.0566,6.039,6.0135,5.9347,5.9143,5.9107,5.9089,5.9085,5.8773,5.7894,5.7797,5.7484,5.6684,5.6606,5.6606,5.6606,5.6413,5.6308,5.6308,5.6063,5.5915,5.5915,5.5769,5.5703,5.5703,5.5703,5.5703,5.5703,5.6569,5.6992,5.703,5.7828,5.8208,5.8246,5.893,5.9197,5.9255,6.0054,6.0389,6.0389,6.0389,6.0389,6.0389,6.0389,6.0389,6.0342,5.9937,5.9791,5.9725,5.9325,5.9215,5.914,5.871,5.8326,5.7997,5.7997,5.7997,5.7997,5.7997,5.7997,5.7997,5.7997,5.7565,5.7116,5.7116,5.6686,5.6111,5.5502,5.5402,5.5224,5.4603,5.3253,5.2218,5.2218,5.0976,5.0011,5.0011,5.0011,5.0011,5.0011,4.9842,4.9708,4.9708,4.959,4.9428,4.9229,4.9229,4.9107,4.9001,4.9001,4.9001,4.9001,4.9001,4.9001,4.9001,4.9001,4.9001,4.9001,4.9001,4.9373,5.0084,4.9718,5.0392,5.1781,5.1472,5.1694,5.2373,5.2373,5.1908,5.1118,5.1118,5.0073,4.8573,4.8573,4.8019,4.7309,5.9609,5.9551,5.9471,5.923,5.9132,5.8898,5.8289,5.8187,5.7894,5.7074,5.6957,5.6879,5.6626,5.6472,5.6386,5.6386,5.6242,5.6122,5.6035,5.5844,5.5768,5.5768,5.5726,5.5703,5.5703,5.5703,5.5992,5.6607,5.6857,5.7277,5.7847,5.8669,5.9029,5.8999,5.9837,6.0169,6.0135,6.0357,6.0444,6.0389,6.0389,6.0389,6.0389,6.0389,6.0237,5.9937,5.9842,5.9605,5.9325,5.893,5.8791,5.871,5.8301,5.8115,5.7997,5.7997,5.7997,5.7997,5.7997,5.7997,5.7997,5.7997,5.7565,5.7116,5.7116,5.6367,5.5618,5.5443,5.5061,5.4572,5.3884,5.2908,5.2046,5.1528,5.0631,5.0011,5.0011,5.0011,5.0011,5.0011,4.9935,4.9935,4.9935,4.9666,4.9488,4.9428,4.9168,4.9063,4.9001,4.9001,4.9001,4.9001,4.9001,4.9001,4.9001,4.9001,4.9001,4.9001,4.9001,4.8979,4.9009,4.9419,4.9992,5.0689,5.1118,5.1378,5.1508,5.1508,5.0951,5.0213,5.0213,4.9519,4.8573,4.8573,4.8019,4.7309,5.8671,5.8613,5.8514,5.8225,5.8137,5.7933,5.7406,5.7328,5.7153,5.6665,5.6528,5.6478,5.6478,5.6327,5.6212,5.6212,5.6097,5.5959,5.5827,5.6076,5.6203,5.6203,5.653,5.6569,5.6222,5.6203,5.6626,5.7511,5.7819,5.8239,5.8735,5.9561,5.9941,5.9912,6.0424,6.0604,6.0552,6.0525,6.0472,6.0389,6.0389,6.0313,6.0159,6.0159,5.9906,5.9537,5.9378,5.9159,5.8891,5.8479,5.8369,5.8326,5.807,5.7997,5.7997,5.7997,5.7997,5.7997,5.7997,5.7839,5.766,5.766,5.7234,5.6739,5.6474,5.5716,5.5061,5.5061,5.4728,5.4287,5.3546,5.2753,5.1977,5.1235,5.0493,5.0011,5.0011,5.0011,5.0011,5.0011,5.0011,5.0011,5.0011,4.9725,4.953,4.9411,4.9107,4.9001,4.9001,4.9001,4.9001,4.9001,4.9001,4.9001,4.9001,4.8719,4.8719,4.9001,4.9001,4.8877,4.8644,4.9016,4.9393,4.9842,5.0183,5.0416,5.0631,5.0631,5.0057,4.9343,4.9343,4.8805,4.8103,4.8103,4.7779,4.7309,5.7723,5.7576,5.736,5.6683,5.6567,5.6553,5.6553,5.6553,5.6553,5.6553,5.6406,5.6279,5.6279,5.6158,5.6084,5.6084,5.6036,5.5981,5.5936,5.6665,5.7107,5.7107,5.7877,5.7953,5.7242,5.7146,5.753,5.8415,5.9146,5.955,5.9627,6.0435,6.08,6.08,6.0753,6.066,6.0604,6.0525,6.0444,6.0342,6.0313,6.0099,5.9758,5.9758,5.9502,5.9084,5.875,5.8586,5.8479,5.8097,5.7997,5.7997,5.7997,5.7997,5.7997,5.7997,5.7997,5.7997,5.7932,5.7498,5.7065,5.6946,5.6581,5.6055,5.5502,5.4957,5.4512,5.4512,5.4512,5.4253,5.3442,5.2701,5.1959,5.1149,5.0442,5.0011,5.0011,5.0011,5.0011,5.0011,5.0011,5.0011,5.0011,4.9784,4.953,4.9229,4.9063,4.9001,4.894,4.894,4.894,4.8798,4.8877,4.8861,4.8798,4.8161,4.8161,4.8923,4.8798,4.8736,4.8564,4.8403,4.8596,4.9037,4.8877,4.9149,4.9726,4.9726,4.9197,4.849,4.849,4.8019,4.7309,4.7309,4.7309,4.7309,5.664,5.6602,5.6547,5.6317,5.629,5.6283,5.6208,5.622,5.622,5.622,5.6178,5.6146,5.6146,5.6015,5.5946,5.5946,5.6445,5.7056,5.7684,5.7915,5.8011,5.8011,5.8204,5.8511,5.8954,5.8338,5.8415,5.9242,5.9415,5.9858,6.0512,6.0704,6.08,6.08,6.08,6.0734,6.066,6.0387,6.0169,6.0,5.9711,5.9486,5.9325,5.9325,5.9084,5.871,5.8628,5.8412,5.8115,5.8042,5.7997,5.7997,5.7997,5.7997,5.7997,5.7997,5.7997,5.7886,5.7431,5.7216,5.6894,5.5981,5.5658,5.556,5.5443,5.4957,5.4512,5.4512,5.4512,5.4098,5.2718,5.2339,5.1787,5.0459,5.0114,5.0011,5.0011,5.0011,5.0011,5.0011,5.0011,5.0011,5.0011,4.9742,4.9488,4.9229,4.9063,4.8736,4.8161,4.8656,4.845,4.7288,4.7836,4.7819,4.7288,4.7085,4.7422,4.8161,4.7556,4.7085,4.6795,4.6726,4.7203,4.8036,4.7961,4.8293,4.8872,4.8872,4.8324,4.7538,4.7538,4.7467,4.7309,4.7309,4.7309,4.7207,5.7441,5.7435,5.7424,5.7446,5.745,5.7426,5.7346,5.7327,5.7327,5.7327,5.7271,5.7246,5.7246,5.7117,5.7043,5.7043,5.7403,5.7819,5.828,5.8665,5.8877,5.8877,5.9281,5.9685,6.0108,5.9704,5.9704,6.0127,6.0127,6.0339,6.08,6.08,6.08,6.08,6.0641,6.052,6.0441,6.0091,5.9855,5.9673,5.9521,5.9307,5.9102,5.9045,5.8769,5.8388,5.8344,5.8186,5.7997,5.7997,5.7997,5.7997,5.7997,5.7997,5.7997,5.7997,5.7774,5.7498,5.7166,5.6686,5.6148,5.556,5.5164,5.4939,5.4939,5.4728,5.4512,5.4512,5.4512,5.4046,5.2494,5.2218,5.1735,5.0252,5.0011,5.0011,5.0011,5.0011,5.0011,5.0011,5.0011,4.9935,4.986,4.9666,4.9273,4.8748,4.856,4.8177,4.7406,4.777,4.7572,4.6811,4.7153,4.7221,4.6811,4.6464,4.6464,4.6864,4.6726,4.6518,4.6221,4.608,4.6481,4.7123,4.7123,4.7457,4.8019,4.8019,4.7694,4.7309,4.7309,4.7309,4.7207,4.6741,4.627,4.566,5.8679,5.8679,5.8697,5.8729,5.8726,5.8723,5.8638,5.8634,5.8634,5.8634,5.8523,5.8471,5.8471,5.837,5.8357,5.8492,5.8511,5.8569,5.8723,5.9358,5.9665,5.9511,6.0185,6.0512,6.0377,6.0358,6.0435,6.0569,6.0569,6.0512,6.0377,6.0512,6.0546,6.0498,6.0365,6.0237,6.0121,5.9777,5.9521,5.9416,5.938,5.914,5.8884,5.8766,5.8492,5.8197,5.8088,5.7997,5.7997,5.7997,5.7997,5.7997,5.7997,5.7932,5.7839,5.7839,5.7449,5.6946,5.6843,5.6148,5.5402,5.5284,5.4896,5.4512,5.4512,5.4512,5.4512,5.4512,5.4408,5.3891,5.2477,5.2114,5.158,5.0235,5.0011,5.0011,5.0011,5.0011,5.0011,5.0011,5.0011,4.9935,4.9708,4.959,4.9135,4.8175,4.7998,4.7556,4.6673,4.6742,4.6673,4.6394,4.6534,4.6534,4.6394,4.5841,4.5494,4.5494,4.5897,4.5953,4.5809,4.5649,4.5828,4.6303,4.6303,4.6689,4.7309,4.7309,4.7309,4.7309,4.7121,4.7019,4.6916,4.5883,4.4875,4.37,5.8604,5.8604,5.8586,5.8472,5.8452,5.8432,5.837,5.8349,5.8349,5.8349,5.8346,5.8325,5.8325,5.8322,5.8588,5.9281,5.9338,5.9665,6.0416,6.055,6.0281,5.9531,5.9608,5.9358,5.8646,5.8646,5.8973,5.9685,5.9685,5.9319,5.8646,5.9358,5.9528,5.9278,5.9996,6.0131,5.9823,5.9432,5.9215,5.9121,5.8766,5.8553,5.8462,5.8462,5.8331,5.8197,5.8197,5.8088,5.7997,5.7997,5.7997,5.7997,5.7997,5.766,5.7216,5.7216,5.6861,5.6276,5.5773,5.5502,5.5284,5.4728,5.4557,5.4512,5.4512,5.4512,5.4512,5.4512,5.3994,5.327,5.239,5.1701,5.0976,5.0149,5.0011,5.0011,5.0011,5.0011,5.0011,5.0011,5.0011,4.9935,4.9708,4.959,4.9135,4.8175,4.7998,4.7272,4.5897,4.6464,4.6182,4.4933,4.5494,4.5551,4.4933,4.4783,4.4648,4.4496,4.4419,4.4343,4.4266,4.4112,4.4527,4.544,4.544,4.6137,4.7309,4.7309,4.7309,4.7207,4.6344,4.5973,4.5883,4.4854,4.3509,4.2194,5.9223,5.9301,5.9399,5.9763,5.9817,5.9755,5.9727,5.9704,5.9704,5.9704,5.9704,5.9704,5.9704,5.9704,5.9646,5.9511,5.9492,5.9473,5.9415,5.9396,5.9223,5.8858,5.8838,5.8665,5.8319,5.83,5.8242,5.8088,5.8588,5.8646,5.83,5.8467,5.8477,5.8345,5.8342,5.8259,5.8129,5.8222,5.8215,5.8231,5.8494,5.8572,5.8548,5.8437,5.8375,5.8356,5.8242,5.8088,5.7997,5.7997,5.7774,5.7498,5.7498,5.7116,5.6634,5.6634,5.6276,5.5733,5.5443,5.5164,5.4834,5.4557,5.4512,5.4512,5.4512,5.4512,5.4512,5.4512,5.3908,5.3166,5.2356,5.1614,5.0873,5.0131,5.0011,5.0011,5.0011,5.0011,5.0011,5.0011,5.0011,4.9935,4.9708,4.9195,4.8526,4.7556,4.6968,4.6237,4.5142,4.5421,4.5274,4.4648,4.4933,4.4933,4.4572,4.4572,4.4496,4.4281,4.4143,4.391,4.3847,4.3972,4.4488,4.5319,4.5708,4.6411,4.7309,4.7309,4.7309,4.7207,4.6166,4.4915,4.3594,4.3128,4.1924,4.0558]},{"header":{"parameterUnit":"m.s-1","parameterCategory":1,"la1":30.6,"la2":28.766,"lo1":-90.7593,"lo2":-88.6598,"dy":0.0162,"dx":0.0183,"nx":116,"ny":114,"refTime":"2024-04-18T06:00:00:Z","depth":0,"parameterNumber":3,"parameterNumberName":"V-component_of_WINDS"},"data":[0.0,0.0,0.0,0.0,0.0,0.0,0.0,0.0,0.0,0.0,0.0,0.0,0.0,0.0,0.0,0.0,0.0,0.0,0.0,0.0,0.0,0.0,0.0,0.0,0.0,0.0,0.0,0.0,0.0,0.0,0.0,0.0,0.0,0.0,0.0,0.0,0.0,0.0,0.0,0.0,0.0,0.0,0.0,0.0,0.0,0.0,0.0,0.0,0.0,0.0,0.0,0.0,0.0,0.0,0.0,0.0,0.0,0.0,0.0,0.0,0.0,0.0,0.0,0.0,0.0,0.0,0.0,0.0,0.0,0.0,0.0,0.0,0.0,0.0,0.0,0.0,0.0,0.0,0.0,0.0,0.0,0.0,0.0,0.0,0.0,0.0,0.0,0.0,0.0,0.0,0.0,0.0,0.0,0.0,0.0,0.0,0.0,0.0,0.0,0.0,0.0,0.0,0.0,0.0,0.0,0.0,0.0,0.0,0.0,0.0,0.0,0.0,0.0,0.0,0.0,0.0,0.0,0.0,0.0,0.0,0.0,0.0,0.0,0.0,0.0,0.0,0.0,0.0,0.0,0.0,0.0,0.0,0.0,0.0,0.0,0.0,0.0,0.0,0.0,0.0,0.0,0.0,0.0,0.0,0.0,0.0,0.0,0.0,0.0,0.0,0.0,0.0,0.0,0.0,0.0,0.0,0.0,0.0,0.0,0.0,0.0,0.0,0.0,0.0,0.0,0.0,0.0,0.0,0.0,0.0,0.0,0.0,0.0,0.0,0.0,0.0,0.0,0.0,0.0,0.0,0.0,0.0,0.0,0.0,0.0,0.0,0.0,0.0,0.0,0.0,0.0,0.0,0.0,0.0,0.0,0.0,0.0,0.0,0.0,0.0,0.0,0.0,0.0,0.0,0.0,0.0,0.0,0.0,0.0,0.0,0.0,0.0,0.0,0.0,0.0,0.0,0.0,0.0,0.0,0.0,0.0,0.0,0.0,0.0,0.0,0.0,0.0,0.0,0.0,0.0,0.0,0.0,0.0,0.0,0.0,0.0,0.0,0.0,0.0,0.0,0.0,0.0,0.0,0.0,0.0,0.0,0.0,0.0,0.0,0.0,0.0,0.0,0.0,0.0,0.0,0.0,0.0,0.0,0.0,0.0,0.0,0.0,0.0,0.0,0.0,0.0,0.0,0.0,0.0,0.0,0.0,0.0,0.0,0.0,0.0,0.0,0.0,0.0,0.0,0.0,0.0,0.0,0.0,0.0,0.0,0.0,0.0,0.0,0.0,0.0,0.0,0.0,0.0,0.0,0.0,0.0,0.0,0.0,0.0,0.0,0.0,0.0,0.0,0.0,0.0,0.0,0.0,0.0,0.0,0.0,0.0,0.0,0.0,0.0,0.0,0.0,0.0,0.0,0.0,0.0,0.0,0.0,0.0,0.0,0.0,0.0,0.0,0.0,0.0,0.0,0.0,0.0,0.0,0.0,0.0,0.0,0.0,0.0,0.0,0.0,0.0,0.0,0.0,0.0,0.0,0.0,0.0,0.0,0.0,0.0,0.0,0.0,0.0,0.0,0.0,0.0,0.0,0.0,0.0,0.0,0.0,0.0,0.0,0.0,0.0,0.0,0.0,0.0,0.0,0.0,0.0,0.0,0.0,0.0,0.0,0.0,0.0,0.0,0.0,0.0,0.0,0.0,0.0,0.0,0.0,0.0,0.0,0.0,0.0,0.0,0.0,0.0,0.0,0.0,0.0,0.0,0.0,0.0,0.0,0.0,0.0,0.0,0.0,0.0,0.0,0.0,0.0,0.0,0.0,0.0,0.0,0.0,0.0,0.0,0.0,0.0,0.0,0.0,0.0,0.0,0.0,0.0,0.0,0.0,0.0,0.0,0.0,0.0,0.0,0.0,0.0,0.0,0.0,0.0,0.0,0.0,0.0,0.0,0.0,0.0,0.0,0.0,0.0,0.0,0.0,0.0,0.0,0.0,0.0,0.0,0.0,0.0,0.0,0.0,0.0,0.0,0.0,0.0,0.0,0.0,0.0,0.0,0.0,0.0,0.0,0.0,0.0,0.0,0.0,0.0,0.0,0.0,0.0,0.0,0.0,0.0,0.0,0.0,0.0,0.0,0.0,0.0,0.0,0.0,0.0,0.0,0.0,0.0,0.0,0.0,0.0,0.0,0.0,0.0,0.0,0.0,0.0,0.0,0.0,0.0,0.0,0.0,0.0,0.0,0.0,0.0,0.0,0.0,0.0,0.0,0.0,0.0,0.0,0.0,0.0,0.0,0.0,0.0,0.0,0.0,0.0,0.0,0.0,0.0,0.0,0.0,0.0,0.0,0.0,0.0,0.0,0.0,0.0,0.0,0.0,0.0,0.0,0.0,0.0,0.0,0.0,0.0,0.0,0.0,0.0,0.0,0.0,0.0,0.0,0.0,0.0,0.0,0.0,0.0,0.0,0.0,0.0,0.0,0.0,0.0,0.0,0.0,0.0,0.0,0.0,0.0,0.0,0.0,0.0,0.0,0.0,0.0,0.0,0.0,0.0,0.0,0.0,0.0,0.0,0.0,0.0,0.0,0.0,0.0,0.0,0.0,0.0,0.0,0.0,0.0,0.0,0.0,0.0,0.0,0.0,0.0,0.0,0.0,0.0,0.0,0.0,0.0,0.0,0.0,0.0,0.0,0.0,0.0,0.0,0.0,0.0,0.0,0.0,0.0,0.0,0.0,0.0,0.0,0.0,0.0,0.0,0.0,0.0,0.0,0.0,0.0,0.0,0.0,0.0,0.0,0.0,0.0,0.0,0.0,0.0,0.0,0.0,0.0,0.0,0.0,0.0,0.0,0.0,0.0,0.0,0.0,0.0,0.0,0.0,0.0,0.0,0.0,0.0,0.0,0.0,0.0,0.0,0.0,0.0,0.0,0.0,0.0,0.0,0.0,0.0,0.0,0.0,0.0,0.0,0.0,0.0,0.0,0.0,0.0,0.0,0.0,0.0,0.0,0.0,0.0,0.0,0.0,0.0,0.0,0.0,0.0,0.0,0.0,0.0,0.0,0.0,0.0,0.0,0.0,0.0,0.0,0.0,0.0,0.0,0.0,0.0,0.0,0.0,0.0,0.0,0.0,0.0,0.0,0.0,0.0,0.0,0.0,0.0,0.0,0.0,0.0,0.0,0.0,0.0,0.0,0.0,0.0,0.0,0.0,0.0,0.0,0.0,0.0,0.0,0.0,0.0,0.0,0.0,0.0,0.0,0.0,0.0,0.0,0.0,0.0,0.0,0.0,0.0,0.0,0.0,0.0,0.0,0.0,0.0,0.0,0.0,0.0,0.0,0.0,0.0,0.0,0.0,0.0,0.0,0.0,0.0,0.0,0.0,0.0,0.0,0.0,0.0,0.0,0.0,0.0,0.0,0.0,0.0,0.0,0.0,0.0,0.0,0.0,0.0,0.0,0.0,0.0,0.0,0.0,0.0,0.0,0.0,0.0,0.0,0.0,0.0,0.0,0.0,0.0,0.0,0.0,0.0,0.0,0.0,0.0,0.0,0.0,0.0,0.0,0.0,0.0,0.0,0.0,0.0,0.0,0.0,0.0,0.0,0.0,0.0,0.0,0.0,0.0,0.0,0.0,0.0,0.0,0.0,0.0,0.0,0.0,0.0,0.0,0.0,0.0,0.0,0.0,0.0,0.0,0.0,0.0,0.0,0.0,0.0,0.0,0.0,0.0,0.0,0.0,0.0,0.0,0.0,0.0,0.0,0.0,0.0,0.0,0.0,0.0,0.0,0.0,0.0,0.0,0.0,0.0,0.0,0.0,0.0,0.0,0.0,0.0,0.0,0.0,0.0,0.0,0.0,0.0,0.0,0.0,0.0,0.0,0.0,0.0,0.0,0.0,0.0,0.0,0.0,0.0,0.0,0.0,0.0,0.0,0.0,0.0,0.0,0.0,0.0,0.0,0.0,0.0,0.0,0.0,0.0,0.0,0.0,0.0,0.0,0.0,0.0,0.0,0.0,0.0,0.0,0.0,0.0,0.0,0.0,0.0,0.0,0.0,0.0,0.0,0.0,0.0,0.0,0.0,0.0,0.0,0.0,0.0,0.0,0.0,0.0,0.0,0.0,0.0,0.0,0.0,0.0,0.0,0.0,0.0,0.0,0.0,0.0,0.0,0.0,0.0,0.0,0.0,0.0,0.0,0.0,0.0,0.0,0.0,0.0,0.0,0.0,0.0,0.0,0.0,0.0,0.0,0.0,0.0,0.0,0.0,0.0,0.0,0.0,0.0,0.0,0.0,0.0,0.0,0.0,0.0,0.0,0.0,0.0,0.0,0.0,0.0,0.0,0.0,0.0,0.0,0.0,0.0,0.0,0.0,0.0,0.0,0.0,0.0,0.0,0.0,0.0,0.0,0.0,0.0,0.0,0.0,0.0,0.0,0.0,0.0,0.0,0.0,0.0,0.0,0.0,0.0,0.0,0.0,0.0,0.0,0.0,0.0,0.0,0.0,0.0,0.0,0.0,0.0,0.0,0.0,0.0,0.0,0.0,0.0,0.0,0.0,0.0,0.0,0.0,0.0,0.0,0.0,0.0,0.0,0.0,0.0,0.0,0.0,0.0,0.0,0.0,0.0,0.0,0.0,0.0,0.0,0.0,0.0,0.0,0.0,0.0,0.0,0.0,0.0,0.0,0.0,0.0,0.0,0.0,0.0,0.0,0.0,0.0,0.0,0.0,0.0,0.0,0.0,0.0,0.0,0.0,0.0,0.0,0.0,0.0,0.0,0.0,0.0,0.0,0.0,0.0,0.0,0.0,0.0,0.0,0.0,0.0,0.0,0.0,0.0,0.0,0.0,0.0,0.0,0.0,0.0,0.0,0.0,0.0,0.0,0.0,0.0,0.0,0.0,0.0,0.0,0.0,0.0,0.0,0.0,0.0,0.0,0.0,0.0,0.0,0.0,0.0,0.0,0.0,0.0,0.0,0.0,0.0,0.0,0.0,0.0,0.0,0.0,0.0,0.0,0.0,0.0,0.0,0.0,0.0,0.0,0.0,0.0,0.0,0.0,0.0,0.0,0.0,0.0,0.0,0.0,0.0,0.0,0.0,0.0,0.0,0.0,0.0,0.0,0.0,0.0,0.0,0.0,0.0,0.0,0.0,0.0,0.0,0.0,0.0,0.0,0.0,0.0,0.0,0.0,0.0,0.0,0.0,0.0,0.0,0.0,0.0,0.0,0.0,0.0,0.0,0.0,0.0,0.0,0.0,0.0,0.0,0.0,0.0,0.0,0.0,0.0,0.0,0.0,0.0,0.0,0.0,0.0,0.0,0.0,0.0,0.0,0.0,0.0,0.0,0.0,0.0,0.0,0.0,0.0,0.0,0.0,0.0,0.0,0.0,0.0,0.0,0.0,0.0,0.0,0.0,0.0,0.0,0.0,0.0,0.0,0.0,0.0,0.0,0.0,0.0,0.0,0.0,0.0,0.0,0.0,0.0,0.0,0.0,0.0,0.0,0.0,0.0,0.0,0.0,0.0,0.0,0.0,0.0,0.0,0.0,0.0,0.0,0.0,0.0,0.0,0.0,0.0,0.0,0.0,0.0,0.0,0.0,0.0,0.0,0.0,0.0,0.0,0.0,0.0,0.0,0.0,0.0,0.0,0.0,0.0,0.0,0.0,0.0,0.0,0.0,0.0,0.0,0.0,0.0,0.0,0.0,0.0,0.0,0.0,0.0,0.0,0.0,0.0,0.0,0.0,0.0,0.0,0.0,0.0,0.0,0.0,0.0,0.0,0.0,0.0,0.0,0.0,0.0,0.0,0.0,0.0,0.0,0.0,0.0,0.0,0.0,0.0,0.0,0.0,0.0,0.0,0.0,0.0,0.0,0.0,0.0,0.0,0.0,0.0,0.0,0.0,0.0,0.0,0.0,0.0,0.0,0.0,0.0,0.0,0.0,0.0,0.0,0.0,0.0,0.0,0.0,0.0,0.0,0.0,0.0,0.0,0.0,0.0,0.0,0.0,0.0,0.0,0.0,0.0,0.0,0.0,0.0,0.0,0.0,0.0,0.0,0.0,0.0,0.0,0.0,0.0,0.0,0.0,0.0,0.0,-0.8277,0.0,0.0,0.0,0.0,0.0,0.0,0.0,0.0,0.0,0.0,0.0,0.0,0.0,0.0,0.0,0.0,0.0,0.0,0.0,0.0,0.0,0.0,0.0,0.0,-0.1977,-0.1977,-0.1977,-0.1977,-0.1977,-0.1977,0.0,0.0,0.0,0.0,0.0,-0.1977,-0.1977,-0.1977,-0.1977,-0.1358,-0.037,0.0985,0.0246,-0.037,-0.1111,0.0,0.0,0.0,0.0,0.0,0.0,0.0,0.0,0.0,0.0,0.0,0.0,0.0,0.0,0.0,0.0,0.0,0.0,0.0,0.0,0.0,0.0,0.0,0.0,0.0,0.0,0.0,0.0,0.0,0.0,0.0,0.0,0.0,0.0,0.0,0.0,0.0,0.0,0.0,0.0,0.0,0.0,0.0,0.0,0.0,0.0,0.0,0.0,0.0,0.0,0.0,0.0,0.0,0.0,0.0,0.0,0.0,0.0,0.0,0.0,0.0,0.0,0.0,0.0,0.0,0.0,0.0,0.0,0.0,0.0,0.0,-0.8345,0.0,0.0,0.0,0.0,0.0,0.0,0.0,0.0,0.0,0.0,0.0,0.0,0.0,0.0,0.0,0.0,0.0,0.0,0.0,0.0,0.0,-0.1977,-0.1977,-0.1977,-0.1977,-0.1977,-0.1977,-0.1977,-0.1977,-0.1977,0.0,0.0,-0.1977,-0.1977,-0.1977,-0.1977,-0.1853,-0.1605,-0.0123,0.1231,0.2338,0.2338,0.1724,0.0616,0.0,0.0,0.0,0.0,0.0,0.0,0.0,0.0,0.0,0.0,0.0,0.0,0.0,0.0,0.0,0.0,0.0,0.0,0.0,0.0,0.0,0.0,0.0,0.0,0.0,0.0,0.0,0.0,0.0,0.0,0.0,0.0,0.0,0.0,0.0,0.0,0.0,0.0,0.0,0.0,0.0,0.0,0.0,0.0,0.0,0.0,0.0,0.0,0.0,0.0,0.0,0.0,0.0,0.0,0.0,0.0,0.0,0.0,0.0,0.0,0.0,0.0,0.0,0.0,0.0,-0.2984,-0.8473,-0.8342,-0.8392,-0.8878,-0.872,-0.8649,-0.8644,0.0,0.0,0.0,0.0,0.0,0.0,0.0,0.0,0.0,0.0,0.0,0.0,0.0,0.0,0.0,0.0,0.0,0.0,0.0,0.0,-0.1977,-0.1977,-0.1977,-0.1977,-0.1977,-0.1977,-0.1977,-0.1977,-0.1977,-0.1977,-0.1977,-0.1977,-0.1977,-0.1977,-0.1977,-0.1481,-0.0247,0.2215,0.3445,0.369,0.369,0.3568,0.3322,0.2093,0.0,0.0,0.0,0.0,0.0,0.0,0.0,0.0,0.0,0.0,0.0,0.0,0.0,0.0,0.0,0.0,0.0,0.0,0.0,0.0,0.0,0.0,0.0,0.0,0.0,0.0,0.0,0.0,0.0,0.0,0.0,0.0,0.0,0.0,0.0,0.0,0.0,0.0,0.0,0.0,0.0,0.0,0.0,-0.1977,-0.1977,0.0,0.0,0.0,0.0,0.0,0.0,0.0,0.0,0.0,0.0,0.0,0.0,0.0,-0.1423,-0.1966,-0.1974,-0.1334,0.0,0.0,-0.1819,-0.5387,-0.616,-0.7491,-0.9226,-0.9,0.0,-0.8902,-0.8886,0.0,0.0,0.0,0.0,0.0,0.0,0.0,0.0,0.0,0.0,0.0,0.0,0.0,0.0,0.0,0.0,0.0,0.0,0.0,0.0,0.0,-0.1977,-0.1977,-0.1977,-0.1977,-0.1977,-0.1977,-0.1977,-0.1977,-0.1977,-0.1977,-0.1977,-0.1977,-0.1234,0.0123,0.2215,0.3322,0.4307,0.5049,0.5049,0.5049,0.5049,0.4433,0.3324,0.1969,0.1354,0.0,0.0,0.0,0.0,0.0,0.0,0.0,0.0,0.0,0.0,0.0,0.0,0.0,0.0,0.0,0.0,0.0,0.0,0.0,0.0,0.0,0.0,0.0,0.0,0.0,0.0,0.0,0.0,0.0,0.0,0.0,0.0,0.0,0.0,0.0,0.0,0.0,0.0,0.0,-0.1977,-0.1977,-0.1977,-0.1977,-0.1977,0.0,0.0,0.0,0.0,0.0,0.0,0.0,0.0,0.0,-0.2048,-0.1685,-0.1309,-0.0923,-0.0937,-0.0543,0.0,0.0,-0.2389,-0.6942,-0.7407,-0.813,-0.8965,-0.8863,-0.8676,-0.8382,-0.8115,-0.8063,-0.8063,0.0,0.0,0.0,0.0,-0.8668,-0.866,0.0,0.0,0.0,0.0,0.0,0.0,0.0,0.0,0.0,0.0,0.0,0.0,-0.1977,-0.1977,-0.1977,-0.1977,-0.1977,-0.1977,-0.1977,-0.1977,-0.1977,-0.1977,-0.1977,-0.1977,-0.1977,-0.037,0.1601,0.3936,0.4185,0.4926,0.5916,0.5916,0.5916,0.5916,0.5916,0.4805,0.2954,0.2584,0.2461,0.0,0.0,0.0,0.0,0.0,0.0,0.0,0.0,0.0,0.0,0.0,0.0,0.0,0.0,0.0,0.0,0.0,0.0,0.0,0.0,0.0,0.0,0.0,0.0,0.0,0.0,0.0,0.0,0.0,0.0,0.0,0.0,0.0,0.0,0.0,0.0,0.0,0.0,-0.1977,-0.1977,-0.1977,-0.1977,-0.1977,0.0,0.0,0.0,0.0,0.0,0.0,-0.2033,-0.1545,-0.1297,-0.1429,-0.1447,-0.1062,-0.0,0.0,0.0,0.0,0.0,-0.2664,-0.7592,-0.8303,-0.857,-0.8539,-0.8508,-0.8216,-0.7507,-0.765,-0.746,-0.7325,-0.7325,-0.746,-0.7728,-0.8241,-0.8499,-0.863,0.0,0.0,0.0,0.0,0.0,0.0,0.0,0.0,0.0,0.0,0.0,-0.1977,-0.1977,-0.1977,-0.1977,-0.1977,-0.1977,-0.1977,-0.1977,-0.1977,-0.1977,-0.1977,-0.1977,-0.1977,-0.1977,0.0616,0.2584,0.3936,0.5174,0.5794,0.5916,0.5916,0.5916,0.5916,0.5916,0.5794,0.5669,0.4309,0.3815,0.3692,0.0,0.0,0.0,0.0,0.0,0.0,0.0,0.0,0.0,0.0,0.0,0.0,0.0,0.0,0.0,0.0,0.0,0.0,0.0,0.0,0.0,0.0,0.0,0.0,0.0,0.0,0.0,0.0,0.0,0.0,0.0,0.0,0.0,0.0,0.0,0.0,0.0,0.0,0.0,-0.1977,-0.1977,0.0,0.0,0.0,0.0,-0.2016,-0.1405,-0.1289,-0.1936,-0.1961,-0.1317,-0.0132,-0.0133,-0.0135,-0.0,0.0,0.0,0.0,0.0,-0.1541,-0.4617,-0.7294,-0.8415,-0.7968,-0.7864,-0.7408,-0.6729,-0.7502,-0.74,-0.6842,-0.6842,-0.7261,-0.7807,-0.7842,-0.8214,-0.8745,0.0,0.0,0.0,0.0,0.0,-0.1977,-0.1977,-0.1977,-0.1977,-0.1977,-0.1977,-0.1977,-0.1977,-0.1977,-0.1605,-0.074,-0.074,-0.037,0.0493,-0.0247,-0.074,-0.074,-0.1482,-0.1234,0.0493,0.2338,0.3815,0.5174,0.5669,0.5916,0.5916,0.5916,0.5916,0.5916,0.5916,0.5916,0.5916,0.5421,0.5174,0.5049,0.3447,0.2462,0.0,0.0,0.0,0.0,0.0,0.0,0.0,0.0,0.0,0.0,0.0,0.0,0.0,0.0,0.0,0.0,0.0,0.0,0.0,0.0,0.0,0.0,0.0,0.0,0.0,0.0,0.0,0.0,0.0,0.0,0.0,0.0,0.0,0.0,0.0,0.0,0.0,-0.1977,-0.1992,0.0,-0.2003,-0.2031,-0.2048,-0.205,-0.1817,-0.1308,-0.0785,-0.0663,-0.0534,-0.0,0.0,0.0,0.0,0.0,0.0,-0.0,-0.3827,-0.5055,-0.4358,-0.6687,-0.7643,-0.7626,-0.7051,-0.6498,-0.5825,-0.6126,-0.6139,-0.5867,-0.5867,-0.6275,-0.6951,-0.7451,-0.7978,-0.8647,0.0,0.0,0.0,0.0,0.0,-0.1977,-0.1977,-0.1977,-0.1977,-0.1977,-0.1977,-0.1977,-0.1977,-0.1977,-0.1481,-0.0123,0.0,0.037,0.1231,0.0493,-0.0247,-0.0617,-0.1111,-0.0123,0.2584,0.3445,0.4555,0.5916,0.5916,0.5916,0.5916,0.5916,0.5916,0.5916,0.5916,0.5916,0.5916,0.5916,0.5794,0.5421,0.4309,0.3324,0.2217,0.0,0.0,0.0,0.0,0.0,0.0,0.0,0.0,0.0,0.0,0.0,0.0,0.0,0.0,0.0,0.0,0.0,0.0,0.0,0.0,0.0,0.0,0.0,0.0,0.0,0.0,0.0,0.0,0.0,0.0,0.0,0.0,0.0,0.0,0.0,-0.198,-0.199,-0.2007,-0.2022,-0.2033,-0.2061,-0.195,-0.1951,-0.1581,-0.0931,-0.0,0.0,0.0,0.0,0.0,0.0,0.0,0.0,-0.0953,-0.2983,-0.6796,-0.7451,-0.5371,-0.6589,-0.6991,-0.6715,-0.6317,-0.5649,-0.4978,-0.4978,-0.4978,-0.4978,-0.4978,-0.5649,-0.6453,-0.6985,-0.7784,-0.8587,0.0,0.0,0.0,0.0,0.0,-0.1977,-0.1977,-0.1977,-0.1977,-0.1977,-0.1977,-0.1977,-0.1977,-0.1977,-0.1358,-0.0,0.0123,0.0123,0.0123,0.0123,-0.0493,-0.1853,-0.0617,0.1354,0.3813,0.3937,0.4556,0.5921,0.5921,0.5923,0.5925,0.5925,0.5925,0.5925,0.5925,0.5923,0.5921,0.5921,0.5548,0.4803,0.4189,0.2958,0.1356,0.0,0.0,0.0,0.0,0.0,0.0,0.0,0.0,0.0,0.0,0.0,0.0,0.0,0.0,0.0,0.0,0.0,0.0,0.0,0.0,0.0,0.0,0.0,0.0,0.0,0.0,0.0,0.0,0.0,0.0,0.0,0.0,0.0,-0.1978,-0.1978,-0.1988,-0.2016,-0.202,-0.2033,-0.2063,-0.1963,-0.198,-0.198,-0.0669,0.0,0.0,0.0,0.0,0.0,0.0,0.0,0.0,-0.014,-0.3066,-0.8568,-0.8562,-0.8075,-0.727,-0.7134,-0.6591,-0.5381,-0.5381,-0.4978,-0.4308,-0.4308,-0.4308,-0.4308,-0.4308,-0.5112,-0.6453,-0.6453,-0.7386,-0.8587,0.0,0.0,0.0,-0.1977,-0.1977,-0.1977,-0.1977,-0.1977,-0.1977,-0.1977,-0.1977,-0.1977,-0.1977,-0.1111,-0.0,0.1354,0.2338,0.283,0.283,0.1969,0.0862,-0.0493,0.1601,0.3199,0.3936,0.4802,0.5575,0.6016,0.6016,0.6047,0.6108,0.6108,0.6108,0.6108,0.6108,0.6074,0.6016,0.6016,0.5229,0.4189,0.4558,0.382,0.2467,0.0,0.0,0.0,0.0,0.0,0.0,0.0,0.0,0.0,0.0,0.0,0.0,0.0,0.0,0.0,0.0,0.0,0.0,0.0,0.0,0.0,0.0,0.0,0.0,0.0,0.0,0.0,0.0,0.0,0.0,0.0,0.0,-0.2007,-0.2007,-0.2007,-0.2018,-0.2048,-0.2071,-0.2088,-0.1965,-0.2144,-0.1767,-0.0679,-0.0275,0.0,0.0,0.0,0.0,0.0,0.0,0.0,0.0,-0.4489,-0.7578,-0.9104,-0.8859,-0.8237,-0.7376,-0.6892,-0.6187,-0.5381,-0.4844,-0.4441,-0.4308,-0.4308,-0.4308,-0.4308,-0.4308,-0.5112,-0.6453,-0.6453,-0.7386,-0.8587,0.0,0.0,0.0,-0.1977,-0.1977,-0.1977,-0.1977,-0.1977,-0.1977,-0.1977,-0.1977,-0.1977,-0.1977,-0.1358,-0.0123,0.1847,0.2215,0.2461,0.3076,0.1846,0.1354,0.1601,0.3076,0.4183,0.4679,0.558,0.6,0.6053,0.609,0.6131,0.618,0.618,0.618,0.618,0.618,0.6153,0.6106,0.5726,0.5045,0.3981,0.4105,0.3472,0.2469,0.148,0.0863,0.037,-0.0616,-0.0986,-0.1109,-0.222,0.0,0.0,0.0,0.0,0.0,0.0,0.0,0.0,0.0,0.0,0.0,0.0,0.0,0.0,0.0,0.0,0.0,0.0,0.0,0.0,0.0,0.0,0.0,0.0,-0.2029,-0.2041,-0.2054,-0.2046,-0.2049,-0.2079,-0.2098,-0.2119,-0.2145,-0.1634,-0.0965,-0.0,0.0,0.0,0.0,0.0,0.0,0.0,-0.2566,-0.3852,-0.3852,-0.6277,-0.7974,-0.9209,-0.8563,-0.78,-0.7061,-0.6315,-0.5746,0.0,-0.4517,-0.4382,-0.4382,-0.4382,-0.4382,0.0,0.0,0.0,0.0,0.0,-0.795,-0.8663,0.0,0.0,0.0,-0.1977,-0.1977,-0.1977,-0.1977,-0.1977,-0.1977,-0.1977,-0.1977,-0.1977,-0.1977,-0.1853,-0.074,0.1724,0.0862,0.0739,0.1969,0.0985,0.1478,0.3815,0.406,0.4682,0.5931,0.6012,0.6063,0.6084,0.6159,0.6202,0.621,0.621,0.621,0.621,0.621,0.6204,0.6068,0.5422,0.4734,0.391,0.3281,0.2628,0.1853,0.0987,0.0617,0.0493,-0.0493,-0.0863,-0.0986,-0.2097,0.0,0.0,0.0,0.0,0.0,0.0,0.0,0.0,0.0,0.0,0.0,0.0,0.0,0.0,0.0,0.0,0.0,0.0,0.0,0.0,0.0,0.0,0.0,0.0,-0.2051,-0.208,-0.211,-0.2091,-0.2084,-0.2111,-0.2117,-0.2007,-0.192,-0.0827,0.0,0.0,0.0,0.0,0.0,0.0,0.0,0.0,0.0,-0.9372,-0.9372,-0.6563,-0.6513,-0.8884,-0.8007,-0.7239,-0.6591,-0.5883,-0.5181,-0.4482,-0.4482,-0.4482,-0.4482,-0.4482,-0.4482,-0.4611,-0.4632,-0.5393,-0.6736,-0.8074,-0.8685,-0.8927,0.0,0.0,0.0,-0.1977,-0.1977,-0.1977,-0.1977,-0.1977,-0.1977,-0.1977,-0.1977,-0.1977,-0.1977,-0.0987,0.0246,0.1847,0.1724,0.1724,0.1969,0.2707,0.3322,0.3936,0.4926,0.5702,0.6025,0.6043,0.6123,0.6266,0.6282,0.6329,0.64,0.64,0.64,0.64,0.64,0.6095,0.5375,0.5245,0.4393,0.3155,0.3029,0.2628,0.1977,0.1729,0.1729,0.1605,0.0617,0.0247,-0.0123,-0.1849,-0.2467,-0.2714,-0.358,-0.3951,0.0,0.0,0.0,0.0,0.0,0.0,0.0,0.0,0.0,0.0,0.0,0.0,0.0,0.0,0.0,0.0,0.0,0.0,0.0,-0.2088,-0.2097,-0.2111,-0.2142,-0.2141,-0.2139,-0.2145,-0.2168,-0.164,-0.0549,-0.014,0.0,0.0,0.0,0.0,0.0,0.0,0.0,0.0,-0.599,-0.9372,-0.9372,-0.8757,-0.8297,-0.7984,0.0,0.0,-0.5831,-0.5628,-0.5181,-0.4482,-0.4482,-0.4482,-0.4482,-0.4482,-0.4902,-0.5451,-0.5911,-0.6692,-0.751,-0.8462,-0.8812,-0.8916,0.0,0.0,0.0,-0.1977,-0.1977,-0.1977,-0.1977,-0.1977,-0.1977,-0.1977,-0.1977,-0.1977,-0.1977,-0.1358,-0.0493,0.0862,0.1601,0.1969,0.1969,0.3199,0.4185,0.4925,0.5586,0.6006,0.6053,0.6139,0.6229,0.6317,0.6364,0.6408,0.6453,0.6453,0.6453,0.6453,0.6051,0.5761,0.519,0.4525,0.3812,0.3093,0.2687,0.2277,0.1996,0.1981,0.1977,0.1853,0.0863,0.0493,0.0247,-0.1849,-0.2467,-0.2714,-0.358,-0.3951,-0.3951,0.0,0.0,0.0,0.0,0.0,0.0,0.0,0.0,0.0,0.0,0.0,0.0,0.0,0.0,-0.2041,-0.2041,0.0,-0.2091,-0.2107,-0.1857,-0.1736,-0.2153,-0.2155,-0.1885,-0.1212,-0.109,-0.0827,-0.0139,0.0,0.0,0.0,0.0,0.0,0.0,0.0,0.0,0.0,-0.3061,-0.5835,-0.8188,-0.7582,-0.7425,-0.7428,-0.6507,-0.5909,-0.5769,-0.5301,-0.5002,-0.4574,-0.4574,-0.4574,-0.4574,-0.5,-0.5833,-0.678,-0.7154,-0.7523,-0.7893,-0.8586,-0.9076,-0.9321,0.0,0.0,0.0,-0.1977,-0.1977,-0.1977,-0.1977,-0.1977,-0.1977,-0.1977,-0.1977,-0.1977,-0.1977,-0.1977,-0.1605,-0.0493,0.1354,0.2215,0.197,0.3446,0.4802,0.5794,0.6004,0.6061,0.6078,0.6235,0.6325,0.6343,0.6419,0.6453,0.6453,0.6453,0.6453,0.6453,0.5783,0.5381,0.5111,0.3765,0.3068,0.2894,0.2335,0.2046,0.2016,0.1988,0.1977,0.1853,0.0617,0.0247,-0.0123,-0.2097,-0.2714,-0.2961,-0.3703,-0.3951,-0.3951,-0.3951,-0.3951,0.0,0.0,0.0,0.0,0.0,0.0,0.0,0.0,0.0,-0.2408,-0.2027,-0.2052,-0.2073,-0.2073,-0.2097,-0.2118,-0.2118,-0.1603,-0.1346,-0.2155,-0.202,-0.1348,-0.0135,0.0,0.0,0.0,0.0,0.0,0.0,0.0,0.0,0.0,0.0,0.0,0.0,0.0,-0.1893,-0.5983,-0.5678,-0.5965,-0.6698,-0.5239,-0.4803,-0.5536,-0.4955,-0.4665,-0.4665,-0.481,-0.4955,-0.5245,-0.597,-0.6943,-0.8021,-0.8166,-0.8255,-0.8313,-0.8855,-0.9344,-0.9877,0.0,0.0,0.0,0.0,0.0,-0.1977,-0.1977,-0.1977,-0.1977,-0.1977,-0.1977,-0.1977,-0.1977,-0.1977,-0.1977,-0.1729,0.1601,0.3199,0.2093,0.431,0.5794,0.5916,0.6004,0.6088,0.6163,0.6266,0.6357,0.6437,0.6449,0.6453,0.6453,0.6453,0.6453,0.6453,0.5783,0.4975,0.4435,0.3497,0.2802,0.2238,0.2076,0.2046,0.2016,0.1988,0.1977,0.1729,-0.0123,-0.0863,-0.1109,-0.3085,-0.3703,-0.3703,-0.3828,-0.3951,-0.3951,-0.3951,-0.3951,-0.3951,-0.3951,-0.3703,-0.3455,-0.3208,-0.2866,-0.2517,0.0,0.0,-0.2187,-0.2059,-0.2083,-0.2104,-0.2104,-0.2129,-0.2149,-0.2149,-0.1614,-0.1346,-0.2155,-0.1077,-0.0135,-0.0,0.0,0.0,0.0,0.0,0.0,0.0,0.0,0.0,0.0,0.0,0.0,0.0,0.0,-0.0873,-0.2766,-0.4947,-0.6112,-0.5972,-0.568,-0.5389,-0.4809,-0.481,-0.4665,-0.4665,-0.5391,-0.6117,-0.6843,-0.7564,-0.7989,-0.8124,-0.885,-0.9419,-0.9681,-0.9575,-0.9755,-1.0006,0.0,0.0,0.0,0.0,0.0,-0.1977,-0.1977,-0.1977,-0.1977,-0.1977,-0.1977,-0.1977,-0.1977,-0.1977,-0.1977,-0.1977,0.0985,0.2584,0.2093,0.4435,0.5916,0.5916,0.6004,0.6094,0.6178,0.627,0.6362,0.6453,0.6453,0.6453,0.6453,0.6453,0.6453,0.6453,0.5243,0.4571,0.4167,0.3094,0.2403,0.2106,0.2076,0.2046,0.2016,0.1988,0.1605,0.0987,-0.0493,-0.1356,0.0,-0.3455,-0.3951,-0.3951,-0.3951,-0.3951,-0.3951,-0.3951,-0.3974,-0.4,-0.4,-0.3773,-0.3538,0.0,-0.3034,-0.2557,-0.2684,-0.2327,-0.2091,-0.2091,-0.2114,-0.2136,-0.2136,-0.2146,-0.2155,0.0,-0.1616,-0.1077,-0.0942,-0.0404,0.0,0.0,0.0,0.0,0.0,0.0,0.0,0.0,0.0,0.0,0.0,0.0,0.0438,0.1314,0.1313,0.0146,-0.2331,-0.2475,-0.3494,-0.51,-0.4515,-0.437,-0.4665,-0.4665,-0.4955,-0.5391,-0.6117,-0.6986,-0.7709,-0.7996,-0.8432,-0.8868,-0.9157,-0.959,-0.9873,-0.9821,-1.0126,-1.0606,0.0,0.0,0.0,0.0,0.0,-0.1977,-0.1977,-0.1977,-0.1977,-0.1977,-0.1977,-0.1977,-0.1977,-0.1977,-0.1977,-0.1977,0.0123,0.1601,0.1969,0.4063,0.5544,0.5916,0.6004,0.6082,0.6145,0.6233,0.6325,0.6417,0.6417,0.6429,0.6453,0.6453,0.6453,0.6453,0.4972,0.4292,0.4145,0.281,0.2125,0.2094,0.2063,0.2038,0.2016,0.1988,0.1234,-0.0,-0.074,-0.1603,0.0,-0.358,-0.3951,-0.3951,-0.3951,-0.3951,-0.3954,-0.397,-0.4014,-0.406,-0.406,-0.3836,0.0,-0.3816,-0.3208,-0.2726,-0.2856,-0.2494,-0.2122,-0.2122,-0.2139,-0.2155,-0.2155,-0.2155,-0.2155,-0.2155,-0.1616,-0.0808,-0.0135,0.0,0.0,0.0,0.0,0.0,0.0,0.0,0.0,0.0,0.0,0.0,0.0,-0.1605,-0.1605,0.0292,0.1021,-0.0,-0.2916,-0.1895,-0.2478,-0.4664,-0.4078,-0.4223,-0.4955,-0.5245,-0.5682,-0.6404,-0.6986,-0.7711,-0.843,-0.843,-0.8721,-0.9304,-0.9449,-0.9735,-1.0023,-1.017,-1.0606,-1.1044,0.0,0.0,0.0,0.0,0.0,-0.1977,-0.1977,-0.1977,-0.1977,-0.1977,-0.1977,-0.1977,-0.1977,-0.1977,-0.1977,-0.1977,-0.074,0.0616,0.1969,0.3199,0.4555,0.5794,0.6004,0.6055,0.6057,0.6141,0.6229,0.6321,0.6321,0.6366,0.6453,0.6453,0.6453,0.6453,0.4972,0.4271,0.4219,0.2769,0.2093,0.2063,0.2032,0.2019,0.2016,0.1988,0.074,-0.0986,-0.0986,0.0,-0.259,-0.358,-0.3951,-0.3951,-0.3951,-0.3951,-0.3961,-0.4015,-0.4075,-0.4123,-0.4123,-0.3865,-0.3608,-0.3607,-0.3127,-0.2635,-0.2635,-0.2398,-0.2153,-0.2153,-0.2154,-0.2155,-0.2155,-0.2155,-0.2155,-0.2155,-0.1616,-0.0808,-0.0135,0.0,0.0,0.0,0.0,0.0,0.0,0.0,0.0,0.0,0.0,0.0,0.0,-0.5696,-0.7604,-0.4525,-0.233,-0.2185,-0.467,-0.4525,-0.4669,-0.4665,-0.5391,-0.5682,-0.5827,-0.6553,-0.7276,-0.7996,-0.7996,-0.8577,-0.9302,-0.9302,-0.9304,-0.9302,-0.9735,-1.0167,-1.0455,-1.0897,-1.1044,-1.1044,0.0,0.0,0.0,0.0,0.0,0.0,-0.1977,-0.1977,-0.1977,-0.1977,-0.1977,0.0,0.0,0.0,0.0,0.0,-0.074,0.0246,0.0616,0.2707,0.406,0.4555,0.5447,0.5992,0.6053,0.6082,0.6139,0.6227,0.6227,0.6243,0.6272,0.6272,0.6272,0.6272,0.4836,0.4174,0.4026,0.2728,0.2061,0.2033,0.2022,0.2007,0.1865,0.1236,0.0123,-0.1109,0.0,0.0,-0.3455,-0.3826,-0.3951,-0.3951,-0.3951,-0.3977,-0.4026,-0.4127,-0.4169,-0.4185,-0.4185,-0.4084,-0.4104,-0.4064,-0.3702,-0.3341,-0.3073,-0.2818,-0.2425,-0.2289,-0.2155,-0.2155,-0.2155,-0.2155,-0.2155,-0.2155,-0.202,-0.1351,-0.0136,0.0,0.0,0.0,0.0,0.0,0.0,0.0,0.0,0.0,0.0,-0.1751,-0.5988,-0.8193,-0.8038,-0.5242,-0.3786,-0.3349,-0.4225,-0.3788,-0.4226,-0.5391,-0.6263,-0.6553,-0.6553,-0.7421,-0.7851,-0.814,-0.8721,-0.9013,-0.9304,-0.9304,-0.9446,-0.9735,-0.9879,-1.0314,-1.0897,-1.0897,-1.1332,-1.1763,0.0,0.0,0.0,0.0,0.0,0.0,0.0,0.0,0.0,0.0,0.0,0.0,0.0,0.0,0.0,0.0,0.0,-0.0493,-0.0,0.1601,0.2707,0.3199,0.4063,0.4578,0.4624,0.4624,0.4658,0.4725,0.5236,0.5507,0.5536,0.5923,0.618,0.618,0.5024,0.437,0.3965,0.2944,0.203,0.1502,0.1502,0.1245,0.0864,0.0247,-0.0616,0.0,0.0,0.0,-0.3951,-0.3951,-0.3951,-0.3951,-0.3951,-0.4004,-0.4087,-0.4187,-0.4232,-0.4248,-0.4248,-0.4278,-0.4298,-0.4259,-0.4011,-0.3768,-0.3498,-0.3096,-0.2694,-0.2424,-0.2289,-0.2155,-0.2155,-0.2155,-0.2155,-0.1885,-0.202,-0.1624,-0.0274,0.0,0.0,0.0,0.0,0.0,0.0,0.0,0.0,-0.0146,-0.2043,-0.5109,-0.9079,-0.9364,-0.8321,-0.6257,-0.5675,-0.5385,-0.5093,-0.4658,-0.5094,-0.6694,-0.7131,-0.7568,-0.7858,-0.8288,-0.8577,-0.8577,-0.9013,-0.9449,-0.9446,-0.9446,-0.9735,-1.0167,-1.0314,-1.0606,-1.1181,-1.1332,-1.1903,-1.2621,0.0,0.0,0.0,0.0,0.0,0.0,0.0,0.0,0.0,0.0,0.0,0.0,0.0,0.0,0.0,0.0,0.0,0.0,-0.0247,-0.0,0.0616,0.1847,0.1969,0.1969,0.1969,0.1969,0.1984,0.2139,0.3395,0.4053,0.4109,0.5395,0.6038,0.591,0.5141,0.4464,0.3904,0.3151,0.1874,0.037,0.037,-0.0123,-0.0986,-0.1109,0.0,0.0,0.0,-0.3085,-0.3951,-0.3951,-0.3951,-0.3951,-0.3954,-0.4031,-0.4134,-0.4198,-0.4258,-0.4304,-0.4307,-0.4308,-0.4308,-0.4308,-0.4038,-0.3768,-0.3768,-0.3231,-0.2694,-0.2694,-0.2424,-0.2155,0.0,0.0,-0.202,-0.1481,-0.1885,-0.1624,-0.0275,0.0,0.0,0.0,0.0,0.0,0.0,0.0,0.0,-0.0876,0.0,-0.9076,-0.9224,-0.92,-0.8892,-0.7869,-0.8003,-0.7709,-0.7133,-0.6988,-0.7421,-0.814,-0.814,-0.8577,-0.9304,-0.9304,-0.9304,-0.9304,-0.9304,-0.959,-0.9879,-0.9879,-1.0167,-1.0599,-1.0897,-1.1325,-1.1749,-1.2047,-1.2617,-1.3325,0.0,0.0,0.0,0.0,0.0,0.0,0.0,0.0,0.0,0.0,0.0,0.0,0.0,0.0,0.0,0.0,0.0,0.0,-0.1482,-0.0493,0.0123,0.0493,0.1478,0.1969,0.1969,0.1969,0.1973,0.1981,0.2352,0.2605,0.2615,0.2863,0.2988,0.2614,0.1993,0.1492,0.0991,0.0372,-0.0247,-0.0616,-0.0616,-0.074,-0.1109,-0.1849,0.0,0.0,0.0,0.0,-0.3951,-0.3951,-0.3951,-0.3958,-0.4,-0.4034,-0.4079,-0.4185,-0.4228,-0.4249,-0.4294,-0.4308,-0.4308,-0.4308,-0.4172,-0.4038,-0.3498,-0.3229,-0.2961,-0.2424,-0.2289,-0.2155,0.0,0.0,0.0,-0.1346,-0.175,0.0,-0.0139,0.0,0.0,0.0,0.0,0.0,0.0,-0.5695,0.0,0.0,-0.6274,-0.6559,-0.8171,-0.8897,-0.8887,-0.8,-0.8143,-0.7996,-0.7853,-0.7853,-0.7851,-0.814,-0.8721,-0.9157,-0.9304,-0.9304,-0.9304,-0.9304,-0.959,-0.9735,-0.9879,-1.0167,-1.0603,-1.0897,-1.09,-1.1472,-1.2047,-1.2194,-1.2617,-1.3325,0.0,0.0,0.0,0.0,0.0,0.0,0.0,0.0,0.0,0.0,0.0,0.0,0.0,0.0,0.0,0.0,0.0,0.0,0.0,-0.1358,-0.0863,-0.0863,-0.0123,0.0246,0.0246,0.0246,0.0246,0.0246,0.0862,0.1108,0.1108,0.16,0.1723,0.1477,0.0985,0.0493,-0.0,-0.0369,-0.0986,0.0,0.0,-0.1849,-0.2343,-0.2961,0.0,0.0,0.0,0.0,0.0,-0.3951,-0.3951,-0.3961,-0.4016,-0.4034,-0.4059,-0.4181,-0.4217,-0.423,-0.429,-0.4308,-0.4308,-0.4308,-0.4308,-0.4172,-0.3768,-0.3632,-0.3363,-0.2961,-0.2693,-0.2424,-0.2424,-0.2289,-0.202,0.0,0.0,0.0,-0.0978,-0.0421,0.0,0.0,0.0,0.0,-0.3795,-0.5984,-0.7886,0.0,-0.7289,-0.6553,-0.7724,-0.816,-0.83,-0.814,-0.814,-0.8285,-0.8577,-0.8577,-0.8577,-0.8577,-0.9013,-0.9304,-0.9304,-0.9304,-0.9446,-0.959,0.0,-1.0023,-1.0458,-1.0606,-1.0894,-1.1332,-1.1476,-1.1903,-1.2474,-1.2617,-1.319,-1.39,0.0,0.0,0.0,0.0,0.0,0.0,0.0,0.0,0.0,0.0,-0.1977,-0.1977,0.0,0.0,0.0,0.0,0.0,0.0,0.0,0.0,0.0,-0.1977,-0.1977,-0.1977,-0.1977,-0.1977,-0.1977,-0.1977,-0.0863,-0.0247,-0.037,0.0616,0.0862,0.0861,0.0492,0.0,-0.0492,-0.0492,-0.1355,-0.2714,-0.2714,-0.3208,-0.3951,0.0,0.0,0.0,0.0,0.0,0.0,0.0,-0.3951,-0.3959,-0.4008,-0.4023,-0.4046,-0.4159,-0.4198,-0.4218,-0.4279,-0.4301,-0.4308,-0.4308,-0.4308,-0.4308,-0.4307,-0.4038,-0.3768,-0.3768,-0.3231,-0.2694,-0.2694,-0.2424,-0.2155,-0.202,0.0,-0.0408,-0.1673,-0.0841,0.0,0.0,-0.0729,-0.3356,-0.8782,-0.6855,-0.6406,-0.9039,-0.8452,-0.7867,-0.7867,-0.7573,-0.7566,-0.8285,-0.8285,-0.8577,-0.9304,-0.9304,-0.9304,-0.9304,-0.9304,-0.9304,-0.9304,-0.9304,-0.959,-0.9879,0.0,0.0,-1.1044,-1.1044,-1.1332,-1.1763,-1.2051,-1.2474,-1.2896,-1.3182,-1.39,-1.4479,0.0,0.0,0.0,0.0,0.0,0.0,0.0,0.0,0.0,0.0,-0.1977,-0.1977,0.0,0.0,0.0,0.0,0.0,0.0,0.0,0.0,0.0,0.0,-0.1977,-0.1977,-0.1977,-0.1977,-0.1977,-0.1977,-0.1729,-0.1851,-0.2097,-0.1849,-0.2096,-0.259,-0.2713,-0.296,-0.3207,-0.3207,-0.3331,-0.3703,-0.3703,-0.3703,-0.3951,0.0,0.0,0.0,0.0,0.0,0.0,0.0,-0.3951,-0.3952,-0.3962,-0.3965,-0.3978,-0.4046,-0.4102,-0.4155,-0.4215,-0.4268,-0.4308,-0.4308,-0.4308,-0.4172,-0.3902,-0.3902,-0.3768,-0.3363,-0.2961,-0.2694,-0.2694,-0.2424,-0.202,-0.1346,-0.0538,-0.0135,-0.0413,-0.0139,0.0,0.0,-0.4496,-0.8047,-0.9224,-0.8762,0.0,0.0,0.0,-0.7998,-0.7998,-0.8579,-0.9013,-0.9157,-0.9157,-0.9157,-0.9304,-0.9304,-0.9304,-0.9304,-0.9304,-0.9304,-0.9304,-0.959,-0.9879,-0.9879,-1.0606,0.0,-1.1044,-1.1332,-1.1763,-1.2051,-1.2194,-1.2617,-1.3325,-1.3615,-1.4047,-1.4621,0.0,0.0,0.0,0.0,0.0,0.0,0.0,-0.2838,-0.2715,-0.2592,-0.2346,-0.2222,-0.1977,-0.1977,-0.1977,0.0,0.0,0.0,0.0,0.0,0.0,0.0,0.0,0.0,0.0,-0.1977,0.0,0.0,0.0,-0.2223,-0.2467,0.0,0.0,0.0,-0.3703,-0.3826,-0.3951,-0.3951,-0.3951,0.0,0.0,0.0,0.0,0.0,0.0,0.0,0.0,0.0,0.0,0.0,-0.4293,-0.4533,-0.4093,-0.3971,-0.4006,-0.4064,-0.4125,-0.4187,-0.4247,-0.4285,-0.4308,-0.4308,-0.4308,-0.4307,-0.4038,-0.4038,-0.4038,-0.3768,-0.35,-0.3231,-0.2961,-0.2558,-0.202,-0.175,-0.0673,0.0,0.0,0.0,-0.1269,-0.443,-0.7544,-0.9367,-0.9351,-0.934,-0.9326,0.0,0.0,-0.8577,-0.814,-0.8432,-0.8721,-0.8721,-0.9013,-0.9304,-0.9304,-0.9304,-0.9304,-0.9304,-0.9304,-0.9446,-0.959,-0.9879,-1.017,-1.0462,-1.0897,0.0,-1.1619,-1.1763,-1.2191,-1.2474,-1.276,-1.3186,-1.3615,-1.4043,-1.4617,-1.5186,0.0,0.0,0.0,0.0,0.0,0.0,-0.3455,-0.3332,-0.3085,-0.2961,-0.2714,-0.2468,-0.2099,-0.2099,-0.1977,0.0,0.0,0.0,0.0,0.0,0.0,0.0,0.0,0.0,0.0,0.0,0.0,0.0,0.0,0.0,0.0,0.0,0.0,0.0,0.0,0.0,0.0,-0.3951,-0.3951,0.0,0.0,0.0,0.0,0.0,0.0,0.0,0.0,0.0,0.0,0.0,-0.4767,-0.5262,-0.4643,-0.4268,-0.4063,-0.4112,-0.4169,-0.4228,-0.4275,-0.4297,-0.4308,-0.4308,-0.4308,-0.4308,-0.4308,-0.4308,-0.4308,-0.4308,-0.4038,-0.3633,-0.3228,-0.296,-0.2826,0.0,-0.1883,-0.081,-0.0137,-0.0553,-0.2945,-0.8563,-0.9256,0.0,-0.9332,-0.9326,0.0,0.0,0.0,0.0,-0.8432,-0.8285,-0.8285,-0.8285,-0.9013,-0.9304,-0.9304,-0.9304,-0.9304,-0.9449,-0.9449,-0.959,-1.0023,-1.017,-1.0462,-1.1044,-1.1188,0.0,0.0,-1.2338,-1.2617,-1.2896,-1.3325,-1.3615,-1.4047,-1.4617,-1.5181,-1.6028,0.0,0.0,0.0,0.0,0.0,0.0,-0.3579,-0.3455,-0.3332,-0.3085,-0.2961,-0.2837,-0.2467,-0.2222,-0.1977,0.0,0.0,0.0,0.0,0.0,0.0,0.0,0.0,0.0,0.0,0.0,0.0,0.0,0.0,0.0,0.0,0.0,0.0,0.0,0.0,0.0,0.0,0.0,0.0,0.0,0.0,0.0,0.0,0.0,0.0,0.0,0.0,0.0,-0.5153,0.0,-0.5538,-0.6178,-0.6163,-0.5137,-0.4119,-0.4124,-0.4169,-0.4218,-0.4224,-0.4266,-0.4308,-0.4308,-0.4308,-0.4308,-0.4308,-0.4308,-0.4308,-0.4308,-0.4038,-0.3633,-0.3228,-0.3897,-0.4567,0.0,0.0,-0.3487,-0.0403,-0.2311,-0.5245,-0.8866,0.0,0.0,-0.9321,-0.9315,0.0,0.0,0.0,0.0,-0.9157,-0.9157,-0.9157,-0.9157,-0.9302,-0.9304,-0.9304,-0.9304,-0.9449,-0.9879,-0.9879,-1.0023,-1.0455,-1.075,-1.09,-1.1044,-1.1763,0.0,0.0,-1.2617,-1.29,-1.3325,-1.3757,-1.4047,-1.4479,-1.5181,-1.6028,-1.6871,0.0,0.0,0.0,0.0,0.0,0.0,-0.3703,-0.3703,-0.3703,-0.358,-0.3455,-0.3209,-0.3085,-0.2838,-0.2469,-0.2345,0.0,0.0,0.0,0.0,0.0,0.0,0.0,0.0,0.0,0.0,-0.2345,-0.2592,-0.2715,0.0,0.0,0.0,0.0,0.0,0.0,0.0,0.0,0.0,0.0,0.0,0.0,0.0,0.0,0.0,0.0,0.0,0.0,0.0,-0.5948,-0.5948,-0.6473,-0.6999,-0.6475,-0.5948,-0.5412,-0.4973,-0.4881,-0.4803,-0.4404,-0.4289,-0.4308,-0.4308,-0.4308,-0.4442,-0.4844,-0.4575,-0.4442,-0.4844,-0.4441,-0.4304,-0.4701,-0.4969,-0.5369,0.0,0.0,0.0,-0.4964,-0.4478,-0.5625,-0.9007,-0.9181,0.0,0.0,0.0,0.0,0.0,0.0,0.0,-0.9304,-0.9304,-0.9304,-0.9304,-0.9304,-0.9304,-0.9304,-0.959,-0.9735,-0.9879,-1.0167,-1.0458,-1.075,-1.0897,-1.1332,-1.1763,-1.2051,0.0,0.0,-1.3039,-1.3472,-1.4047,-1.4189,-1.4617,-1.5181,-1.6028,-1.6997,-1.8245,0.0,0.0,0.0,0.0,0.0,-0.3951,-0.3951,-0.3951,-0.3951,-0.3951,-0.3703,-0.358,-0.3455,-0.3332,-0.3085,-0.2837,-0.2714,0.0,0.0,0.0,0.0,0.0,0.0,0.0,0.0,0.0,-0.2714,-0.2961,-0.3085,-0.3209,0.0,0.0,0.0,0.0,0.0,0.0,0.0,0.0,0.0,0.0,0.0,0.0,0.0,0.0,0.0,0.0,0.0,0.0,0.0,0.0,0.0,-0.7784,-0.7252,-0.6987,-0.684,-0.5846,-0.5471,-0.5381,-0.4978,-0.4575,-0.4308,-0.4577,-0.4575,-0.471,-0.5247,-0.4978,-0.4844,-0.578,-0.5377,-0.5242,-0.6303,-0.6704,-0.6971,0.0,0.0,-0.8865,-0.8737,-0.7168,-0.6948,-0.9197,0.0,-0.92,0.0,0.0,0.0,0.0,0.0,0.0,-0.9304,-0.9304,-0.9304,-0.9304,-0.9304,-0.9304,-0.9304,-0.9735,-1.0023,-1.0023,-1.0455,-1.0894,-1.1188,-1.1332,-1.1619,-1.2194,0.0,0.0,0.0,-1.3615,-1.4047,-1.4479,-1.4759,-1.5323,-1.6028,-1.6593,-1.7981,-1.9767,0.0,0.0,0.0,0.0,0.0,0.0,-0.3951,-0.3951,-0.3951,-0.3951,-0.3951,-0.3826,-0.3579,-0.3455,-0.3455,-0.3455,-0.3208,0.0,0.0,0.0,0.0,0.0,0.0,0.0,0.0,0.0,-0.2961,-0.2961,-0.3332,-0.3455,-0.3455,-0.3826,-0.3951,0.0,0.0,0.0,0.0,0.0,0.0,0.0,0.0,0.0,0.0,0.0,0.0,0.0,0.0,0.0,0.0,0.0,0.0,0.0,0.0,-0.8587,-0.832,-0.6851,-0.5915,-0.5515,-0.6185,-0.5381,-0.4441,-0.5247,-0.5381,-0.5381,-0.5381,-0.5381,-0.5781,-0.7247,-0.6844,-0.6706,-0.7767,-0.9102,-0.9908,-0.9235,0.0,0.0,-1.0751,-1.0336,-0.9984,0.0,0.0,-0.928,-0.9111,0.0,0.0,0.0,0.0,0.0,-0.9304,-0.9304,-0.9304,-0.9304,-0.9304,-0.9304,-0.9304,-0.9735,-1.0167,-1.0455,-1.0894,-1.1188,-1.1619,-1.2051,-1.2194,0.0,0.0,0.0,0.0,-1.4189,-1.4479,-1.4621,-1.5323,-1.6028,-1.6729,-1.7163,-1.8971,-2.1452,0.0,0.0,0.0,0.0,0.0,0.0,-0.3951,-0.3951,-0.3951,-0.3951,-0.3951,-0.3828,-0.3826,-0.3826,-0.3826,-0.3826,-0.3455,0.0,0.0,0.0,0.0,0.0,0.0,0.0,0.0,0.0,-0.3455,-0.358,-0.3703,-0.3826,-0.3826,-0.3828,-0.3951,-0.3951,-0.3951,0.0,0.0,0.0,0.0,0.0,0.0,0.0,0.0,0.0,0.0,0.0,0.0,0.0,0.0,0.0,0.0,0.0,0.0,0.0,0.0,-0.8053,-0.7383,-0.6715,-0.6451,-0.6051,-0.5783,-0.6051,-0.6051,-0.6183,-0.6715,-0.6976,-0.7374,-0.8051,-0.8312,-0.8571,-0.9634,-1.0038,-1.0309,-1.0843,-1.1111,0.0,0.0,0.0,0.0,-0.9594,-0.9264,-0.9002,0.0,0.0,0.0,0.0,0.0,0.0,-0.9304,-0.9304,-0.9304,-0.9304,-0.9593,-0.9735,-0.9735,-1.0317,-1.075,-1.0897,-1.1185,-1.1619,-1.2051,-1.2194,0.0,0.0,0.0,0.0,0.0,-1.4336,-1.4759,-1.5323,-1.6028,-1.7137,-1.8385,-1.9512,-2.1702,-2.4274,0.0,0.0,0.0,0.0,0.0,0.0,-0.3951,-0.3951,-0.3951,-0.3951,-0.3951,-0.3951,-0.3951,-0.3951,-0.3951,-0.3951,-0.3703,0.0,0.0,0.0,0.0,0.0,0.0,0.0,-0.3951,-0.3703,-0.3703,-0.3951,-0.3951,-0.3951,-0.3951,-0.3951,-0.3951,-0.3951,-0.3951,-0.3951,0.0,0.0,0.0,0.0,0.0,0.0,-0.4324,0.0,0.0,0.0,0.0,0.0,0.0,0.0,0.0,0.0,0.0,0.0,0.0,0.0,-0.8318,-0.7784,-0.7386,-0.6853,-0.6453,-0.6719,-0.6851,-0.6982,-0.791,-0.8304,-0.8701,-0.9905,-1.0038,-1.03,-1.1501,-1.1369,-1.1372,-1.1909,-1.1648,0.0,0.0,0.0,0.0,-0.9525,0.0,0.0,0.0,0.0,0.0,0.0,0.0,0.0,0.0,-0.9449,-0.959,-0.959,-0.9735,-1.0023,-1.0167,-1.075,-1.1044,-1.1044,-1.1619,-1.1907,-1.2194,-1.2477,0.0,0.0,0.0,0.0,0.0,-1.4901,-1.5323,-1.6164,-1.7137,-1.8385,-1.9912,-2.1571,-2.3746,-2.6039,0.0,0.0,0.0,0.0,0.0,0.0,0.0,-0.3951,-0.3951,-0.3951,-0.3951,-0.3951,-0.3951,-0.3951,-0.3951,-0.3951,-0.3951,0.0,0.0,0.0,0.0,0.0,0.0,0.0,-0.3951,-0.3951,-0.3951,-0.3951,-0.3951,-0.3951,-0.3951,-0.3951,-0.3951,-0.3951,-0.3951,-0.3951,0.0,0.0,0.0,0.0,-0.4682,-0.4926,0.0,0.0,0.0,0.0,0.0,0.0,0.0,0.0,0.0,0.0,0.0,0.0,0.0,0.0,0.0,0.0,0.0,-0.7655,-0.6719,-0.7381,-0.7514,-0.7912,-0.8969,-0.9235,0.0,-1.2285,-1.2022,-1.1762,-1.3099,-1.3104,-1.2704,-1.2309,-1.2045,0.0,0.0,-1.0455,0.0,0.0,-0.8957,0.0,0.0,0.0,0.0,0.0,0.0,0.0,0.0,-0.9735,-1.0023,-1.0023,-1.0023,-1.0167,-1.0599,-1.0897,-1.1044,-1.1044,-1.1907,-1.2194,-1.2338,-1.3043,0.0,0.0,0.0,0.0,0.0,-1.5465,-1.6169,-1.7007,-1.8519,-2.0051,-2.1584,-2.3481,-2.5241,-2.7012,0.0,0.0,0.0,0.0,0.0,0.0,0.0,0.0,0.0,0.0,-0.3951,-0.3951,-0.3951,-0.3951,-0.3951,0.0,0.0,0.0,0.0,0.0,0.0,0.0,0.0,0.0,-0.3951,-0.3951,-0.3951,-0.3951,-0.3951,-0.3951,-0.3951,-0.3951,-0.3951,-0.3951,-0.3951,-0.3951,0.0,0.0,0.0,0.0,-0.4803,-0.517,0.0,0.0,0.0,0.0,-0.7674,-0.7988,0.0,0.0,0.0,0.0,0.0,0.0,0.0,0.0,-0.8587,-0.8587,-0.8587,0.0,-0.8187,-0.832,-0.8318,-0.8584,0.0,-1.0568,-1.1494,0.0,0.0,0.0,0.0,-1.3104,-1.2704,-1.2309,0.0,0.0,-1.1115,0.0,0.0,0.0,0.0,0.0,0.0,0.0,0.0,0.0,0.0,0.0,0.0,-1.0167,-1.0458,-1.0753,-1.0753,-1.0753,-1.0897,-1.1332,-1.1619,-1.1907,-1.2054,-1.2477,-1.3043,-1.3182,0.0,0.0,0.0,0.0,-1.5465,-1.6169,-1.7278,-1.8514,-2.0057,-2.1846,-2.3882,-2.5383,-2.7145,-2.8765,0.0,0.0,0.0,0.0,0.0,0.0,0.0,0.0,0.0,0.0,-0.3951,-0.3951,-0.3951,-0.3951,-0.3951,0.0,0.0,0.0,0.0,0.0,0.0,0.0,0.0,-0.3951,-0.3951,-0.3951,-0.3951,-0.3951,-0.3951,-0.3951,-0.3951,-0.3951,-0.3951,-0.3951,-0.3951,-0.4073,-0.4316,-0.4316,-0.4805,-0.5416,-0.5661,0.0,0.0,0.0,0.0,0.0,-0.7822,-0.8005,0.0,-0.8206,-0.8326,-0.8429,0.0,0.0,0.0,0.0,-0.8587,-0.872,-0.925,-0.8984,-0.8587,-0.8587,-0.8984,-0.9646,-1.0704,-1.1762,0.0,0.0,0.0,0.0,0.0,0.0,0.0,0.0,-1.1912,0.0,0.0,0.0,0.0,0.0,0.0,0.0,0.0,0.0,0.0,0.0,0.0,0.0,0.0,-1.0458,-1.075,-1.1044,-1.1188,-1.1332,-1.1332,-1.1619,-1.1907,-1.2194,-1.2477,-1.3047,-1.3611,-1.3757,-1.4328,0.0,0.0,0.0,-1.6457,-1.688,-1.8121,-2.019,-2.1846,-2.3617,-2.5644,-2.7535,-2.8888,-2.9987,0.0,0.0,0.0,0.0,0.0,0.0,0.0,0.0,0.0,0.0,0.0,0.0,0.0,0.0,0.0,0.0,0.0,0.0,0.0,0.0,0.0,0.0,-0.3951,-0.3951,-0.3951,-0.3951,-0.3951,-0.3951,-0.3951,-0.3951,-0.3951,-0.395,-0.4073,-0.4073,-0.4196,-0.4439,-0.4925,-0.5047,-0.5416,-0.6151,-0.6644,0.0,0.0,0.0,0.0,0.0,0.0,0.0,0.0,-0.8049,-0.819,-0.8369,-0.8407,0.0,0.0,0.0,0.0,0.0,-0.9646,-0.925,-0.8587,-0.8853,-0.9516,-1.0439,-1.1497,0.0,0.0,0.0,0.0,0.0,0.0,-1.3358,0.0,0.0,0.0,0.0,0.0,0.0,0.0,0.0,0.0,0.0,0.0,0.0,0.0,0.0,0.0,0.0,0.0,-1.0894,-1.1188,-1.1188,-1.1476,-1.1763,-1.176,-1.2051,-1.2194,-1.2338,-1.3043,-1.3468,-1.4043,-1.4336,-1.4901,-1.5607,0.0,0.0,-1.7308,-1.7726,-1.9245,-2.159,-2.3617,-2.5383,-2.7161,-2.949,-3.044,-3.0763,0.0,0.0,0.0,0.0,0.0,0.0,0.0,0.0,0.0,0.0,0.0,0.0,0.0,0.0,0.0,0.0,0.0,0.0,0.0,0.0,0.0,-0.3951,-0.3951,-0.3951,-0.3951,-0.3951,-0.3951,-0.3951,-0.3951,-0.3951,-0.3951,-0.4438,-0.4803,-0.4803,-0.5295,-0.5295,-0.4926,-0.5538,-0.6154,-0.6766,-0.6888,0.0,0.0,0.0,0.0,0.0,0.0,0.0,0.0,-0.8019,-0.8079,-0.8147,-0.8353,0.0,0.0,0.0,0.0,0.0,-0.8853,-0.872,-0.8853,-0.9779,-1.0041,-1.0439,-1.1497,-1.2553,0.0,0.0,0.0,0.0,0.0,-1.3358,-1.3104,0.0,0.0,0.0,0.0,0.0,0.0,0.0,0.0,0.0,0.0,0.0,0.0,0.0,0.0,0.0,0.0,-1.1332,-1.1619,-1.2051,-1.2051,-1.2334,-1.2613,-1.2334,-1.2477,-1.3186,-1.3182,-1.3757,-1.4474,-1.4474,-1.4901,-1.5603,0.0,-1.6875,-1.7444,-1.9663,-2.1314,-2.2819,-2.5248,-2.6886,-2.8287,-3.0197,-3.1112,-3.1597,0.0,0.0,0.0,0.0,0.0,0.0,0.0,0.0,0.0,0.0,0.0,0.0,0.0,0.0,0.0,0.0,0.0,0.0,0.0,0.0,-0.3951,-0.3951,-0.3951,-0.3951,-0.3951,-0.3951,-0.3951,-0.3951,-0.4316,-0.4438,-0.4438,-0.5172,-0.5416,-0.5416,-0.5784,-0.5906,-0.6029,-0.6274,-0.6766,-0.738,0.0,0.0,0.0,0.0,0.0,0.0,0.0,0.0,0.0,0.0,-0.8,-0.8084,-0.8263,0.0,0.0,0.0,0.0,0.0,-1.0041,-0.9513,-0.8987,-1.0704,-1.0836,-1.0836,-1.1365,-1.2553,0.0,0.0,0.0,0.0,0.0,0.0,0.0,0.0,0.0,0.0,0.0,0.0,0.0,0.0,0.0,0.0,0.0,0.0,0.0,0.0,0.0,0.0,0.0,0.0,-1.2051,-1.2194,-1.2477,-1.2757,-1.3039,-1.3047,-1.319,-1.3325,-1.3757,-1.4189,-1.4763,-1.5044,-1.5607,-1.6598,0.0,-1.758,-1.8557,-1.9808,-2.1721,-2.4167,-2.5644,-2.7656,-2.9924,-3.1646,-3.2726,-3.3491,0.0,0.0,0.0,0.0,0.0,0.0,0.0,0.0,0.0,0.0,0.0,0.0,0.0,0.0,0.0,0.0,0.0,0.0,0.0,-0.3951,-0.3951,-0.3951,-0.3951,-0.3951,-0.3951,-0.4073,-0.4195,-0.4195,-0.4805,-0.517,-0.5416,-0.5906,-0.6154,-0.6154,-0.6274,-0.6519,-0.6888,-0.7011,-0.738,-0.7872,0.0,0.0,0.0,0.0,0.0,0.0,0.0,0.0,0.0,0.0,0.0,0.0,0.0,0.0,0.0,-0.8679,-0.872,-0.9117,-1.123,-1.0306,-0.9247,-1.1494,-1.1494,-1.0969,-1.1097,-1.2421,0.0,0.0,0.0,0.0,0.0,0.0,0.0,0.0,0.0,0.0,0.0,0.0,0.0,0.0,0.0,0.0,0.0,0.0,0.0,0.0,0.0,0.0,0.0,0.0,-1.2338,-1.2477,-1.2757,-1.3182,-1.3611,-1.39,-1.39,-1.3615,-1.4332,-1.4763,-1.519,-1.5607,-1.6457,-1.7308,-1.7726,-1.8422,-1.9535,-2.0086,-2.2127,-2.5113,-2.6249,-2.8718,-3.179,-3.3025,-3.4079,-3.5114,0.0,0.0,0.0,0.0,0.0,0.0,0.0,0.0,0.0,0.0,0.0,0.0,0.0,0.0,0.0,0.0,0.0,0.0,0.0,-0.3951,-0.3951,-0.3951,-0.3951,-0.3951,-0.3951,-0.4561,-0.4803,-0.4803,-0.5538,-0.6154,-0.6766,-0.6766,-0.6888,-0.6888,-0.7503,-0.738,-0.6888,-0.7625,-0.7869,-0.7872,-0.7872,0.0,0.0,0.0,0.0,0.0,0.0,0.0,0.0,0.0,0.0,0.0,0.0,0.0,-0.8293,-0.8913,-0.9117,-0.951,-1.1219,-1.0429,-0.9643,-1.2142,-1.1487,0.0,-1.1097,-1.2025,0.0,-1.3744,0.0,0.0,0.0,0.0,0.0,0.0,0.0,0.0,0.0,0.0,0.0,0.0,0.0,0.0,0.0,0.0,0.0,0.0,0.0,0.0,0.0,0.0,0.0,-1.3182,-1.3182,-1.3615,-1.4479,-1.4479,-1.4479,-1.4474,-1.4763,-1.5186,-1.5607,-1.631,-1.6875,-1.7449,-1.8697,-1.9396,-1.9675,-2.1753,-2.3515,-2.527,-2.7613,-3.0637,-3.369,-3.4086,-3.4776,-3.5568,0.0,0.0,0.0,0.0,0.0,0.0,0.0,0.0,0.0,0.0,0.0,0.0,0.0,0.0,0.0,0.0,0.0,0.0,0.0,-0.3951,-0.3951,-0.3951,-0.3951,-0.4071,-0.4561,-0.4803,-0.4925,-0.4925,-0.6029,-0.6888,-0.7503,-0.7503,-0.7503,-0.7503,-0.7747,-0.7747,-0.7503,-0.7747,-0.7872,-0.7872,-0.7872,-0.7872,0.0,0.0,0.0,0.0,0.0,0.0,0.0,0.0,-0.7997,-0.8164,-0.816,-0.8489,-0.8919,-0.9042,-0.9117,-0.938,-1.0697,-0.9637,-0.8712,-1.149,-1.0898,0.0,0.0,-1.2565,-1.3392,-1.3905,-1.3927,0.0,0.0,0.0,0.0,0.0,0.0,0.0,0.0,0.0,0.0,0.0,0.0,0.0,0.0,0.0,0.0,0.0,0.0,0.0,0.0,0.0,0.0,-1.3325,-1.3757,-1.4189,-1.4479,-1.4901,-1.5465,-1.5886,-1.5465,-1.5749,-1.631,-1.6875,-1.7721,-1.8697,-1.9256,-1.9953,-2.0653,-2.1484,-2.3619,-2.6691,-3.0419,-3.2783,-3.418,-3.4852,-3.5326,-3.5879,0.0,0.0,0.0,0.0,0.0,0.0,0.0,0.0,0.0,0.0,0.0,0.0,0.0,0.0,0.0,0.0,0.0,0.0,-0.3951,-0.3951,-0.3951,-0.3951,-0.3951,-0.4195,-0.4925,-0.5047,-0.5293,-0.5538,-0.6644,-0.75,-0.7872,-0.7872,-0.7872,-0.7872,-0.7872,-0.7872,-0.7872,-0.7872,-0.7872,-0.7872,-0.7872,-0.7872,0.0,0.0,0.0,0.0,0.0,0.0,0.0,0.0,-0.8244,-0.8535,-0.8537,-0.8869,-0.9304,-0.9441,-0.9386,-0.9516,-1.0836,-0.964,-0.8709,-1.1886,-1.1441,0.0,-1.2664,-1.3228,-1.3553,-1.3893,-1.3865,0.0,0.0,0.0,0.0,0.0,0.0,0.0,0.0,0.0,0.0,0.0,0.0,0.0,0.0,0.0,0.0,0.0,0.0,0.0,0.0,0.0,0.0,0.0,-1.4332,-1.4763,-1.4901,-1.5607,-1.631,-1.6875,-1.6588,-1.6729,-1.7288,-1.7721,-1.8563,-1.9529,-1.9814,-2.0509,-2.1214,-2.1891,-2.4689,-2.8829,-3.2385,-3.4111,-3.4786,-3.5364,-3.5743,-3.6278,0.0,0.0,0.0,0.0,0.0,0.0,0.0,0.0,-0.3951,-0.3951,-0.3951,0.0,0.0,0.0,0.0,0.0,0.0,0.0,-0.3951,-0.3951,-0.3951,-0.3951,-0.3951,-0.4195,-0.4925,-0.5538,-0.6276,-0.6888,-0.7625,-0.7872,-0.7872,-0.7872,-0.7872,-0.7872,-0.7872,-0.7872,-0.7872,-0.7872,-0.7872,-0.7872,-0.7872,-0.7872,-0.7872,0.0,0.0,0.0,0.0,0.0,0.0,0.0,-0.861,-0.89,-0.9166,-0.9252,-0.9432,-0.9974,-0.9927,-1.0057,-1.1765,-1.0704,-0.9905,-1.346,-1.3075,0.0,-1.4263,-1.4044,-1.344,-1.3541,0.0,-1.4056,-1.3644,0.0,0.0,0.0,0.0,0.0,0.0,0.0,0.0,0.0,0.0,0.0,0.0,0.0,0.0,0.0,0.0,0.0,0.0,0.0,0.0,0.0,-1.4763,-1.5186,-1.5607,-1.631,-1.6875,-1.7308,-1.7996,-1.8412,-1.8406,-1.9111,-1.9535,-1.9535,-2.0653,-2.1214,-2.1346,-2.3659,-2.7137,-3.1108,-3.3055,-3.4571,-3.5479,-3.5479,-3.587,-3.6519,0.0,0.0,0.0,0.0,0.0,0.0,0.0,0.0,-0.3951,-0.3951,-0.3951,0.0,0.0,0.0,0.0,0.0,0.0,0.0,-0.3951,-0.3951,-0.3951,-0.3951,-0.4316,-0.4928,-0.5538,-0.6766,-0.738,-0.7625,-0.7747,-0.7872,-0.7872,-0.7872,-0.7872,-0.7872,-0.7872,-0.7872,-0.7872,-0.7872,-0.7872,-0.7872,-0.7872,-0.7872,-0.7872,0.0,0.0,0.0,0.0,0.0,0.0,0.0,0.0,0.0,-0.9292,-0.9637,-1.0078,-1.0106,-0.9927,-0.9794,-1.0319,-0.9779,0.0,-1.2018,0.0,0.0,0.0,-1.4616,0.0,0.0,0.0,-1.4394,0.0,0.0,0.0,0.0,0.0,0.0,0.0,0.0,0.0,0.0,0.0,0.0,0.0,0.0,0.0,0.0,0.0,0.0,0.0,0.0,0.0,0.0,-1.5186,-1.5749,-1.6306,-1.6875,-1.7721,-1.8837,-1.9117,-1.9111,-1.9111,-1.9396,-1.9953,-2.0653,-2.1069,-2.1484,-2.2336,-2.601,-2.8527,-3.009,-3.3578,-3.5237,-3.5616,-3.5996,-3.6393,-3.6654,0.0,0.0,0.0,0.0,0.0,0.0,0.0,0.0,-0.3951,-0.3951,-0.3951,-0.3951,0.0,0.0,0.0,0.0,0.0,0.0,0.0,-0.3951,-0.3951,-0.3951,-0.4559,-0.5293,-0.6274,-0.7378,-0.7872,-0.7872,-0.7872,-0.7872,-0.7872,-0.7872,-0.7872,-0.7872,-0.7872,-0.7872,-0.7872,-0.7872,-0.7872,-0.7872,-0.7997,-0.8119,-0.8119,0.0,0.0,0.0,0.0,0.0,0.0,0.0,0.0,0.0,-0.9674,0.0,-1.0337,-1.0241,-0.9927,-0.9661,-0.9525,0.0,0.0,0.0,-1.2363,-1.3278,0.0,0.0,0.0,0.0,0.0,0.0,0.0,0.0,0.0,0.0,0.0,0.0,0.0,0.0,0.0,0.0,0.0,0.0,0.0,0.0,0.0,0.0,0.0,0.0,0.0,0.0,0.0,0.0,-1.5891,-1.6457,-1.6875,-1.7721,-1.8563,-1.9535,-1.9953,-2.0231,-2.0231,-2.0231,-2.0653,-2.1496,-2.1742,-2.2612,-2.4024,-2.6985,-2.8766,-2.997,-3.2619,-3.4204,-3.4902,-3.5422,-3.6103,-3.6799,0.0,0.0,-0.3951,-0.3951,0.0,0.0,0.0,0.0,-0.3951,-0.3951,-0.3951,-0.3951,0.0,0.0,0.0,0.0,0.0,0.0,-0.3951,-0.3951,-0.395,-0.395,-0.4682,-0.5661,-0.7011,-0.7625,-0.7872,-0.7872,-0.7872,-0.7872,-0.7872,-0.7872,-0.7872,-0.7872,-0.7872,-0.7872,-0.7872,-0.7872,-0.7872,-0.7994,-0.8244,-0.8369,-0.8491,-0.8854,0.0,0.0,0.0,0.0,0.0,0.0,0.0,0.0,-1.0168,-1.027,-1.0337,-1.0225,-0.9918,-0.9661,-0.9253,0.0,0.0,0.0,0.0,0.0,0.0,0.0,0.0,0.0,0.0,0.0,0.0,0.0,0.0,0.0,0.0,0.0,0.0,0.0,0.0,0.0,0.0,0.0,0.0,0.0,0.0,0.0,0.0,0.0,0.0,0.0,0.0,-1.5744,-1.688,-1.7444,-1.7449,-1.8837,-1.9529,-1.9675,-2.0653,-2.1214,-2.1346,-2.1214,-2.149,-2.1917,-2.2617,-2.3997,-2.5862,-2.6758,-2.8436,-3.0176,-3.0808,-3.207,-3.3623,-3.4029,-3.5275,-3.6799,0.0,0.0,-0.3951,-0.3951,0.0,0.0,0.0,0.0,0.0,-0.3951,0.0,0.0,0.0,0.0,0.0,0.0,0.0,0.0,-0.3951,-0.3951,-0.4195,-0.4682,-0.5784,-0.6888,-0.7625,-0.7872,-0.7872,-0.7872,-0.7872,-0.7872,-0.7872,-0.7872,-0.7872,-0.7872,-0.7872,-0.7872,-0.7872,-0.7872,-0.7997,-0.8247,-0.8369,-0.8613,-0.8854,-0.9095,-0.9217,0.0,0.0,0.0,0.0,0.0,0.0,0.0,-1.0042,-1.0181,-1.0314,-1.036,-1.0103,-0.9661,0.0,-1.0445,0.0,0.0,0.0,0.0,0.0,0.0,0.0,0.0,0.0,0.0,0.0,0.0,0.0,0.0,0.0,0.0,0.0,0.0,0.0,0.0,0.0,0.0,0.0,0.0,0.0,0.0,0.0,0.0,0.0,0.0,0.0,-1.6885,-1.7715,-1.8412,-1.8977,-1.9396,-1.9953,0.0,-2.1069,-2.1484,-2.2035,-2.1766,-2.1897,-2.2186,-2.3173,-2.3988,-2.4792,-2.6989,-2.8444,-2.9266,-3.0759,-3.1649,-3.207,-3.2761,-3.317,-3.3716,0.0,0.0,0.0,0.0,0.0,0.0,0.0,0.0,0.0,0.0,0.0,0.0,0.0,0.0,0.0,0.0,-0.3951,-0.3951,-0.3951,-0.3951,-0.4318,-0.5293,-0.6396,-0.7255,-0.7869,-0.7872,-0.7872,-0.7872,-0.7872,-0.7872,-0.7872,-0.7872,-0.7872,-0.7872,-0.7872,-0.7872,-0.7872,-0.7872,-0.7994,-0.8244,-0.8491,-0.8732,-0.8976,-0.9339,-0.9579,-0.9579,-0.97,0.0,0.0,0.0,0.0,0.0,0.0,0.0,-1.0307,-1.032,-1.0077,-0.9927,0.0,0.0,0.0,0.0,0.0,0.0,0.0,0.0,0.0,0.0,0.0,0.0,0.0,0.0,0.0,0.0,0.0,0.0,0.0,0.0,0.0,0.0,0.0,0.0,0.0,0.0,0.0,0.0,0.0,0.0,0.0,-1.7026,-1.7444,-1.7861,-1.8552,-1.9251,-1.9808,-2.0092,-2.0653,-2.149,-2.1622,-2.2173,-2.2859,-2.2448,-2.2448,-2.2879,-2.3739,-2.4447,-2.5052,-2.6643,-2.7515,-2.797,-2.8963,-2.9957,-3.0801,-3.135,-3.2053,-3.291,0.0,0.0,0.0,0.0,0.0,0.0,0.0,0.0,0.0,0.0,0.0,0.0,0.0,0.0,-0.3951,0.0,0.0,0.0,-0.3951,-0.4073,-0.4684,-0.5908,-0.6641,-0.738,-0.7872,-0.7872,-0.7872,-0.7872,-0.7872,-0.7872,-0.7872,-0.7872,-0.7872,-0.7872,-0.7872,-0.7872,-0.7872,-0.7872,-0.7994,-0.8116,-0.8729,-0.8976,-0.9095,-0.9579,-0.9822,-0.9822,-0.9822,-0.9822,-0.9822,-0.9822,0.0,0.0,0.0,0.0,-1.0304,-1.0164,-1.0058,-1.0057,0.0,0.0,-1.26,0.0,0.0,0.0,0.0,0.0,0.0,0.0,0.0,0.0,0.0,0.0,0.0,0.0,0.0,0.0,0.0,0.0,0.0,0.0,0.0,0.0,0.0,0.0,0.0,0.0,0.0,0.0,-1.7308,-1.7585,-1.8002,-1.8552,-1.9251,-1.9953,-2.0225,-2.0931,-2.149,-2.1904,-2.231,-2.2859,-2.3543,-2.327,-2.327,-2.3577,-2.4183,-2.4876,-2.5505,-2.6279,-2.6692,-2.6991,-2.7136,-2.8114,-2.952,-2.9949,-3.1084,-3.2491,0.0,0.0,0.0,0.0,0.0,0.0,0.0,0.0,0.0,0.0,-0.3951,-0.3951,0.0,-0.3951,-0.3951,-0.3951,-0.3951,-0.3951,-0.3951,0.0,0.0,-0.5906,-0.7133,-0.7747,-0.7872,-0.7872,-0.7872,-0.7872,-0.7872,-0.7872,-0.7872,-0.7872,-0.7872,-0.7872,-0.7872,-0.7872,-0.7872,-0.7872,-0.8241,-0.8732,-0.8854,-0.9217,-0.97,-0.9822,-0.9822,-0.9822,-0.9822,-0.9822,-0.9822,-0.9822,-0.9822,0.0,0.0,0.0,-1.0283,-1.0304,-1.0247,-1.019,0.0,0.0,-1.2266,0.0,0.0,0.0,0.0,0.0,0.0,0.0,0.0,0.0,0.0,0.0,0.0,0.0,0.0,0.0,0.0,0.0,0.0,0.0,0.0,0.0,0.0,0.0,0.0,0.0,0.0,0.0,-1.7308,-1.8557,-1.9256,-1.939,-2.0098,-2.0665,-2.1069,-2.1207,-2.1484,-2.231,-2.2996,-2.3543,-2.3959,-2.3823,-2.3823,-2.3994,-2.4896,-2.5447,-2.5505,-2.6576,-2.6991,-2.6991,-2.7412,-2.7695,-2.7977,-2.8691,-2.9122,-2.9361,0.0,0.0,0.0,0.0,0.0,0.0,0.0,0.0,0.0,0.0,0.0,-0.3951,-0.3951,-0.3951,-0.3951,-0.3951,-0.3951,-0.3951,-0.3951,-0.5174,-0.5906,-0.5906,-0.7133,-0.7872,-0.7872,-0.7872,-0.7872,-0.7872,-0.7872,-0.7872,-0.7872,-0.7872,-0.7872,-0.7872,-0.7872,-0.7872,-0.7872,-0.8119,-0.8366,-0.8613,-0.8857,-0.9095,-0.9339,-0.9339,-0.9339,-0.9579,-0.9579,-0.97,-0.9822,-0.9822,-0.9822,-0.9822,-0.9822,0.0,0.0,0.0,-1.036,0.0,-1.0721,-1.1272,-1.2075,0.0,-1.4262,-1.4983,-1.5186,0.0,0.0,0.0,0.0,0.0,0.0,0.0,0.0,0.0,0.0,0.0,0.0,0.0,0.0,0.0,0.0,0.0,0.0,0.0,0.0,0.0,0.0,-1.7726,-1.8422,-1.9117,-1.9675,-2.0104,-2.0659,-2.1214,-2.149,-2.176,-2.2173,-2.2853,-2.3406,-2.3959,-2.4231,-2.4503,-2.451,-2.4259,-2.4989,-2.543,-2.5772,-2.6522,-2.6967,-2.7412,-2.755,-2.7734,-2.8006,-2.8284,-2.8444,-2.8381,0.0,0.0,0.0,0.0,0.0,0.0,0.0,0.0,0.0,0.0,0.0,-0.3951,-0.3951,0.0,0.0,0.0,-0.3951,-0.3951,-0.3951,-0.5174,-0.5906,-0.5906,-0.7133,-0.7872,-0.7872,-0.7872,-0.7872,-0.7872,-0.7872,-0.7872,-0.7872,-0.7872,-0.7872,0.0,-0.7872,-0.7872,-0.7872,-0.8244,-0.8369,-0.8369,-0.8735,-0.8854,-0.8854,-0.8854,-0.8976,-0.9217,-0.9217,-0.9457,-0.97,-0.9822,-0.9822,-0.9822,-0.9822,-1.0032,0.0,0.0,0.0,0.0,0.0,0.0,-1.2312,-1.2965,-1.3829,-1.4707,0.0,0.0,0.0,0.0,0.0,0.0,0.0,0.0,0.0,0.0,0.0,0.0,0.0,0.0,0.0,0.0,0.0,0.0,0.0,0.0,0.0,0.0,0.0,-1.8282,-1.9396,-1.9675,-2.0098,-2.0804,-2.1075,-2.149,-2.1904,-2.231,-2.2859,-2.3543,-2.3952,-2.4367,-2.4638,-2.4916,-2.4916,-2.466,-2.4977,-2.5389,-2.5915,-2.6393,-2.6809,-2.7311,-2.7591,-2.7875,-2.8084,-2.8217,-2.8184,-2.8209,0.0,0.0,0.0,0.0,0.0,0.0,0.0,0.0,0.0,0.0,0.0,-0.3951,-0.3951,-0.3951,-0.3951,-0.3951,-0.3951,-0.3951,-0.3951,-0.5174,-0.5906,-0.5906,-0.7133,0.0,-0.7872,-0.7872,-0.7872,-0.7872,-0.7872,-0.7872,-0.7872,-0.7872,-0.7872,-0.7872,-0.7872,-0.7872,-0.7872,0.0,0.0,-0.8369,-0.8735,-0.8854,-0.8854,-0.8854,-0.8854,-0.8976,-0.9217,-0.9335,-0.9335,-0.97,-0.9822,-0.9822,-0.9822,-1.0032,-1.028,0.0,0.0,0.0,0.0,-1.2431,0.0,-1.3308,-1.3727,0.0,0.0,0.0,0.0,0.0,0.0,0.0,0.0,0.0,0.0,0.0,0.0,0.0,0.0,0.0,0.0,0.0,0.0,0.0,0.0,0.0,0.0,0.0,0.0,-1.9396,-1.9535,-2.0243,-2.0804,-2.1214,-2.1214,-2.1484,-2.231,-2.2989,-2.3543,-2.3959,-2.4367,-2.4638,-2.5059,-2.5052,-2.5052,-2.5074,-2.5388,-2.5542,-2.5579,-2.6334,-2.6631,-2.6786,-2.747,-2.7741,-2.7725,-2.8118,-2.8241,-2.8178,0.0,0.0,0.0,0.0,0.0,0.0,0.0,0.0,0.0,0.0,0.0,0.0,0.0,-0.3951,-0.3951,-0.3951,-0.3951,-0.4071,-0.4561,-0.5418,-0.6151,-0.6521,-0.738,-0.7872,-0.7872,-0.7872,-0.7872,-0.7872,-0.7872,-0.7872,-0.7872,-0.7872,-0.7872,-0.7872,-0.7872,-0.7872,-0.7994,-0.8485,0.0,-0.8369,-0.8735,-0.8735,-0.861,0.0,0.0,0.0,0.0,0.0,0.0,-0.9457,-0.9579,-0.9839,-0.9937,-1.0114,-1.0317,-1.0507,-1.1027,-1.1508,0.0,0.0,0.0,-1.3061,-1.4198,-1.5229,0.0,0.0,0.0,0.0,0.0,0.0,0.0,0.0,0.0,0.0,0.0,0.0,0.0,0.0,0.0,0.0,0.0,0.0,0.0,0.0,0.0,0.0,0.0,-1.9675,-2.0243,-2.0798,-2.1075,-2.1214,-2.1622,-2.2173,-2.2722,-2.3133,-2.3543,-2.3959,-2.4367,-2.4774,-2.5059,-2.5059,-2.5059,-2.5066,-2.5448,-2.5754,-2.5963,-2.622,-2.6677,-2.7285,-2.7563,-2.77,-2.7642,-2.7771,-2.7764,-2.755,0.0,0.0,0.0,0.0,0.0,-0.3951,-0.3951,-0.3951,-0.3951,-0.3951,0.0,0.0,0.0,0.0,-0.3951,-0.3951,-0.3951,-0.4195,-0.4803,-0.5538,-0.6151,-0.6888,-0.7503,-0.7872,-0.7872,-0.7872,-0.7872,-0.7872,-0.7872,-0.7872,-0.7872,-0.7872,-0.7872,-0.7872,-0.7872,-0.7872,0.0,0.0,0.0,-0.8244,-0.8732,-0.861,-0.8244,0.0,0.0,0.0,0.0,0.0,0.0,0.0,-0.9287,-0.9555,-0.9824,-1.0099,-1.0399,-1.0649,-1.0982,-1.1505,-1.2289,0.0,0.0,0.0,0.0,-1.5279,0.0,0.0,0.0,0.0,0.0,0.0,0.0,0.0,0.0,0.0,0.0,0.0,0.0,0.0,0.0,0.0,0.0,0.0,0.0,0.0,0.0,0.0,0.0,0.0,-2.0665,-2.1075,-2.1352,-2.1622,-2.2173,-2.2722,-2.2996,-2.3406,-2.3823,-2.4231,-2.4503,-2.4781,-2.5059,-2.5059,-2.5059,-2.5059,-2.5464,-2.5726,-2.5928,-2.6201,-2.6732,-2.7352,-2.7489,-2.7484,-2.7558,-2.7558,-2.7541,-2.76,0.0,0.0,-0.3951,-0.3951,-0.3951,-0.3951,-0.3951,-0.3951,-0.3951,-0.3951,0.0,0.0,0.0,0.0,0.0,-0.3951,-0.3951,-0.4195,-0.4926,-0.5538,-0.6276,-0.6888,-0.7503,-0.7872,-0.7872,-0.7872,-0.7872,-0.7872,-0.7872,-0.7872,-0.7872,-0.7872,-0.7872,-0.7872,-0.7872,-0.7872,-0.7994,0.0,-0.8485,-0.7994,0.0,-0.8485,-0.7872,0.0,0.0,0.0,-0.825,-0.8375,0.0,-0.8895,0.0,-0.9087,-0.9592,-1.0118,-1.0527,-1.0677,-1.1637,-1.2684,0.0,0.0,0.0,0.0,0.0,0.0,-1.5524,0.0,0.0,0.0,0.0,0.0,0.0,0.0,0.0,0.0,0.0,0.0,0.0,0.0,0.0,0.0,0.0,0.0,0.0,0.0,0.0,0.0,-2.0665,-2.0665,-2.0665,-2.1075,-2.1622,-2.231,-2.2722,-2.2996,-2.3406,-2.3823,-2.4231,-2.4503,-2.4916,-2.5059,-2.5059,-2.5059,-2.5059,-2.5194,-2.5464,-2.5599,-2.5734,-2.6391,-2.6666,-2.6792,-2.7067,-2.72,-2.72,-2.72,-2.7733,-2.8263,0.0,-0.3951,-0.3951,-0.3951,-0.3951,-0.3951,-0.3951,-0.3951,-0.3951,0.0,0.0,0.0,0.0,0.0,-0.3951,-0.3951,-0.4316,-0.4928,-0.5538,-0.6274,-0.6888,-0.7625,-0.7747,-0.7872,-0.7872,-0.7872,-0.7872,-0.7872,-0.7872,-0.7872,-0.7872,0.0,-0.7997,-0.8244,-0.8244,-0.8366,-0.861,-0.8854,0.0,-0.861,-0.8854,-0.861,0.0,0.0,0.0,0.0,0.0,-0.8254,-0.8519,0.0,-0.907,-0.9599,0.0,0.0,-1.0666,-1.0707,-1.0982,0.0,-1.2557,0.0,0.0,0.0,0.0,0.0,-1.4893,-1.4704,0.0,0.0,0.0,0.0,0.0,0.0,0.0,0.0,0.0,0.0,0.0,0.0,0.0,0.0,0.0,0.0,0.0,0.0,0.0,0.0,-2.0665,-2.0665,-2.0665,-2.1352,-2.2035,-2.2722,-2.2859,-2.2996,-2.3406,-2.3823,-2.4231,-2.4503,-2.4916,-2.5059,-2.5059,-2.5059,-2.5194,-2.5464,-2.5869,-2.6138,-2.6398,-2.6666,-2.6792,-2.7067,-2.72,-2.72,-2.72,-2.72,-2.7733,-2.8403,-0.3951,-0.3951,-0.3951,-0.3951,-0.3951,-0.3951,-0.3951,-0.3951,-0.3951,0.0,0.0,0.0,0.0,0.0,0.0,-0.3951,-0.4561,-0.517,-0.5906,-0.6521,-0.7255,-0.7869,-0.7872,-0.7872,-0.7872,-0.7872,-0.7872,-0.7872,-0.7872,-0.7872,0.0,0.0,0.0,-0.8369,-0.8491,-0.8732,-0.9095,0.0,0.0,0.0,-0.8854,0.0,0.0,-0.8052,-0.7948,0.0,0.0,0.0,-0.8397,-0.8525,-0.9115,0.0,0.0,0.0,0.0,0.0,0.0,0.0,0.0,0.0,0.0,0.0,0.0,0.0,-1.5385,-1.4572,-1.4314,0.0,0.0,0.0,0.0,0.0,0.0,0.0,0.0,0.0,0.0,0.0,0.0,0.0,0.0,0.0,0.0,-1.9535,-2.0243,-2.0665,-2.0665,-2.0804,-2.1081,-2.1766,-2.231,-2.2866,-2.2859,-2.3133,-2.3679,-2.3823,-2.4231,-2.4781,-2.5052,-2.5059,-2.5059,-2.5059,-2.5329,-2.5599,-2.6003,-2.6272,-2.6666,-2.68,-2.7067,-2.72,-2.72,-2.72,-2.72,-2.76,-2.813,-2.8782,0.0,-0.3951,-0.3951,-0.3951,-0.3951,-0.3951,-0.3951,-0.3951,-0.3951,0.0,-0.3951,0.0,0.0,0.0,0.0,0.0,-0.4682,-0.5293,-0.5906,-0.6644,-0.7255,-0.7869,-0.7872,-0.7872,-0.7872,-0.7872,-0.7872,-0.7872,0.0,0.0,0.0,0.0,0.0,0.0,-0.8873,-0.912,-0.9361,0.0,0.0,-0.8532,-0.876,-0.8515,0.0,0.0,-0.8073,-0.8089,-0.8212,-0.8255,-0.8274,-0.8394,-0.9036,0.0,0.0,0.0,0.0,0.0,-1.0588,0.0,0.0,0.0,0.0,0.0,0.0,0.0,-1.6374,-1.4777,-1.3626,0.0,0.0,0.0,0.0,0.0,0.0,0.0,0.0,0.0,0.0,0.0,0.0,0.0,0.0,0.0,-1.9396,-2.0243,-2.0665,-2.0665,-2.0665,-2.1081,-2.1766,-2.2173,-2.2448,-2.2859,-2.2859,-2.327,-2.3959,-2.3959,-2.4374,-2.5059,-2.5059,-2.5059,-2.5059,-2.5059,-2.5329,-2.5734,-2.6003,-2.6406,-2.68,-2.7067,-2.72,-2.72,-2.72,-2.72,-2.7334,-2.8006,-2.8659,-2.9447,-0.3951,-0.3951,-0.3951,-0.3951,-0.3951,-0.3951,-0.3951,-0.3951,-0.3951,-0.3951,-0.3951,0.0,0.0,0.0,0.0,0.0,-0.5295,-0.6029,-0.6644,-0.738,-0.7747,-0.7872,-0.7872,-0.7872,-0.7872,-0.7872,-0.7872,-0.7872,0.0,0.0,0.0,0.0,0.0,0.0,-0.9338,-0.9637,-0.9888,0.0,0.0,-0.9163,-0.9059,0.0,-0.8543,-0.8317,-0.8201,-0.8214,-0.8337,-0.8383,-0.8399,-0.8778,-0.9099,-0.9253,0.0,0.0,0.0,-1.0193,0.0,0.0,0.0,0.0,0.0,0.0,0.0,0.0,-1.537,-1.4511,-1.4059,0.0,0.0,0.0,0.0,0.0,0.0,0.0,0.0,0.0,0.0,0.0,0.0,0.0,0.0,0.0,-1.9529,-2.0243,-2.0665,-2.0665,-2.0943,-2.1484,-2.2173,-2.231,-2.2448,-2.2859,-2.2859,-2.327,-2.3959,-2.3959,-2.4374,-2.5059,-2.5059,-2.5059,-2.5059,-2.5059,-2.5464,-2.6003,-2.6003,-2.654,-2.7067,-2.72,-2.72,-2.72,-2.72,-2.72,-2.72,-2.7334,-2.8254,-2.9307,-0.3951,-0.3951,-0.3951,-0.3951,-0.3951,-0.3951,-0.3951,-0.3951,-0.3951,-0.3951,-0.3951,0.0,0.0,0.0,0.0,0.0,0.0,-0.6151,-0.6888,-0.7503,-0.7872,-0.7872,-0.7872,-0.7872,-0.7872,-0.7872,-0.7994,-0.8119,0.0,0.0,0.0,0.0,0.0,0.0,0.0,-0.9715,-0.991,0.0,-0.9803,-0.9597,-0.9333,0.0,-0.8489,-0.8236,-0.8236,-0.8244,-0.8304,-0.8326,-0.8337,-0.8521,-0.8841,0.0,0.0,-0.9477,-0.9794,0.0,-1.0193,-1.0455,0.0,0.0,0.0,-1.4507,0.0,0.0,0.0,-1.3661,-1.3133,0.0,0.0,0.0,0.0,0.0,0.0,0.0,0.0,0.0,0.0,0.0,0.0,0.0,0.0,0.0,-2.0098,-2.0527,-2.0804,-2.0943,-2.1352,-2.176,-2.231,-2.2448,-2.2722,-2.2859,-2.2996,-2.3406,-2.3959,-2.4231,-2.451,-2.5059,-2.5059,-2.5059,-2.5059,-2.5059,-2.5464,-2.6138,-2.6138,-2.654,-2.7216,-2.7391,-2.7471,-2.7447,-2.7272,-2.72,-2.72,-2.76,-2.8395,-2.9316,-0.3951,-0.3951,-0.3951,-0.3951,-0.3951,-0.3951,-0.3951,-0.3951,-0.3951,-0.3951,0.0,0.0,0.0,0.0,0.0,0.0,0.0,-0.5536,0.0,0.0,-0.7503,-0.7869,-0.7872,-0.7872,-0.7994,-0.7994,-0.8119,-0.8491,0.0,0.0,0.0,0.0,0.0,0.0,0.0,0.0,0.0,0.0,0.0,-0.9834,0.0,-0.8907,-0.8397,-0.8397,-0.8255,-0.8236,-0.8236,-0.8236,-0.8239,-0.8261,-0.8576,-0.8903,-0.8799,-0.9121,0.0,0.0,0.0,0.0,0.0,0.0,0.0,0.0,0.0,-1.3448,0.0,0.0,0.0,0.0,0.0,0.0,0.0,0.0,0.0,0.0,0.0,0.0,0.0,0.0,0.0,0.0,0.0,0.0,0.0,-2.0665,-2.0804,-2.1214,-2.1628,-2.2042,-2.2448,-2.2722,-2.2859,-2.2859,-2.327,-2.3543,-2.3959,-2.4367,-2.4638,-2.5059,-2.5059,-2.5059,-2.5059,-2.5059,-2.5464,-2.6138,-2.6138,-2.6579,-2.7328,-2.7614,-2.7764,-2.7796,-2.751,-2.7399,-2.7533,-2.821,-2.9001,-2.9653,-0.3951,-0.3951,-0.3951,-0.3951,-0.3951,-0.3951,-0.3951,-0.3951,-0.3951,0.0,0.0,0.0,0.0,0.0,0.0,0.0,0.0,0.0,-0.5412,0.0,-0.6394,-0.7872,-0.7872,-0.7997,-0.8369,-0.8369,-0.8491,-0.8854,0.0,0.0,0.0,0.0,0.0,0.0,-0.9999,0.0,0.0,0.0,-0.9946,0.0,-0.9441,-0.9175,0.0,-0.8785,-0.8587,-0.8236,-0.8236,-0.8236,-0.8253,0.0,-0.859,-0.8657,0.0,-0.861,-0.8913,-0.9297,0.0,0.0,0.0,0.0,0.0,0.0,-1.7014,0.0,0.0,0.0,0.0,-1.3108,0.0,0.0,0.0,0.0,0.0,0.0,0.0,0.0,0.0,0.0,0.0,0.0,0.0,0.0,0.0,-2.0665,-2.0943,-2.1628,-2.1766,-2.2042,-2.2722,-2.2866,-2.2859,-2.2859,-2.327,-2.3543,-2.3959,-2.4367,-2.4638,-2.5059,-2.5059,-2.5059,-2.5059,-2.5059,-2.5464,-2.6138,-2.6138,-2.6711,-2.7677,-2.7717,-2.7907,-2.8162,-2.8122,-2.8106,-2.8244,-2.8938,-2.9766,-3.0436,-0.3951,-0.3951,-0.3951,-0.3951,-0.3951,-0.3951,-0.3951,-0.4193,-0.4561,0.0,0.0,0.0,0.0,0.0,0.0,0.0,0.0,-0.3951,0.0,0.0,0.0,-0.7953,-0.8332,-0.8423,-0.8476,-0.8795,-0.905,-0.9344,-0.9421,0.0,0.0,0.0,0.0,0.0,-0.9818,0.0,-0.9968,0.0,-0.977,0.0,0.0,0.0,0.0,-0.8585,-0.8256,-0.8024,-0.8024,-0.8024,-0.8032,0.0,-0.8287,0.0,0.0,0.0,0.0,0.0,0.0,0.0,0.0,0.0,0.0,0.0,0.0,0.0,-1.4981,0.0,-1.3862,0.0,0.0,0.0,0.0,0.0,0.0,0.0,-1.3114,0.0,0.0,0.0,0.0,0.0,0.0,0.0,0.0,0.0,0.0,0.0,-2.2042,-2.231,-2.2859,-2.2859,-2.2996,-2.3133,-2.3543,-2.3959,-2.4231,-2.4638,-2.4916,-2.5059,-2.5059,-2.5059,-2.5059,-2.5329,-2.5599,-2.6138,-2.6406,-2.6752,-2.7455,-2.7852,-2.8098,-2.8265,-2.8686,-2.8591,-2.8363,-2.9061,-2.9883,-3.0556,-0.4195,-0.4073,-0.3951,-0.3951,-0.3951,-0.395,-0.4195,-0.4559,0.0,0.0,0.0,0.0,-0.5538,-0.5044,0.0,0.0,-0.2964,-0.3108,0.0,0.0,-0.5847,0.0,0.0,0.0,0.0,-0.9203,-0.9586,-0.9741,-0.9839,0.0,0.0,0.0,0.0,0.0,0.0,-0.9676,-0.9861,0.0,0.0,-0.9851,-0.9745,-0.9365,-0.8871,-0.8251,-0.7948,-0.7872,-0.7872,-0.7891,-0.7926,-0.7959,-0.8087,0.0,-0.8171,0.0,0.0,0.0,0.0,0.0,-1.209,0.0,0.0,0.0,0.0,0.0,0.0,0.0,0.0,0.0,0.0,0.0,0.0,0.0,0.0,0.0,0.0,0.0,0.0,0.0,0.0,0.0,0.0,0.0,0.0,0.0,0.0,0.0,0.0,-2.2448,-2.2866,-2.2859,-2.2996,-2.3406,-2.3823,-2.4095,-2.4503,-2.4916,-2.5059,-2.5059,-2.5059,-2.5059,-2.5059,-2.5464,-2.5734,-2.6138,-2.6532,-2.6989,-2.7383,-2.7884,-2.8201,-2.8424,-2.8948,-2.9026,-2.8922,-2.9771,-3.0591,-3.1678,-0.4681,-0.4316,-0.3951,-0.3951,-0.3951,-0.4071,-0.4803,0.0,0.0,0.0,0.0,0.0,0.0,0.0,0.0,0.0,0.0,0.0882,-0.1259,0.0,-0.4632,0.0,0.0,-0.9136,0.0,0.0,-0.9888,-1.0273,-1.028,0.0,0.0,0.0,0.0,0.0,0.0,-1.0241,-1.05,-1.0107,-0.9819,-0.9571,-0.9564,-0.9106,-0.8375,0.0,-0.7875,-0.7872,-0.7872,0.0,0.0,-0.8185,-0.8353,0.0,0.0,0.0,0.0,0.0,0.0,0.0,0.0,0.0,0.0,-1.6554,0.0,0.0,0.0,0.0,-1.5419,0.0,0.0,0.0,0.0,0.0,0.0,0.0,0.0,0.0,0.0,0.0,0.0,0.0,0.0,0.0,0.0,0.0,0.0,0.0,0.0,0.0,-2.2866,-2.2859,-2.2996,-2.3406,-2.3823,-2.4095,-2.4503,-2.4916,-2.5059,-2.5059,-2.5059,-2.5059,-2.5059,-2.5464,-2.5734,-2.6138,-2.6532,-2.7122,-2.7717,-2.7741,-2.8146,-2.8757,-2.8773,-2.9389,-3.0367,-3.1243,-3.2622,-3.4268,-0.5416,-0.5418,-0.5174,0.0,0.0,0.0,0.0,-0.6276,0.0,0.0,0.0,0.0,0.0,-0.2871,-0.2006,0.0,0.0,-0.0513,-0.1425,-0.2081,0.0,0.0,0.0,-0.9624,0.0,0.0,-1.0387,-1.0419,-1.0781,-1.0857,0.0,0.0,0.0,0.0,0.0,-1.0504,0.0,0.0,0.0,0.0,0.0,-0.9196,-0.8744,0.0,0.0,-0.8002,-0.8081,-0.8138,0.0,-0.822,-0.8545,-0.8866,-0.8696,-0.9284,-0.9879,-0.9688,-1.0206,0.0,0.0,0.0,-1.2619,-1.6146,0.0,0.0,0.0,0.0,0.0,0.0,0.0,0.0,0.0,0.0,0.0,0.0,0.0,0.0,0.0,0.0,0.0,0.0,0.0,0.0,0.0,0.0,0.0,0.0,0.0,0.0,0.0,-2.2859,-2.314,-2.3816,-2.3959,-2.4231,-2.4916,-2.5052,-2.5059,-2.5059,-2.5059,-2.5194,-2.5464,-2.5734,-2.6138,-2.6532,-2.6934,-2.7138,-2.7399,-2.7637,-2.7868,-2.8106,-2.8321,-2.9314,-3.092,-3.1465,-3.2806,-3.458,-0.6151,-0.6274,-0.6151,0.0,0.0,0.0,0.0,0.0,0.0,0.0,-0.5208,0.0,-0.3015,0.0,-0.1638,0.0,-0.0255,-0.0641,-0.1943,-0.143,0.0,-0.8432,-0.8138,0.0,0.0,0.0,0.0,-1.0571,-1.0934,-1.1247,0.0,0.0,0.0,0.0,0.0,-1.0868,-1.0537,0.0,-0.99,0.0,0.0,-0.9379,0.0,0.0,-0.8534,-0.8503,0.0,-0.8645,-0.8685,-0.8685,-0.8897,-0.9121,-0.9169,-0.9649,-1.0154,-0.9967,-1.0237,-1.0833,-1.1739,-1.1221,0.0,-1.4855,-1.5024,0.0,-1.8536,0.0,0.0,0.0,0.0,0.0,0.0,0.0,0.0,0.0,0.0,0.0,0.0,-1.3748,0.0,0.0,0.0,0.0,0.0,0.0,0.0,0.0,0.0,0.0,0.0,0.0,-2.3161,-2.3952,-2.3959,-2.4367,-2.5052,-2.5059,-2.5059,-2.5059,-2.5059,-2.5329,-2.5599,-2.6003,-2.6272,-2.6658,-2.7067,-2.72,-2.7224,-2.7447,-2.7614,-2.7757,-2.7963,-2.9215,-3.0823,-3.1609,-3.3624,-3.6219,-0.6766,-0.6888,0.0,0.0,-0.6029,0.0,0.0,0.0,-0.5818,0.0,-0.4781,-0.3902,-0.2767,-0.1258,-0.0501,-0.1111,0.0751,0.0,-0.2523,-0.0639,0.0,0.0,-0.5788,-0.6215,-1.0508,0.0,0.0,-1.0707,-1.1115,-1.1247,-1.1247,0.0,0.0,0.0,-1.178,0.0,-1.0788,-1.0795,-1.0492,-0.9856,-0.9634,-0.9774,-0.9784,-0.9663,-0.9509,-0.9398,-0.9273,-0.9355,-0.9465,-0.9465,-0.9554,-0.9664,-0.9664,-0.9927,-1.0193,-1.0193,-1.0455,-1.0721,-1.0721,-1.0721,-1.1111,-1.2804,0.0,0.0,0.0,0.0,-1.5944,0.0,0.0,0.0,0.0,0.0,0.0,0.0,0.0,0.0,0.0,0.0,0.0,0.0,0.0,0.0,0.0,0.0,0.0,0.0,0.0,0.0,0.0,0.0,-2.2937,-2.3924,-2.3938,-2.4353,-2.5052,-2.5059,-2.5059,-2.5059,-2.5059,-2.5329,-2.5599,-2.6003,-2.6406,-2.6792,-2.7067,-2.72,-2.72,-2.72,-2.7399,-2.7709,-2.7709,-2.8853,-3.0701,-3.2277,-3.5268,-3.8814,-0.7503,-0.7625,-0.7625,0.0,-0.738,-0.7503,0.0,0.0,0.0,0.0,-0.3626,-0.2519,0.0378,0.1135,0.1392,0.1274,0.1792,0.0,0.0,0.0,0.0,-0.7943,-0.5311,-0.5569,-0.9657,-0.9335,0.0,-1.0939,-1.1454,-1.178,-1.2045,0.0,0.0,0.0,0.0,0.0,-1.1176,-1.1034,-1.0714,-1.0164,-1.0079,-1.0179,0.0,0.0,-1.0277,-1.0343,-0.982,-0.9579,-0.9609,-0.9609,-0.9896,-1.006,-1.006,-1.0323,-1.0588,-1.0588,-1.0588,-1.0721,-1.0721,-1.0721,-1.1115,-1.2553,-1.2943,-1.3464,0.0,0.0,0.0,0.0,0.0,0.0,0.0,0.0,0.0,0.0,0.0,0.0,0.0,0.0,0.0,-1.48,0.0,0.0,0.0,0.0,0.0,0.0,0.0,0.0,0.0,0.0,0.0,-2.3602,-2.3877,-2.4401,-2.5052,-2.5059,-2.5059,-2.5059,-2.5329,-2.5599,-2.6003,-2.6398,-2.68,-2.7067,-2.72,-2.72,-2.72,-2.72,-2.7256,-2.7343,-2.7343,-2.9367,-3.2515,-3.4725,-3.6779,-3.8814,-0.7597,-0.7761,0.0,-0.7932,0.0,0.0,-0.7578,0.0,0.0,-0.3885,-0.3395,0.0,0.0252,0.1262,0.177,0.2025,0.2154,0.0,0.1266,0.0,0.0,-0.6528,-0.6133,-0.6785,-0.8631,-0.8948,0.0,-1.1009,0.0,0.0,-1.2309,0.0,0.0,0.0,0.0,-1.2161,-1.1652,-1.1159,-1.0774,-1.0371,-1.0371,0.0,0.0,-1.0592,-1.0643,-1.0588,-1.0326,-1.0193,-1.0193,-1.0193,-1.0326,-1.0455,-1.0455,-1.0588,-1.0721,-1.0721,-1.0721,-1.0721,-1.0721,-1.0721,-1.085,-1.1637,-1.1901,-1.2289,-1.4115,-1.4642,-1.4642,0.0,0.0,0.0,0.0,0.0,0.0,0.0,0.0,0.0,0.0,0.0,0.0,0.0,-1.712,0.0,0.0,0.0,0.0,0.0,0.0,0.0,0.0,0.0,0.0,-2.328,-2.3553,-2.4116,-2.484,-2.4844,-2.4916,-2.5059,-2.5464,-2.5734,-2.6138,-2.6532,-2.6934,-2.72,-2.72,-2.72,-2.72,-2.72,-2.72,-2.7334,-2.837,-3.0894,-3.4142,-3.5838,-3.7649,-3.9162,-0.7562,0.0,0.0,0.0,0.0,0.0,0.0,-0.6981,0.0,-0.5102,0.0,-0.2644,-0.1005,0.0252,0.1128,0.1732,0.0,0.1111,-0.0123,-0.1358,-0.2981,-0.5028,-0.719,-0.8122,-0.7806,-0.9124,-1.0226,0.0,0.0,0.0,0.0,0.0,0.0,0.0,0.0,0.0,0.0,-1.1137,-1.0649,-1.0521,-1.0521,-1.0602,-1.0721,-1.0721,-1.0721,-1.0721,-1.0721,-1.0721,-1.0721,-1.0721,-1.0721,-1.0721,-1.0721,-1.0721,-1.0721,-1.0721,-1.0721,-1.0721,-1.0982,-1.0982,-1.0982,-1.1244,-1.1372,-1.1769,-1.3337,-1.3731,-1.3866,-1.4525,-1.453,-1.4132,0.0,0.0,0.0,0.0,0.0,0.0,0.0,0.0,0.0,0.0,0.0,0.0,0.0,0.0,0.0,0.0,0.0,0.0,0.0,0.0,0.0,-2.2958,-2.3363,-2.3812,-2.4569,0.0,-2.4694,-2.5059,-2.542,-2.5823,-2.6138,-2.6532,-2.6934,-2.72,-2.72,-2.72,-2.72,-2.72,-2.7334,-2.7716,-3.0039,-3.2545,-3.5179,-3.6227,-3.7813,-3.9373,-0.779,0.0,0.0,0.0,0.0,-0.7807,-0.6937,-0.6864,-0.6988,-0.7244,-0.5399,-0.2638,0.0993,0.0744,0.0248,0.037,0.037,0.0,0.0,0.0,0.0,-0.6185,-0.5696,-0.6441,-0.8919,-0.8758,-0.9516,0.0,0.0,0.0,0.0,0.0,0.0,0.0,0.0,0.0,-1.1856,-1.1167,0.0,-1.068,-1.068,-1.0697,-1.0721,-1.0721,-1.0721,-1.0721,-1.0721,-1.0721,-1.0721,-1.0721,-1.0721,-1.0721,-1.0721,-1.0721,-1.0721,-1.0721,-1.0721,-1.0982,-1.2161,-1.2425,-1.2812,-1.4245,-1.4633,-1.4758,-1.5274,-1.5664,-1.5928,-1.6058,-1.6328,-1.6721,-1.7367,0.0,0.0,0.0,0.0,0.0,0.0,0.0,0.0,0.0,0.0,-1.7817,0.0,0.0,0.0,0.0,0.0,0.0,0.0,0.0,0.0,0.0,-2.3221,0.0,0.0,0.0,-2.4525,-2.5052,-2.5456,-2.5738,-2.6138,-2.68,-2.72,-2.72,-2.72,-2.72,-2.72,-2.72,-2.7849,-2.9142,-3.0927,-3.2756,-3.4744,-3.6273,-3.7508,-3.8412,0.0,0.0,0.0,0.0,0.0,0.0,0.0,-0.763,0.0,-0.5254,-0.5624,-0.5361,-0.3338,-0.1235,0.0,0.0,-0.0617,-0.1359,-0.1977,-0.1977,-0.2716,-0.4192,-0.4925,0.0,-0.7492,-0.8664,-0.9939,-1.1292,0.0,0.0,0.0,0.0,0.0,0.0,0.0,-1.2572,0.0,0.0,0.0,-1.1251,-1.1251,-1.1118,-1.0982,-1.1251,-1.1118,-1.0986,-1.0986,-1.0986,-1.0982,-1.0721,-1.0721,-1.0721,-1.0721,-1.0721,-1.0721,-1.0721,-1.1244,-1.1901,-1.2684,-1.3464,-1.4376,-1.5154,-1.5539,-1.5794,-1.6048,-1.6307,-1.6441,-1.6711,-1.6845,-1.7367,-1.853,-1.892,0.0,0.0,0.0,0.0,0.0,0.0,0.0,0.0,0.0,0.0,0.0,0.0,0.0,0.0,0.0,0.0,0.0,0.0,0.0,0.0,0.0,0.0,0.0,0.0,0.0,-2.4554,-2.5223,-2.5718,-2.5886,-2.6722,-2.72,-2.72,-2.72,-2.72,-2.72,-2.7981,-2.9134,-3.0549,-3.2209,-3.3872,-3.5531,-3.6545,-3.7295,-3.78,0.0,-0.7758,0.0,0.0,-0.8062,0.0,-0.819,-0.8324,-0.68,-0.2383,-0.4354,-0.619,-0.619,-0.247,-0.0123,-0.037,-0.1359,-0.1977,-0.1977,-0.1977,-0.2223,-0.2837,-0.4797,-0.6141,-0.6754,-0.8877,-1.0409,0.0,0.0,0.0,0.0,0.0,0.0,0.0,0.0,0.0,0.0,0.0,-1.2022,-1.1728,-1.1765,-1.1626,-1.1333,-1.1633,-1.1648,-1.1383,-1.1383,-1.1383,-1.1251,-1.0986,-1.0853,-1.0853,-1.0853,-1.0986,-1.0986,-1.0986,-1.1773,-1.2688,-1.3337,-1.4507,-1.5674,-1.6322,-1.67,-1.6953,-1.7345,-1.7345,-1.7479,-1.7748,-1.7876,-1.8139,-1.9297,-1.9425,0.0,0.0,0.0,0.0,0.0,0.0,0.0,0.0,0.0,0.0,-2.0889,0.0,0.0,0.0,0.0,-2.2263,-2.2138,-2.2452,-2.2738,0.0,0.0,-2.3268,-2.3723,0.0,-2.3681,-2.4216,-2.5061,-2.5451,-2.5666,-2.6666,-2.7089,-2.7097,-2.7169,-2.7334,-2.7716,-2.8888,-3.0298,-3.1826,-3.3369,-3.4891,-3.63,-3.68,-3.7032,-3.744,0.0,0.0,0.0,0.0,0.0,0.0,0.0,-0.7956,-0.6077,-0.0866,-0.0494,-0.0741,-0.0741,-0.0247,-0.0494,-0.1729,-0.1977,-0.1977,-0.1977,-0.1977,-0.3082,-0.5408,-0.5774,-0.6999,-0.9329,-0.9982,-1.0644,0.0,0.0,0.0,0.0,0.0,0.0,0.0,0.0,0.0,0.0,-1.2309,-1.1953,-1.1564,-1.1717,-1.1687,-1.1438,-1.1721,-1.178,-1.178,-1.178,-1.178,-1.178,-1.1648,-1.1516,-1.1247,-1.1516,-1.1648,-1.1648,-1.1648,-1.178,-1.2433,-1.4903,-1.5679,-1.6586,-1.9437,-2.0087,-2.0214,-2.0589,-2.0716,-2.0716,-2.0722,-2.0722,-2.0722,-2.0849,-2.0849,-2.0589,0.0,0.0,0.0,0.0,0.0,-1.9936,-2.0427,0.0,0.0,0.0,-2.1611,0.0,0.0,-2.2804,-2.2689,-2.2176,-2.2704,-2.3106,-2.3106,0.0,-2.3422,-2.4105,-2.3458,-2.362,-2.4598,-2.4585,-2.4999,-2.5579,-2.6435,-2.6724,-2.674,-2.7065,-2.7981,-2.9142,-2.9273,-3.0807,-3.3253,-3.3757,-3.4767,-3.6044,-3.6667,-3.6921,-3.7165,0.0,0.0,0.0,0.0,0.0,0.0,0.0,-0.7881,-0.6027,-0.0751,0.0,0.0,0.0,-0.0751,-0.1377,-0.2004,-0.1987,-0.1977,-0.1977,-0.2714,-0.3571,-0.4673,-0.6265,-0.7612,-0.8593,-0.9777,-1.0689,0.0,0.0,0.0,0.0,0.0,0.0,0.0,0.0,-1.2644,-1.2544,-1.2544,-1.2314,-1.2039,-1.2212,-1.211,-1.1804,-1.2239,-1.2309,-1.2045,-1.2045,-1.2045,-1.2045,-1.2045,-1.1912,-1.1648,-1.178,-1.178,-1.178,-1.178,-1.2437,-1.3481,-1.5424,-1.6716,-1.8016,-2.0087,-2.0736,-2.0989,-2.1109,-2.1109,-2.1109,-2.1109,-2.1109,-2.1109,-2.1109,-2.1109,-2.0976,0.0,0.0,0.0,0.0,0.0,0.0,-1.9406,0.0,-1.9139,0.0,0.0,0.0,0.0,0.0,-2.2359,-2.211,-2.2522,-2.282,-2.282,0.0,-2.3171,-2.3555,-2.3171,-2.337,-2.4007,-2.4455,-2.4815,-2.5342,-2.6071,-2.6358,-2.6366,-2.6509,-2.7327,-2.8588,-2.9462,-3.0988,-3.3113,-3.4,-3.5057,-3.5921,-3.6423,-3.6678,-3.7154,-0.7777,0.0,-0.7905,0.0,-0.7954,-0.7867,-0.7873,-0.6573,-0.4204,-0.0509,-0.0383,-0.0639,-0.0636,-0.1271,-0.178,-0.2034,-0.2007,-0.1989,-0.1989,-0.321,-0.4059,-0.4427,-0.6632,0.0,-0.8471,-0.9841,-1.0724,-1.1221,-1.1764,0.0,0.0,0.0,0.0,0.0,-1.2755,-1.2657,-1.2487,-1.2487,-1.2418,-1.232,-1.2495,-1.2435,-1.2193,-1.2636,-1.2704,-1.2441,-1.2441,-1.2441,-1.2441,-1.2441,-1.2309,-1.2045,-1.2045,-1.2045,-1.2045,-1.2045,-1.2832,-1.4006,-1.5684,-1.7109,-1.853,-2.0342,-2.0856,-2.1109,-2.1109,-2.1109,-2.1109,-2.1109,-2.1109,-2.1109,-2.1109,-2.1109,-2.1109,-2.1109,0.0,0.0,0.0,0.0,0.0,0.0,-1.9296,-1.9421,-2.0271,-2.0316,0.0,0.0,0.0,0.0,-2.2281,-2.2454,0.0,0.0,0.0,0.0,0.0,-2.323,-2.3355,-2.3736,-2.4352,-2.4725,-2.5109,-2.5707,-2.6049,-2.6272,-2.6647,-2.7512,-2.8753,-3.0231,-3.1826,-3.3381,-3.4513,-3.5271,-3.5798,-3.6167,-3.6646,-3.7484,-0.7411,-0.7913,-0.7918,-0.7934,-0.7905,-0.7857,-0.7875,-0.3458,-0.0129,-0.0,-0.1307,-0.2229,-0.2199,-0.1548,-0.1418,-0.2063,-0.2035,-0.2018,-0.2018,-0.3228,-0.455,0.0,0.0,-0.8471,-0.97,-1.0218,-1.067,-1.1046,0.0,0.0,-1.2316,0.0,-1.2568,-1.2568,-1.2568,-1.2471,-1.2308,-1.2308,-1.2308,-1.232,-1.2495,-1.2564,-1.2584,-1.2767,-1.2836,-1.2836,-1.2836,-1.2836,-1.2836,-1.2836,-1.2836,-1.2836,-1.2836,-1.2836,-1.2836,-1.2836,-1.2836,-1.3486,-1.6203,-1.698,-1.7619,-2.0462,-2.1109,-2.1109,-2.1109,-2.1109,-2.1109,-2.1109,-2.1109,-2.1109,-2.1109,-2.1109,-2.1109,-2.1109,0.0,0.0,0.0,0.0,0.0,-2.2464,-2.1199,-2.0762,-2.1991,-2.1219,0.0,0.0,0.0,0.0,0.0,0.0,0.0,-2.3596,-2.323,0.0,-2.3604,-2.3604,-2.3736,-2.4108,-2.4487,-2.4741,-2.5127,-2.5485,-2.5826,-2.6272,-2.7512,-2.887,-3.0254,-3.1913,-3.3484,-3.4797,-3.5242,-3.5418,-3.5418,-3.5798,-3.6857,-3.8484,-0.2375,-0.5432,-0.7915,-0.792,-0.486,-0.2564,-0.2566,-0.1948,-0.1441,-0.1441,-0.1856,-0.2137,-0.2261,-0.1976,-0.1833,0.0,-0.2048,-0.2018,0.0,-0.4094,-0.5406,-0.5896,-0.7978,-0.9329,-0.9822,-1.0354,-1.0804,-1.1042,0.0,0.0,0.0,-1.2361,-1.2389,-1.2389,-1.2389,-1.2288,-1.2117,-1.2117,-1.2117,-1.2134,-1.2316,-1.2458,-1.2584,-1.2767,-1.2836,-1.2836,-1.2836,-1.2836,-1.2836,-1.2836,-1.2836,-1.2836,-1.2836,-1.2836,-1.2836,-1.2836,-1.2836,-1.3354,-1.6203,-1.698,-1.7625,-2.0462,-2.1109,-2.1109,-2.1109,-2.1109,-2.1109,-2.1109,-2.1109,-2.1109,-2.1109,-2.1109,-2.1109,-2.1109,-2.1481,0.0,0.0,0.0,-2.1989,-2.203,-2.1605,-2.13,-2.1518,-2.1212,0.0,0.0,0.0,0.0,0.0,0.0,0.0,0.0,-2.2674,0.0,-2.323,-2.3238,-2.3479,-2.4108,-2.4232,-2.461,-2.5111,-2.523,-2.5821,-2.6767,-2.7127,-2.8572,-3.0658,-3.157,-3.2905,-3.4331,-3.4786,-3.5159,-3.5428,-3.5798,-3.6735,-3.8257,0.0,-0.2692,-0.4909,-0.4909,-0.2204,-0.013,-0.0781,-0.1581,-0.226,-0.226,-0.2143,-0.2155,-0.2155,-0.2138,0.0,-0.2126,-0.2071,-0.2035,-0.2035,-0.3982,-0.5406,-0.5896,-0.7978,-0.9329,-0.9822,-1.0425,0.0,-1.0945,-1.1626,-1.2089,-1.2203,-1.2276,-1.2272,-1.2203,-1.2203,-1.2101,-1.1935,-1.1935,-1.2012,-1.2146,-1.2259,-1.245,-1.2678,-1.2791,-1.2836,-1.2836,-1.2836,-1.2836,-1.2836,-1.2836,-1.2836,-1.2836,-1.2836,-1.2836,-1.2836,-1.2836,-1.2836,-1.3354,-1.6203,-1.698,-1.7625,-2.0462,-2.1109,-2.1109,-2.1109,-2.1109,-2.1109,-2.1109,-2.1109,-2.1109,-2.1109,-2.1109,-2.1109,-2.1109,-2.1362,-2.1623,-2.1561,0.0,-2.1896,0.0,0.0,0.0,0.0,-2.1211,-2.1325,0.0,0.0,0.0,0.0,0.0,0.0,-2.2169,-2.2359,0.0,-2.2923,-2.3054,-2.3484,-2.4108,-2.4363,-2.4734,-2.5111,-2.5111,-2.5823,-2.7021,-2.7495,-2.892,-3.0859,-3.1771,-3.2829,-3.3875,-3.4507,-3.4931,-3.52,-3.5612,-3.6857,-3.8732,0.0,0.0,0.0,0.0,0.0,0.0,-0.198,-0.2136,-0.2155,-0.2155,-0.2155,-0.2155,-0.2155,-0.2155,-0.2154,-0.2152,0.0,0.0,0.0,-0.3255,-0.455,-0.5896,-0.7243,-0.8471,-0.9819,-1.0425,-1.0789,-1.091,-1.1559,-1.2012,-1.2016,-1.219,-1.2178,-1.2012,-1.2012,-1.1922,-1.1776,-1.1776,-1.1975,-1.2288,-1.2304,-1.2511,-1.282,-1.2832,-1.2836,-1.2836,-1.2836,-1.2836,-1.2836,-1.2836,-1.2836,-1.2836,-1.2836,-1.2836,-1.2836,-1.2836,-1.2836,-1.3354,-1.6203,-1.698,-1.7625,-2.0462,-2.1109,-2.1109,-2.1109,-2.1109,-2.1109,-2.1109,-2.1109,-2.1109,-2.1109,-2.1109,-2.1109,-2.1109,-2.1468,-2.1721,-2.1656,0.0,-2.1875,0.0,0.0,0.0,0.0,-2.1211,-2.1211,0.0,0.0,0.0,0.0,0.0,-2.1818,-2.214,-2.2154,-2.2293,-2.2593,-2.2859,-2.3405,-2.4108,-2.4734,-2.5111,-2.5111,-2.5111,-2.5823,-2.7254,-2.8444,-2.963,-3.1092,-3.2717,-3.3379,-3.3461,-3.4362,-3.4714,-3.4766,-3.5323,-3.7265,-3.9616,0.0,0.0,0.0,0.0,0.0,-0.0536,-0.201,-0.215,-0.2155,-0.2155,-0.2155,-0.2155,-0.2155,-0.2155,-0.2145,-0.2122,-0.2086,-0.2064,-0.2064,-0.3255,-0.455,-0.5896,-0.7243,-0.8471,-0.9819,-1.0425,-1.1035,-1.153,-1.1696,-1.1837,-1.1837,-1.1882,-1.1878,-1.1837,-1.1837,-1.1813,-1.1776,-1.1776,-1.1898,-1.2109,-1.2247,-1.2438,-1.2645,-1.2783,-1.2836,-1.2836,-1.2836,-1.2836,-1.2836,-1.2836,-1.2836,-1.2836,-1.2836,-1.2836,-1.2836,-1.2836,-1.2836,-1.3354,-1.6203,-1.698,-1.7625,-2.0462,-2.1109,-2.1109,-2.1109,-2.1109,-2.1109,-2.1109,-2.1109,-2.1109,-2.1109,-2.1109,-2.1109,-2.1109,-2.1776,-2.2249,-2.2286,-2.3137,0.0,0.0,-2.3038,-2.2531,-2.2531,-2.1767,-2.1211,0.0,0.0,0.0,0.0,-2.1284,-2.1474,-2.1803,-2.1811,-2.1964,-2.2286,-2.2634,-2.3152,-2.4108,-2.4487,-2.4857,-2.5111,-2.5111,-2.6302,-2.8444,-2.8801,-3.0227,-3.2289,-3.3076,-3.3379,-3.343,-3.401,-3.4227,-3.4399,-3.5787,-3.7355,-3.9036,0.0,0.0,0.0,0.0,-0.0538,-0.1212,-0.1616,-0.202,-0.2155,-0.2155,-0.2155,-0.2155,-0.2155,-0.2142,-0.2127,-0.211,-0.2081,-0.2058,-0.2044,-0.2623,-0.3571,-0.4916,-0.6263,-0.7612,-0.8961,-1.0058,-1.0914,-1.1526,-1.1526,-1.1651,-1.1776,-1.1776,-1.1776,-1.1776,-1.1776,-1.1776,-1.1776,-1.1776,-1.1874,-1.2048,-1.2231,-1.241,-1.2584,-1.2767,-1.2836,-1.2836,-1.2836,-1.2836,-1.2836,-1.2836,-1.2836,-1.2836,-1.2836,-1.2836,-1.2836,-1.2836,-1.3227,-1.4263,-1.6462,-1.7496,-1.8396,-2.0596,-2.1109,-2.1109,-2.1109,-2.1109,-2.1109,-2.1109,-2.1109,-2.1229,-2.1846,-2.1971,-2.2215,-2.2834,-2.3175,-2.3323,-2.3464,-2.3945,0.0,-2.4256,-2.3975,-2.3743,-2.3743,-2.3191,-2.2749,-2.2749,-2.2749,0.0,-2.2093,-2.1987,-2.185,-2.1467,-2.1474,-2.1635,-2.1957,-2.2524,-2.3078,-2.3633,-2.4163,-2.461,-2.4857,-2.5456,-2.6892,-2.892,-2.9521,-3.083,-3.2747,-3.2985,-3.3078,-3.313,-3.3575,-3.3751,-3.4039,-3.5649,-3.7088,-3.8412,0.0,0.0,-0.0135,-0.0269,-0.1346,-0.202,-0.1346,-0.175,-0.2155,-0.2155,-0.2155,-0.2155,-0.2155,-0.2127,-0.2108,-0.2103,-0.2075,-0.2046,-0.202,-0.1992,-0.259,-0.3815,-0.5161,-0.651,-0.7856,-0.9569,-1.0668,-1.1273,-1.1394,-1.1522,-1.1776,-1.1776,-1.1776,-1.1776,-1.1776,-1.1776,-1.1776,-1.1776,-1.1857,-1.2008,-1.219,-1.2369,-1.2544,-1.2726,-1.2812,-1.2836,-1.2836,-1.2836,-1.2836,-1.2836,-1.2836,-1.2836,-1.2836,-1.2836,-1.2836,-1.3095,-1.4132,-1.5424,-1.6716,-1.8133,-1.9553,-2.0849,-2.1109,-2.1109,-2.1109,-2.1109,-2.1109,-2.1109,-2.1109,-2.1481,-2.2827,-2.3076,-2.3551,-2.4739,-2.4795,-2.4555,-2.4561,0.0,-2.4783,-2.4804,-2.4855,-2.4948,-2.4948,-2.4837,-2.4727,-2.4727,-2.4727,-2.4283,-2.3311,-2.3303,-2.2757,-2.1759,-2.1432,-2.1364,-2.1693,-2.246,-2.2991,-2.3043,-2.3626,-2.4155,-2.4532,-2.5896,-2.7357,-2.8911,-3.0227,-3.1536,-3.2727,-3.2727,-3.2727,-3.2768,-3.3141,-3.3275,-3.3559,-3.5269,-3.6689,-3.7881,0.0,0.0,-0.0404,-0.1616,-0.202,-0.2155,-0.202,-0.2155,-0.2155,-0.2155,-0.2155,-0.2155,-0.2155,-0.2127,-0.2099,-0.2074,-0.2043,-0.2023,-0.2019,-0.1992,-0.259,-0.3815,-0.5161,-0.651,-0.7856,-0.9812,-1.091,-1.1273,-1.1526,-1.1776,-1.1776,-1.1776,-1.1776,-1.1776,-1.1776,-1.1776,-1.1776,-1.1776,-1.1792,-1.1833,-1.2004,-1.2182,-1.2365,-1.254,-1.2702,-1.2836,-1.2836,-1.2836,-1.2836,-1.2836,-1.2836,-1.2836,-1.2836,-1.2836,-1.2964,-1.4263,-1.5554,-1.6721,-1.698,-1.8914,-2.0849,-2.1109,-2.1109,-2.1109,-2.1109,-2.1109,-2.1109,-2.1109,-2.1109,-2.1481,-2.2827,-2.3076,-2.3353,-2.4401,-2.514,-2.5484,-2.5121,0.0,-2.6946,-2.6881,-2.6527,-2.6191,-2.6191,-2.5287,-2.4727,-2.4727,-2.4727,-2.4616,-2.4505,-2.4394,-2.4394,-2.4172,-2.2199,-2.1364,-2.1693,-2.1796,-2.2209,-2.2826,-2.3157,-2.3429,-2.381,-2.5659,-2.7228,-2.8545,-3.01,-3.1536,-3.2727,-3.2727,-3.2727,-3.2737,-3.2799,-3.283,-3.3101,-3.5769,-3.6947,-3.7472,0.0,0.0,-0.0404,-0.1885,-0.2155,-0.2155,-0.2155,-0.2155,-0.2155,-0.2155,-0.214,-0.213,-0.213,-0.2089,-0.2054,-0.204,-0.2013,-0.1996,-0.1996,-0.1984,-0.259,-0.3815,-0.5161,-0.6877,-0.8839,-0.9815,-1.0425,-1.0789,-1.1156,-1.1402,-1.1522,-1.1772,-1.1776,-1.1776,-1.1776,-1.1776,-1.1784,-1.1874,-1.1914,-1.1939,-1.2207,-1.2369,-1.2467,-1.2641,-1.2763,-1.2836,-1.2836,-1.2836,-1.2836,-1.2836,-1.2836,-1.2836,-1.2836,-1.2836,-1.3095,-1.452,-1.6457,-1.8267,-1.9042,-2.0075,-2.1109,-2.1109,-2.1109,-2.1109,-2.1109,-2.1109,-2.1109,-2.1109,-2.1727,-2.2584,-2.3938,-2.4679,-2.5546,-2.6389,-2.6723,0.0,0.0,-2.6912,-2.7323,-2.7206,-2.7305,-2.7403,-2.7295,-2.6844,-2.6617,-2.6617,-2.6617,-2.64,-2.5735,-2.5626,-2.5397,-2.4718,-2.3623,-2.2495,-2.143,-2.2289,-2.279,-2.3177,-2.3392,-2.4118,-2.537,-2.7186,-2.8455,-2.962,-3.1179,-3.2143,-3.2727,-3.2727,-3.2727,-3.2727,-3.2727,-3.3058,-3.3952,-3.5801,-3.6979,-3.7821,0.0,0.0,-0.0404,-0.1481,-0.202,-0.2155,-0.2155,-0.2155,-0.2152,-0.2145,-0.2124,-0.2106,-0.2099,-0.205,-0.2018,-0.2018,-0.1992,-0.1977,-0.1977,-0.2222,-0.2836,-0.3815,-0.5529,-0.7487,-0.97,-0.9819,-1.0061,-1.0304,-1.0668,-1.091,-1.1152,-1.1526,-1.1651,-1.1651,-1.1817,-1.1837,-1.1845,-1.202,-1.2093,-1.2117,-1.2393,-1.2527,-1.258,-1.2718,-1.28,-1.2836,-1.2836,-1.2836,-1.2836,-1.2836,-1.2836,-1.2836,-1.3227,-1.3223,-1.3613,-1.5298,-1.7619,-1.968,-2.0849,-2.1109,-2.1109,-2.1109,-2.1109,-2.1109,-2.1109,-2.1109,-2.1235,-2.1475,-2.2334,-2.3566,-2.5178,-2.6211,-2.7123,-2.8073,0.0,0.0,0.0,-2.7204,-2.7206,-2.6989,-2.7745,-2.8184,-2.796,-2.8184,-2.8291,-2.8291,-2.8291,-2.7853,-2.6971,-2.6961,-2.64,-2.5177,-2.4837,-2.3847,-2.1979,-2.3244,-2.3829,-2.3829,-2.4069,-2.5002,-2.6646,-2.8357,-2.9564,-3.0344,-3.2018,-3.2727,-3.2727,-3.2727,-3.2727,-3.2727,-3.2727,-3.3388,-3.4692,-3.5761,-3.6954,-3.8116,0.0,0.0,-0.0,-0.0135,-0.1346,-0.2155,-0.2155,-0.2155,-0.2144,-0.2116,-0.211,-0.2098,-0.207,-0.2038,-0.2018,-0.2018,-0.1992,-0.1977,-0.1977,-0.3081,-0.3815,-0.3936,-0.6385,-0.8349,-0.9819,-1.0061,-1.0304,-1.0304,-1.0668,-1.0789,-1.0789,-1.1152,-1.1394,-1.1402,-1.1812,-1.2012,-1.2024,-1.2207,-1.2284,-1.2288,-1.2316,-1.2422,-1.2564,-1.258,-1.269,-1.2836,-1.2836,-1.2836,-1.2836,-1.2836,-1.2836,-1.2964,-1.439,-1.4782,-1.5298,-1.7876,-1.9814,-2.0982,-2.1109,-2.1109,-2.1109,-2.1109,-2.1109,-2.1109,-2.1109,-2.1109,-2.1475,-2.2709,-2.3076,-2.3814,-2.6399,-2.6594,-2.6715,-2.7637,0.0,0.0,-2.6683,-2.6909,-2.6989,-2.6989,-2.753,-2.796,-2.7853,-2.8184,-2.8291,-2.8291,-2.8291,-2.8291,-2.8184,-2.8184,-2.7628,-2.6409,-2.5287,-2.4616,-2.4394,-2.4531,-2.465,-2.4659,-2.493,-2.5417,-2.6033,-2.8219,-2.9458,-3.0001,-3.1903,-3.2727,-3.2727,-3.2727,-3.2727,-3.2727,-3.2727,-3.3388,-3.4692,-3.5761,-3.6954,-3.8056,0.0,0.0,0.0,0.0,-0.0808,-0.1611,-0.2129,-0.2126,-0.2116,-0.2085,-0.2065,-0.2048,-0.2037,-0.2009,-0.1992,-0.1992,-0.1983,-0.2346,-0.308,-0.357,-0.4673,-0.6263,-0.8102,-0.9329,-0.9822,-0.9943,-0.994,-0.994,-1.0304,-1.0547,-1.0793,-1.126,-1.1555,-1.1812,-1.1993,-1.2203,-1.2215,-1.2389,-1.2467,-1.2475,-1.2588,-1.2674,-1.2735,-1.2735,-1.2775,-1.2836,-1.2836,-1.2836,-1.2968,-1.3875,-1.4132,-1.4394,-1.5814,-1.6203,-1.6586,-1.839,-1.9947,-2.1109,-2.1109,-2.1109,-2.1109,-2.1109,-2.1109,-2.1109,-2.1109,-2.172,-2.2459,-2.2952,-2.4432,-2.5782,-2.6771,-2.7318,-2.7643,-2.7829,0.0,-2.704,-2.6646,-2.6791,-2.689,-2.6791,-2.7215,-2.753,-2.7314,-2.7745,-2.8067,-2.8067,-2.8184,-2.8291,-2.8291,-2.8291,-2.8077,-2.7628,-2.7178,-2.6173,-2.4718,-2.5397,-2.5845,-2.5854,-2.5997,-2.6727,-2.8163,-2.9356,-3.0359,-3.1023,-3.225,-3.2727,-3.2727,-3.2727,-3.2727,-3.2727,-3.2727,-3.3818,-3.5651,-3.6077,-3.7394,-3.9037,0.0,0.0,-0.0134,-0.0532,-0.093,-0.1324,-0.1967,-0.2095,-0.2084,-0.2054,-0.2031,-0.2015,-0.2006,-0.1988,-0.1977,-0.1977,-0.2345,-0.2958,-0.3815,-0.4671,-0.6018,-0.7856,-0.9083,-0.9822,-0.9822,-0.9822,-0.9822,-0.9822,-1.0114,-1.0379,-1.0505,-1.1039,-1.137,-1.1627,-1.2051,-1.2258,-1.227,-1.2576,-1.2649,-1.2661,-1.2787,-1.2836,-1.2836,-1.2836,-1.2836,-1.2836,-1.3358,-1.3486,-1.3613,-1.5038,-1.5554,-1.5814,-1.7232,-1.7876,-1.8524,-1.9425,-2.0335,-2.1109,-2.1109,-2.1109,-2.1109,-2.1109,-2.1481,-2.1727,-2.1727,-2.2709,-2.3822,-2.4186,-2.5782,-2.7142,-2.7504,-2.7948,-2.8104,-2.7811,-2.7334,-2.6903,-2.6628,-2.6791,-2.6791,-2.6582,-2.7008,-2.7206,-2.6989,-2.7422,-2.7745,-2.7853,-2.8067,-2.8184,-2.8291,-2.8291,-2.8291,-2.8291,-2.8291,-2.7511,-2.5836,-2.6626,-2.7079,-2.7079,-2.7079,-2.7848,-2.9283,-3.0018,-3.0691,-3.1472,-3.2138,-3.2602,-3.2727,-3.2727,-3.2944,-3.3275,-3.3275,-3.4681,-3.6738,-3.6738,-3.7938,-3.9697,0.0,0.0,-0.0394,-0.1813,-0.142,-0.129,-0.1934,-0.2063,-0.2052,-0.2022,-0.2018,-0.2007,-0.1979,-0.1977,-0.1977,-0.1977,-0.3203,-0.3937,-0.3937,-0.6388,-0.7858,-0.7858,-0.9083,-0.9822,-0.9822,-0.9822,-0.9822,-0.9822,-0.9975,-1.0049,-1.0056,-1.0587,-1.0788,-1.0795,-1.1588,-1.2044,-1.2056,-1.2628,-1.2836,-1.2836,-1.2836,-1.2836,-1.2836,-1.2836,-1.2836,-1.2964,-1.439,-1.4907,-1.5168,-1.6592,-1.698,-1.7238,-1.8652,-1.9941,-2.1109,-2.1109,-2.1109,-2.1109,-2.1109,-2.1109,-2.1109,-2.1109,-2.2097,-2.3076,-2.3076,-2.4062,-2.5423,-2.6771,-2.7021,-2.7383,-2.8728,-2.8315,-2.7765,-2.7765,-2.7105,-2.6591,-2.6591,-2.6591,-2.6591,-2.6591,-2.6781,-2.6989,-2.6989,-2.7206,-2.7539,-2.7853,-2.7853,-2.8067,-2.8291,-2.8291,-2.8291,-2.8291,-2.8291,-2.8291,-2.8291,-2.8291,-2.8291,-2.8291,-2.8291,-2.8506,-2.8916,-2.9579,-3.0279,-3.1113,-3.1697,-3.2302,-3.2727,-3.2727,-3.3388,-3.448,-3.448,-3.5881,-3.795,-3.795,-3.8712,-3.9697,0.0,0.0,-0.0389,-0.181,-0.1807,-0.18,-0.1908,-0.2032,-0.2022,-0.1993,-0.1989,-0.1986,-0.1977,-0.2836,-0.3325,-0.3325,-0.455,-0.5651,-0.6632,-0.8346,-0.9207,-0.9207,-0.9576,-0.9822,-0.9822,-0.9822,-0.9873,-0.9981,-1.0025,-1.0228,-1.0591,-1.0874,-1.1074,-1.1335,-1.1631,-1.1968,-1.2235,-1.2417,-1.2572,-1.2836,-1.2836,-1.2836,-1.2836,-1.2836,-1.3354,-1.439,-1.4782,-1.5554,-1.6592,-1.7876,-1.8396,-1.8652,-2.0075,-2.0722,-2.1109,-2.1109,-2.1109,-2.1109,-2.1109,-2.1109,-2.1109,-2.1109,-2.2097,-2.3076,-2.3076,-2.4802,-2.6529,-2.6892,-2.7753,-2.8408,-2.85,-2.8132,-2.7673,-2.7398,-2.6921,-2.6591,-2.6591,-2.6591,-2.6591,-2.6591,-2.6691,-2.6691,-2.6691,-2.7107,-2.7431,-2.7539,-2.796,-2.8184,-2.8291,-2.8291,-2.8291,-2.8291,-2.8291,-2.8291,-2.8291,-2.8291,-2.8291,-2.8291,-2.8291,-2.8564,-2.9013,-2.9547,-3.0336,-3.1367,-3.1787,-3.2731,-3.3931,-3.3931,-3.4692,-3.5651,-3.5651,-3.6642,-3.795,-3.795,-3.8712,-3.9697,-0.0256,0.0,-0.0383,-0.1398,-0.1776,-0.2023,-0.2005,-0.2002,-0.1996,-0.1979,-0.2468,-0.2713,-0.2713,-0.3939,-0.4671,-0.4671,-0.5896,-0.7243,-0.8593,-0.9384,-0.991,-0.991,-0.9968,-0.9975,-0.9914,-0.991,-0.9985,-1.0141,-1.0195,-1.04,-1.0621,-1.077,-1.0974,-1.1239,-1.1472,-1.178,-1.2045,-1.2177,-1.2441,-1.2836,-1.2836,-1.3095,-1.3613,-1.3613,-1.452,-1.5814,-1.6328,-1.7103,-1.8005,-1.9425,-1.9814,-1.9941,-2.0849,-2.1109,-2.1109,-2.1109,-2.1109,-2.1109,-2.1109,-2.1481,-2.1846,-2.1846,-2.2834,-2.3938,-2.4556,-2.6277,-2.7753,-2.7753,-2.8489,-2.8865,-2.8471,-2.8049,-2.7636,-2.7242,-2.6848,-2.6591,-2.6591,-2.6591,-2.6591,-2.6591,-2.6591,-2.6591,-2.6591,-2.6999,-2.7314,-2.753,-2.8067,-2.8291,-2.8291,-2.8291,-2.8291,-2.8291,-2.8291,-2.8291,-2.8291,-2.8698,-2.8698,-2.8291,-2.8291,-2.8504,-2.894,-2.9307,-3.0417,-3.1906,-3.2279,-3.3528,-3.5124,-3.5124,-3.587,-3.6846,-3.6846,-3.7619,-3.8607,-3.8607,-3.9037,-3.9697,-0.1134,-0.0502,-0.0626,-0.1361,-0.1975,-0.2346,-0.2346,-0.2346,-0.2346,-0.2346,-0.3326,-0.4059,-0.4059,-0.5284,-0.6018,-0.6018,-0.7253,-0.8616,-0.9737,-0.9992,-1.007,-1.007,-1.0205,-1.0219,-1.0093,-1.0076,-1.0144,-1.03,-1.0429,-1.05,-1.0514,-1.0656,-1.0721,-1.0721,-1.0986,-1.138,-1.178,-1.2177,-1.2572,-1.2964,-1.3095,-1.3875,-1.5038,-1.5038,-1.5944,-1.7361,-1.8524,-1.9036,-1.9425,-2.0716,-2.1109,-2.1109,-2.1109,-2.1109,-2.1109,-2.1109,-2.1109,-2.1109,-2.1229,-2.2215,-2.3201,-2.3442,-2.4309,-2.5546,-2.6771,-2.8002,-2.8984,-2.8984,-2.8984,-2.8847,-2.8416,-2.8022,-2.7627,-2.7196,-2.682,-2.6591,-2.6591,-2.6591,-2.6591,-2.6591,-2.6591,-2.6591,-2.6591,-2.689,-2.7314,-2.7853,-2.8184,-2.8291,-2.8398,-2.8398,-2.8398,-2.8601,-2.8504,-2.8495,-2.8601,-2.9513,-2.9513,-2.8388,-2.8601,-2.8708,-2.9036,-2.9227,-3.0662,-3.292,-3.3123,-3.4415,-3.6294,-3.6294,-3.7073,-3.8056,-3.8056,-3.8712,-3.9697,-3.9697,-3.9697,-3.9697,-0.6328,-0.4455,-0.3582,-0.5051,-0.5544,-0.5419,-0.5165,-0.5042,-0.5042,-0.5042,-0.5286,-0.5406,-0.5406,-0.663,-0.749,-0.749,-0.8688,-0.9676,-1.0171,-1.0212,-1.0229,-1.0229,-1.0263,-1.0317,-1.0395,-1.0287,-1.03,-1.0446,-1.0477,-1.0555,-1.067,-1.0704,-1.0721,-1.0721,-1.0721,-1.0982,-1.138,-1.2561,-1.3477,-1.4128,-1.5303,-1.6078,-1.6592,-1.6592,-1.7361,-1.8652,-1.8908,-1.9686,-2.0722,-2.0982,-2.1109,-2.1109,-2.1109,-2.1109,-2.1109,-2.1109,-2.1109,-2.1355,-2.2334,-2.2827,-2.3566,-2.566,-2.6399,-2.665,-2.6892,-2.8002,-2.8984,-2.8984,-2.8984,-2.8764,-2.8031,-2.7829,-2.7536,-2.683,-2.6646,-2.6591,-2.6591,-2.6591,-2.6591,-2.6591,-2.6591,-2.6591,-2.6591,-2.7008,-2.7431,-2.7853,-2.8184,-2.8708,-2.9513,-2.8804,-2.9112,-3.0856,-3.0037,-3.0026,-3.0856,-3.1165,-3.065,-2.9513,-3.0442,-3.1165,-3.1564,-3.1666,-3.2594,-3.4264,-3.4368,-3.5572,-3.7501,-3.7501,-3.8267,-3.9362,-3.9362,-3.9478,-3.9697,-3.9697,-3.9697,-3.9788,-0.7945,-0.6925,-0.6162,-0.6672,-0.68,-0.667,-0.6154,-0.6152,-0.6152,-0.6152,-0.6652,-0.7029,-0.7029,-0.8282,-0.9035,-0.9035,-0.9735,-1.0195,-1.0276,-1.0344,-1.0382,-1.0382,-1.0453,-1.0524,-1.0599,-1.0527,-1.0527,-1.0602,-1.0602,-1.0639,-1.0721,-1.0721,-1.0721,-1.0721,-1.1376,-1.1901,-1.2297,-1.3735,-1.4646,-1.5294,-1.5949,-1.6726,-1.7507,-1.763,-1.853,-1.982,-1.9947,-2.0462,-2.1109,-2.1109,-2.1109,-2.1109,-2.1109,-2.1109,-2.1109,-2.1109,-2.1601,-2.2215,-2.2952,-2.4062,-2.5293,-2.665,-2.7504,-2.7993,-2.7993,-2.8489,-2.8984,-2.8984,-2.8984,-2.8737,-2.7911,-2.7765,-2.7508,-2.6719,-2.6591,-2.6591,-2.6591,-2.6591,-2.6591,-2.6591,-2.6591,-2.6691,-2.6791,-2.7107,-2.7736,-2.8572,-2.889,-2.9523,-3.0639,-3.0141,-3.0453,-3.1575,-3.1062,-3.0959,-3.1575,-3.2083,-3.2083,-3.1462,-3.1666,-3.1971,-3.2364,-3.2566,-3.3616,-3.5509,-3.5509,-3.6745,-3.8712,-3.8712,-3.9141,-3.9697,-3.9697,-3.9697,-3.9788,-4.0275,-4.0756,-4.1293,-0.8116,-0.8116,-0.7988,-0.7601,-0.7471,-0.734,-0.707,-0.694,-0.694,-0.694,-0.7965,-0.8608,-0.8608,-0.9637,-1.029,-1.0314,-1.0317,-1.0327,-1.0354,-1.0466,-1.0521,-1.0493,-1.0612,-1.067,-1.0646,-1.0643,-1.0656,-1.068,-1.068,-1.067,-1.0646,-1.067,-1.0812,-1.1076,-1.2281,-1.3079,-1.3604,-1.5043,-1.5949,-1.6338,-1.6467,-1.7378,-1.8425,-1.867,-1.9571,-2.0609,-2.0856,-2.1109,-2.1109,-2.1109,-2.1109,-2.1109,-2.1109,-2.1229,-2.1481,-2.1481,-2.2341,-2.3442,-2.369,-2.5293,-2.7021,-2.7263,-2.8122,-2.8984,-2.8984,-2.8984,-2.8984,-2.8984,-2.8929,-2.8654,-2.7902,-2.771,-2.7426,-2.671,-2.6591,-2.6591,-2.6591,-2.6591,-2.6591,-2.6591,-2.6591,-2.6691,-2.6989,-2.7206,-2.7941,-2.9377,-2.9702,-3.0442,-3.1779,-3.1677,-3.1779,-3.2185,-3.1982,-3.1982,-3.2185,-3.3001,-3.3511,-3.3511,-3.2889,-3.2778,-3.2978,-3.3166,-3.4534,-3.6666,-3.6666,-3.7808,-3.9697,-3.9697,-3.9697,-3.9697,-3.989,-3.9981,-4.007,-4.1132,-4.203,-4.2944,-0.8236,-0.8236,-0.8364,-0.8869,-0.8997,-0.9124,-0.9637,-0.9764,-0.9764,-0.9764,-0.9895,-1.0022,-1.0022,-1.0153,-1.0331,-1.0453,-1.0463,-1.0521,-1.0653,-1.0677,-1.0629,-1.0497,-1.051,-1.0466,-1.0341,-1.0341,-1.0399,-1.0524,-1.0524,-1.046,-1.0341,-1.0466,-1.1167,-1.233,-1.2616,-1.3468,-1.4777,-1.6203,-1.698,-1.7372,-1.867,-1.945,-1.9845,-1.9845,-2.0227,-2.0609,-2.0609,-2.0856,-2.1109,-2.1109,-2.1109,-2.1109,-2.1109,-2.1846,-2.2827,-2.2827,-2.3698,-2.5056,-2.6156,-2.6771,-2.7263,-2.8489,-2.8856,-2.8984,-2.8984,-2.8984,-2.8984,-2.8984,-2.8709,-2.8324,-2.7856,-2.749,-2.7105,-2.6664,-2.6591,-2.6591,-2.6591,-2.6591,-2.6591,-2.6591,-2.6591,-2.6691,-2.6989,-2.7206,-2.7941,-2.9377,-2.9702,-3.0845,-3.2889,-3.2083,-3.2488,-3.4323,-3.3511,-3.34,-3.4323,-3.4519,-3.4726,-3.492,-3.5017,-3.5114,-3.5211,-3.5404,-3.638,-3.7792,-3.7792,-3.8542,-3.9697,-3.9697,-3.9697,-3.9788,-4.0642,-4.1032,-4.1132,-4.2195,-4.2943,-4.3314,-0.8323,-0.8466,-0.8745,-0.9465,-0.9742,-1.0,-1.0397,-1.0527,-1.0527,-1.0527,-1.0527,-1.0527,-1.0527,-1.0527,-1.0517,-1.0493,-1.049,-1.0487,-1.0477,-1.0473,-1.0443,-1.0378,-1.0375,-1.0344,-1.0283,-1.028,-1.027,-1.0243,-1.0331,-1.0341,-1.028,-1.11,-1.1764,-1.2402,-1.4007,-1.5067,-1.5712,-1.7246,-1.8076,-1.8221,-1.9006,-1.9456,-1.959,-1.9979,-2.01,-2.0094,-2.0482,-2.0856,-2.1109,-2.1109,-2.1601,-2.2215,-2.2215,-2.3076,-2.4186,-2.4186,-2.5056,-2.6286,-2.6892,-2.7504,-2.8241,-2.8856,-2.8984,-2.8984,-2.8984,-2.8984,-2.8984,-2.8984,-2.8663,-2.8269,-2.7838,-2.7444,-2.705,-2.6655,-2.6591,-2.6591,-2.6591,-2.6591,-2.6591,-2.6591,-2.6591,-2.6691,-2.6989,-2.7833,-2.887,-3.0296,-3.1235,-3.2376,-3.4017,-3.361,-3.3808,-3.4726,-3.4323,-3.4323,-3.4823,-3.4823,-3.492,-3.5223,-3.5428,-3.5716,-3.5824,-3.641,-3.7165,-3.8027,-3.8354,-3.8944,-3.9697,-3.9697,-3.9697,-3.9788,-4.0844,-4.1701,-4.2467,-4.294,-4.3413,-4.3684]}]]